Wetterdaten: Dienstag, 21.08.2018
Datum Zeit Temp. A. Feuchte A. Luftdruck Regen Wind Richtung Richtung Sonnenschein ET UV Solar Taupunkt Windchill Windböen
21.08.2018 00:00 18,2 °C 80 % 1016,6 hPa 0,0 mm 0,9 km/h (0 Bft) S-SW 192 ° 0 min 0,000 mm 0,0 UV-I 0 W/m² 14,7 °C 18,2 °C 3,2 km/h (1 Bft)
21.08.2018 00:01 18,2 °C 81 % 1016,7 hPa 0,0 mm 1,5 km/h (1 Bft) S-SW 192 ° 0 min 0,000 mm 0,0 UV-I 0 W/m² 14,9 °C 18,2 °C 3,2 km/h (1 Bft)
21.08.2018 00:03 18,1 °C 80 % 1016,7 hPa 0,0 mm 0,0 km/h (0 Bft) S-SW 192 ° 0 min 0,000 mm 0,0 UV-I 0 W/m² 14,6 °C 18,1 °C 0,0 km/h (0 Bft)
21.08.2018 00:04 18,1 °C 80 % 1016,7 hPa 0,0 mm 0,0 km/h (0 Bft) S-SW 192 ° 0 min 0,000 mm 0,0 UV-I 0 W/m² 14,6 °C 18,1 °C 0,0 km/h (0 Bft)
21.08.2018 00:05 17,9 °C 80 % 1016,6 hPa 0,0 mm 0,9 km/h (0 Bft) S-SW 192 ° 0 min 0,000 mm 0,0 UV-I 0 W/m² 14,4 °C 17,9 °C 3,2 km/h (1 Bft)
21.08.2018 00:06 17,8 °C 81 % 1016,6 hPa 0,0 mm 2,1 km/h (1 Bft) S-SW 192 ° 0 min 0,000 mm 0,0 UV-I 0 W/m² 14,5 °C 17,8 °C 4,8 km/h (1 Bft)
21.08.2018 00:07 17,8 °C 81 % 1016,6 hPa 0,0 mm 1,3 km/h (1 Bft) S-SW 192 ° 0 min 0,000 mm 0,0 UV-I 0 W/m² 14,5 °C 17,8 °C 3,2 km/h (1 Bft)
21.08.2018 00:08 17,8 °C 81 % 1016,6 hPa 0,0 mm 1,5 km/h (1 Bft) S-SW 192 ° 0 min 0,000 mm 0,0 UV-I 0 W/m² 14,5 °C 17,8 °C 3,2 km/h (1 Bft)
21.08.2018 00:09 17,8 °C 81 % 1016,6 hPa 0,0 mm 1,9 km/h (1 Bft) S-SW 192 ° 0 min 0,000 mm 0,0 UV-I 0 W/m² 14,5 °C 17,8 °C 3,2 km/h (1 Bft)
21.08.2018 00:10 17,8 °C 81 % 1016,6 hPa 0,0 mm 2,3 km/h (1 Bft) S-SW 192 ° 0 min 0,000 mm 0,0 UV-I 0 W/m² 14,5 °C 17,8 °C 3,2 km/h (1 Bft)
21.08.2018 00:11 17,8 °C 81 % 1016,7 hPa 0,0 mm 2,1 km/h (1 Bft) S-SW 192 ° 0 min 0,000 mm 0,0 UV-I 0 W/m² 14,5 °C 17,8 °C 3,2 km/h (1 Bft)
21.08.2018 00:12 17,9 °C 80 % 1016,7 hPa 0,0 mm 1,5 km/h (1 Bft) S-SW 192 ° 0 min 0,000 mm 0,0 UV-I 0 W/m² 14,4 °C 17,9 °C 4,8 km/h (1 Bft)
21.08.2018 00:13 17,9 °C 80 % 1016,7 hPa 0,0 mm 2,9 km/h (1 Bft) S-SW 192 ° 0 min 0,000 mm 0,0 UV-I 0 W/m² 14,4 °C 17,9 °C 4,8 km/h (1 Bft)
21.08.2018 00:14 17,9 °C 80 % 1016,6 hPa 0,0 mm 2,9 km/h (1 Bft) S-SW 192 ° 0 min 0,000 mm 0,0 UV-I 0 W/m² 14,4 °C 17,9 °C 4,8 km/h (1 Bft)
21.08.2018 00:15 17,9 °C 80 % 1016,6 hPa 0,0 mm 4,3 km/h (1 Bft) S-SW 192 ° 0 min 0,000 mm 0,0 UV-I 0 W/m² 14,4 °C 17,9 °C 4,8 km/h (1 Bft)
21.08.2018 00:16 17,9 °C 80 % 1016,6 hPa 0,0 mm 3,4 km/h (1 Bft) S-SW 192 ° 0 min 0,000 mm 0,0 UV-I 0 W/m² 14,4 °C 17,9 °C 4,8 km/h (1 Bft)
21.08.2018 00:17 17,9 °C 80 % 1016,6 hPa 0,0 mm 3,6 km/h (1 Bft) S-SW 192 ° 0 min 0,000 mm 0,0 UV-I 0 W/m² 14,4 °C 17,9 °C 4,8 km/h (1 Bft)
21.08.2018 00:18 17,9 °C 80 % 1016,6 hPa 0,0 mm 3,6 km/h (1 Bft) S-SW 192 ° 0 min 0,000 mm 0,0 UV-I 0 W/m² 14,4 °C 17,9 °C 4,8 km/h (1 Bft)
21.08.2018 00:19 17,9 °C 80 % 1016,6 hPa 0,0 mm 4,0 km/h (1 Bft) S-SW 192 ° 0 min 0,000 mm 0,0 UV-I 0 W/m² 14,4 °C 17,9 °C 4,8 km/h (1 Bft)
21.08.2018 00:20 17,9 °C 80 % 1016,6 hPa 0,0 mm 4,9 km/h (1 Bft) S-SW 192 ° 0 min 0,000 mm 0,0 UV-I 0 W/m² 14,4 °C 17,9 °C 6,4 km/h (2 Bft)
21.08.2018 00:21 17,9 °C 80 % 1016,6 hPa 0,0 mm 3,6 km/h (1 Bft) S-SW 192 ° 0 min 0,000 mm 0,0 UV-I 0 W/m² 14,4 °C 17,9 °C 4,8 km/h (1 Bft)
21.08.2018 00:22 17,8 °C 80 % 1016,7 hPa 0,0 mm 1,6 km/h (1 Bft) S-SW 192 ° 0 min 0,000 mm 0,0 UV-I 0 W/m² 14,3 °C 17,8 °C 3,2 km/h (1 Bft)
21.08.2018 00:23 17,8 °C 80 % 1016,7 hPa 0,0 mm 1,7 km/h (1 Bft) S-SW 192 ° 0 min 0,000 mm 0,0 UV-I 0 W/m² 14,3 °C 17,8 °C 3,2 km/h (1 Bft)
21.08.2018 00:24 17,7 °C 80 % 1016,7 hPa 0,0 mm 2,6 km/h (1 Bft) S-SW 192 ° 0 min 0,000 mm 0,0 UV-I 0 W/m² 14,2 °C 17,7 °C 4,8 km/h (1 Bft)
21.08.2018 00:25 17,7 °C 80 % 1016,7 hPa 0,0 mm 1,1 km/h (1 Bft) S-SW 192 ° 0 min 0,000 mm 0,0 UV-I 0 W/m² 14,2 °C 17,7 °C 3,2 km/h (1 Bft)
21.08.2018 00:26 17,6 °C 80 % 1016,7 hPa 0,0 mm 3,1 km/h (1 Bft) S-SW 192 ° 0 min 0,000 mm 0,0 UV-I 0 W/m² 14,1 °C 17,6 °C 4,8 km/h (1 Bft)
21.08.2018 00:27 17,5 °C 80 % 1016,6 hPa 0,0 mm 0,8 km/h (0 Bft) S-SW 192 ° 0 min 0,000 mm 0,0 UV-I 0 W/m² 14,0 °C 17,5 °C 3,2 km/h (1 Bft)
21.08.2018 00:28 17,4 °C 81 % 1016,7 hPa 0,0 mm 0,5 km/h (0 Bft) S-SW 192 ° 0 min 0,000 mm 0,0 UV-I 0 W/m² 14,1 °C 17,4 °C 3,2 km/h (1 Bft)
21.08.2018 00:29 17,4 °C 81 % 1016,6 hPa 0,0 mm 1,1 km/h (1 Bft) S-SW 192 ° 0 min 0,000 mm 0,0 UV-I 0 W/m² 14,1 °C 17,4 °C 3,2 km/h (1 Bft)
21.08.2018 00:30 17,4 °C 81 % 1016,6 hPa 0,0 mm 2,5 km/h (1 Bft) S-SW 192 ° 0 min 0,000 mm 0,0 UV-I 0 W/m² 14,1 °C 17,4 °C 3,2 km/h (1 Bft)
21.08.2018 00:31 17,3 °C 82 % 1016,7 hPa 0,0 mm 1,1 km/h (1 Bft) S-SW 192 ° 0 min 0,000 mm 0,0 UV-I 0 W/m² 14,2 °C 17,3 °C 3,2 km/h (1 Bft)
21.08.2018 00:32 17,2 °C 82 % 1016,7 hPa 0,0 mm 1,8 km/h (1 Bft) S-SW 192 ° 0 min 0,000 mm 0,0 UV-I 0 W/m² 14,1 °C 17,2 °C 3,2 km/h (1 Bft)
21.08.2018 00:33 17,0 °C 82 % 1016,7 hPa 0,0 mm 0,2 km/h (0 Bft) S-SW 192 ° 0 min 0,000 mm 0,0 UV-I 0 W/m² 13,9 °C 17,0 °C 1,6 km/h (1 Bft)
21.08.2018 00:34 16,9 °C 83 % 1016,7 hPa 0,0 mm 0,0 km/h (0 Bft) S-SW 192 ° 0 min 0,000 mm 0,0 UV-I 0 W/m² 14,0 °C 16,9 °C 0,0 km/h (0 Bft)
21.08.2018 00:35 16,9 °C 83 % 1016,7 hPa 0,0 mm 0,0 km/h (0 Bft) S-SW 192 ° 0 min 0,000 mm 0,0 UV-I 0 W/m² 14,0 °C 16,9 °C 0,0 km/h (0 Bft)
21.08.2018 00:36 16,8 °C 83 % 1016,7 hPa 0,0 mm 0,0 km/h (0 Bft) S-SW 192 ° 0 min 0,000 mm 0,0 UV-I 0 W/m² 13,9 °C 16,8 °C 0,0 km/h (0 Bft)
21.08.2018 00:37 16,8 °C 83 % 1016,7 hPa 0,0 mm 0,0 km/h (0 Bft) S-SW 192 ° 0 min 0,000 mm 0,0 UV-I 0 W/m² 13,9 °C 16,8 °C 0,0 km/h (0 Bft)
21.08.2018 00:38 16,8 °C 84 % 1016,8 hPa 0,0 mm 0,0 km/h (0 Bft) S-SW 192 ° 0 min 0,000 mm 0,0 UV-I 0 W/m² 14,1 °C 16,8 °C 0,0 km/h (0 Bft)
21.08.2018 00:39 16,7 °C 84 % 1016,7 hPa 0,0 mm 0,0 km/h (0 Bft) S-SW 192 ° 0 min 0,000 mm 0,0 UV-I 0 W/m² 14,0 °C 16,7 °C 0,0 km/h (0 Bft)
21.08.2018 00:40 16,7 °C 83 % 1016,7 hPa 0,0 mm 0,0 km/h (0 Bft) S-SW 192 ° 0 min 0,000 mm 0,0 UV-I 0 W/m² 13,8 °C 16,7 °C 0,0 km/h (0 Bft)
21.08.2018 00:41 16,7 °C 83 % 1016,7 hPa 0,0 mm 2,3 km/h (1 Bft) S-SW 192 ° 0 min 0,000 mm 0,0 UV-I 0 W/m² 13,8 °C 16,7 °C 3,2 km/h (1 Bft)
21.08.2018 00:42 16,8 °C 83 % 1016,7 hPa 0,0 mm 0,5 km/h (0 Bft) S-SW 192 ° 0 min 0,000 mm 0,0 UV-I 0 W/m² 13,9 °C 16,8 °C 1,6 km/h (1 Bft)
21.08.2018 00:43 16,8 °C 83 % 1016,7 hPa 0,0 mm 1,2 km/h (1 Bft) S-SW 192 ° 0 min 0,000 mm 0,0 UV-I 0 W/m² 13,9 °C 16,8 °C 1,6 km/h (1 Bft)
21.08.2018 00:44 16,8 °C 82 % 1016,7 hPa 0,0 mm 0,1 km/h (0 Bft) S-SW 192 ° 0 min 0,000 mm 0,0 UV-I 0 W/m² 13,7 °C 16,8 °C 1,6 km/h (1 Bft)
21.08.2018 00:45 16,7 °C 82 % 1016,7 hPa 0,0 mm 0,1 km/h (0 Bft) S-SW 192 ° 0 min 0,000 mm 0,0 UV-I 0 W/m² 13,6 °C 16,7 °C 1,6 km/h (1 Bft)
21.08.2018 00:46 16,6 °C 83 % 1016,7 hPa 0,0 mm 2,3 km/h (1 Bft) S-SW 192 ° 0 min 0,000 mm 0,0 UV-I 0 W/m² 13,7 °C 16,6 °C 3,2 km/h (1 Bft)
21.08.2018 00:47 16,6 °C 83 % 1016,7 hPa 0,0 mm 3,8 km/h (1 Bft) S-SW 192 ° 0 min 0,000 mm 0,0 UV-I 0 W/m² 13,7 °C 16,6 °C 4,8 km/h (1 Bft)
21.08.2018 00:48 16,7 °C 83 % 1016,7 hPa 0,0 mm 2,7 km/h (1 Bft) S-SW 192 ° 0 min 0,000 mm 0,0 UV-I 0 W/m² 13,8 °C 16,7 °C 6,4 km/h (2 Bft)
21.08.2018 00:49 16,8 °C 83 % 1016,7 hPa 0,0 mm 1,2 km/h (1 Bft) S-SW 192 ° 0 min 0,000 mm 0,0 UV-I 0 W/m² 13,9 °C 16,8 °C 1,6 km/h (1 Bft)
21.08.2018 00:50 16,8 °C 82 % 1016,7 hPa 0,0 mm 1,4 km/h (1 Bft) S-SW 192 ° 0 min 0,000 mm 0,0 UV-I 0 W/m² 13,7 °C 16,8 °C 3,2 km/h (1 Bft)
21.08.2018 00:51 16,8 °C 82 % 1016,7 hPa 0,0 mm 0,2 km/h (0 Bft) S-SW 192 ° 0 min 0,000 mm 0,0 UV-I 0 W/m² 13,7 °C 16,8 °C 1,6 km/h (1 Bft)
21.08.2018 00:52 16,8 °C 82 % 1016,7 hPa 0,0 mm 1,4 km/h (1 Bft) S-SW 192 ° 0 min 0,000 mm 0,0 UV-I 0 W/m² 13,7 °C 16,8 °C 4,8 km/h (1 Bft)
21.08.2018 00:53 16,8 °C 82 % 1016,7 hPa 0,0 mm 3,2 km/h (1 Bft) S-SW 192 ° 0 min 0,000 mm 0,0 UV-I 0 W/m² 13,7 °C 16,8 °C 4,8 km/h (1 Bft)
21.08.2018 00:54 16,8 °C 82 % 1016,7 hPa 0,0 mm 3,1 km/h (1 Bft) S-SW 192 ° 0 min 0,000 mm 0,0 UV-I 0 W/m² 13,7 °C 16,8 °C 6,4 km/h (2 Bft)
21.08.2018 00:55 16,9 °C 82 % 1016,7 hPa 0,0 mm 1,2 km/h (1 Bft) S-SW 192 ° 0 min 0,000 mm 0,0 UV-I 0 W/m² 13,8 °C 16,9 °C 3,2 km/h (1 Bft)
21.08.2018 00:56 16,9 °C 82 % 1016,7 hPa 0,0 mm 0,0 km/h (0 Bft) S-SW 192 ° 0 min 0,000 mm 0,0 UV-I 0 W/m² 13,8 °C 16,9 °C 0,0 km/h (0 Bft)
21.08.2018 00:57 16,8 °C 82 % 1016,7 hPa 0,0 mm 0,0 km/h (0 Bft) S-SW 192 ° 0 min 0,000 mm 0,0 UV-I 0 W/m² 13,7 °C 16,8 °C 0,0 km/h (0 Bft)
21.08.2018 00:58 16,7 °C 82 % 1016,7 hPa 0,0 mm 0,2 km/h (0 Bft) S-SW 192 ° 0 min 0,000 mm 0,0 UV-I 0 W/m² 13,6 °C 16,7 °C 1,6 km/h (1 Bft)
21.08.2018 00:59 16,7 °C 83 % 1016,7 hPa 0,0 mm 3,5 km/h (1 Bft) S-SW 192 ° 0 min 0,000 mm 0,0 UV-I 0 W/m² 13,8 °C 16,7 °C 4,8 km/h (1 Bft)
21.08.2018 01:00 16,6 °C 83 % 1016,7 hPa 0,0 mm 3,4 km/h (1 Bft) S-SW 192 ° 0 min 0,025 mm 0,0 UV-I 0 W/m² 13,7 °C 16,6 °C 4,8 km/h (1 Bft)
21.08.2018 01:01 16,6 °C 83 % 1016,7 hPa 0,0 mm 3,8 km/h (1 Bft) S-SW 192 ° 0 min 0,000 mm 0,0 UV-I 0 W/m² 13,7 °C 16,6 °C 4,8 km/h (1 Bft)
21.08.2018 01:02 16,6 °C 83 % 1016,7 hPa 0,0 mm 4,0 km/h (1 Bft) S-SW 192 ° 0 min 0,000 mm 0,0 UV-I 0 W/m² 13,7 °C 16,6 °C 6,4 km/h (2 Bft)
21.08.2018 01:03 16,6 °C 83 % 1016,7 hPa 0,0 mm 2,4 km/h (1 Bft) S-SW 192 ° 0 min 0,000 mm 0,0 UV-I 0 W/m² 13,7 °C 16,6 °C 3,2 km/h (1 Bft)
21.08.2018 01:04 16,6 °C 83 % 1016,7 hPa 0,0 mm 2,1 km/h (1 Bft) S-SW 192 ° 0 min 0,000 mm 0,0 UV-I 0 W/m² 13,7 °C 16,6 °C 4,8 km/h (1 Bft)
21.08.2018 01:05 16,6 °C 83 % 1016,7 hPa 0,0 mm 2,7 km/h (1 Bft) S-SW 192 ° 0 min 0,000 mm 0,0 UV-I 0 W/m² 13,7 °C 16,6 °C 4,8 km/h (1 Bft)
21.08.2018 01:06 16,5 °C 83 % 1016,7 hPa 0,0 mm 4,1 km/h (1 Bft) S-SW 192 ° 0 min 0,000 mm 0,0 UV-I 0 W/m² 13,6 °C 16,5 °C 4,8 km/h (1 Bft)
21.08.2018 01:07 16,4 °C 83 % 1016,7 hPa 0,0 mm 3,5 km/h (1 Bft) S-SW 192 ° 0 min 0,000 mm 0,0 UV-I 0 W/m² 13,5 °C 16,4 °C 6,4 km/h (2 Bft)
21.08.2018 01:08 16,4 °C 83 % 1016,7 hPa 0,0 mm 3,5 km/h (1 Bft) S-SW 192 ° 0 min 0,000 mm 0,0 UV-I 0 W/m² 13,5 °C 16,4 °C 4,8 km/h (1 Bft)
21.08.2018 01:09 16,4 °C 82 % 1016,7 hPa 0,0 mm 4,2 km/h (1 Bft) S-SW 192 ° 0 min 0,000 mm 0,0 UV-I 0 W/m² 13,3 °C 16,4 °C 6,4 km/h (2 Bft)
21.08.2018 01:10 16,4 °C 83 % 1016,7 hPa 0,0 mm 2,6 km/h (1 Bft) S-SW 192 ° 0 min 0,000 mm 0,0 UV-I 0 W/m² 13,5 °C 16,4 °C 4,8 km/h (1 Bft)
21.08.2018 01:11 16,3 °C 83 % 1016,7 hPa 0,0 mm 2,7 km/h (1 Bft) S-SW 192 ° 0 min 0,000 mm 0,0 UV-I 0 W/m² 13,4 °C 16,3 °C 4,8 km/h (1 Bft)
21.08.2018 01:12 16,3 °C 83 % 1016,7 hPa 0,0 mm 1,7 km/h (1 Bft) S-SW 192 ° 0 min 0,000 mm 0,0 UV-I 0 W/m² 13,4 °C 16,3 °C 3,2 km/h (1 Bft)
21.08.2018 01:13 16,3 °C 83 % 1016,7 hPa 0,0 mm 1,5 km/h (1 Bft) S-SW 192 ° 0 min 0,000 mm 0,0 UV-I 0 W/m² 13,4 °C 16,3 °C 3,2 km/h (1 Bft)
21.08.2018 01:14 16,3 °C 83 % 1016,8 hPa 0,0 mm 1,6 km/h (1 Bft) S-SW 192 ° 0 min 0,000 mm 0,0 UV-I 0 W/m² 13,4 °C 16,3 °C 3,2 km/h (1 Bft)
21.08.2018 01:15 16,3 °C 84 % 1016,7 hPa 0,0 mm 1,0 km/h (0 Bft) S-SW 192 ° 0 min 0,000 mm 0,0 UV-I 0 W/m² 13,6 °C 16,3 °C 3,2 km/h (1 Bft)
21.08.2018 01:16 16,3 °C 83 % 1016,8 hPa 0,0 mm 0,9 km/h (0 Bft) S-SW 192 ° 0 min 0,000 mm 0,0 UV-I 0 W/m² 13,4 °C 16,3 °C 1,6 km/h (1 Bft)
21.08.2018 01:17 16,3 °C 83 % 1016,8 hPa 0,0 mm 1,8 km/h (1 Bft) S-SW 192 ° 0 min 0,000 mm 0,0 UV-I 0 W/m² 13,4 °C 16,3 °C 3,2 km/h (1 Bft)
21.08.2018 01:18 16,4 °C 83 % 1016,8 hPa 0,0 mm 0,6 km/h (0 Bft) S-SW 192 ° 0 min 0,000 mm 0,0 UV-I 0 W/m² 13,5 °C 16,4 °C 1,6 km/h (1 Bft)
21.08.2018 01:19 16,4 °C 83 % 1016,8 hPa 0,0 mm 1,4 km/h (1 Bft) S-SW 192 ° 0 min 0,000 mm 0,0 UV-I 0 W/m² 13,5 °C 16,4 °C 3,2 km/h (1 Bft)
21.08.2018 01:20 16,4 °C 82 % 1016,8 hPa 0,0 mm 1,3 km/h (1 Bft) S-SW 192 ° 0 min 0,000 mm 0,0 UV-I 0 W/m² 13,3 °C 16,4 °C 3,2 km/h (1 Bft)
21.08.2018 01:21 16,5 °C 82 % 1016,8 hPa 0,0 mm 0,3 km/h (0 Bft) S-SW 192 ° 0 min 0,000 mm 0,0 UV-I 0 W/m² 13,4 °C 16,5 °C 1,6 km/h (1 Bft)
21.08.2018 01:22 16,5 °C 82 % 1016,7 hPa 0,0 mm 0,0 km/h (0 Bft) S-SW 192 ° 0 min 0,000 mm 0,0 UV-I 0 W/m² 13,4 °C 16,5 °C 0,0 km/h (0 Bft)
21.08.2018 01:23 16,6 °C 82 % 1016,8 hPa 0,0 mm 0,4 km/h (0 Bft) S-SW 192 ° 0 min 0,000 mm 0,0 UV-I 0 W/m² 13,5 °C 16,6 °C 3,2 km/h (1 Bft)
21.08.2018 01:24 16,6 °C 82 % 1016,8 hPa 0,0 mm 1,9 km/h (1 Bft) S-SW 192 ° 0 min 0,000 mm 0,0 UV-I 0 W/m² 13,5 °C 16,6 °C 4,8 km/h (1 Bft)
21.08.2018 01:25 16,6 °C 82 % 1016,8 hPa 0,0 mm 3,3 km/h (1 Bft) S-SW 192 ° 0 min 0,000 mm 0,0 UV-I 0 W/m² 13,5 °C 16,6 °C 4,8 km/h (1 Bft)
21.08.2018 01:26 16,6 °C 82 % 1016,8 hPa 0,0 mm 3,4 km/h (1 Bft) S-SW 192 ° 0 min 0,000 mm 0,0 UV-I 0 W/m² 13,5 °C 16,6 °C 4,8 km/h (1 Bft)
21.08.2018 01:27 16,6 °C 82 % 1016,7 hPa 0,0 mm 3,1 km/h (1 Bft) S-SW 192 ° 0 min 0,000 mm 0,0 UV-I 0 W/m² 13,5 °C 16,6 °C 4,8 km/h (1 Bft)
21.08.2018 01:28 16,6 °C 82 % 1016,9 hPa 0,0 mm 1,8 km/h (1 Bft) S-SW 192 ° 0 min 0,000 mm 0,0 UV-I 0 W/m² 13,5 °C 16,6 °C 3,2 km/h (1 Bft)
21.08.2018 01:29 16,6 °C 82 % 1016,9 hPa 0,0 mm 2,0 km/h (1 Bft) S-SW 192 ° 0 min 0,000 mm 0,0 UV-I 0 W/m² 13,5 °C 16,6 °C 3,2 km/h (1 Bft)
21.08.2018 01:30 16,5 °C 82 % 1016,9 hPa 0,0 mm 1,7 km/h (1 Bft) S-SW 192 ° 0 min 0,000 mm 0,0 UV-I 0 W/m² 13,4 °C 16,5 °C 3,2 km/h (1 Bft)
21.08.2018 01:31 16,4 °C 82 % 1016,9 hPa 0,0 mm 0,0 km/h (0 Bft) S-SW 192 ° 0 min 0,000 mm 0,0 UV-I 0 W/m² 13,3 °C 16,4 °C 0,0 km/h (0 Bft)
21.08.2018 01:32 16,3 °C 82 % 1016,9 hPa 0,0 mm 0,0 km/h (0 Bft) S-SW 192 ° 0 min 0,000 mm 0,0 UV-I 0 W/m² 13,2 °C 16,3 °C 0,0 km/h (0 Bft)
21.08.2018 01:33 16,2 °C 83 % 1016,9 hPa 0,0 mm 0,0 km/h (0 Bft) S-SW 192 ° 0 min 0,000 mm 0,0 UV-I 0 W/m² 13,3 °C 16,2 °C 0,0 km/h (0 Bft)
21.08.2018 01:34 16,1 °C 83 % 1016,9 hPa 0,0 mm 1,8 km/h (1 Bft) S-SW 192 ° 0 min 0,000 mm 0,0 UV-I 0 W/m² 13,2 °C 16,1 °C 3,2 km/h (1 Bft)
21.08.2018 01:35 16,2 °C 83 % 1016,8 hPa 0,0 mm 1,8 km/h (1 Bft) S-SW 192 ° 0 min 0,000 mm 0,0 UV-I 0 W/m² 13,3 °C 16,2 °C 4,8 km/h (1 Bft)
21.08.2018 01:36 16,2 °C 83 % 1016,9 hPa 0,0 mm 3,2 km/h (1 Bft) S-SW 192 ° 0 min 0,000 mm 0,0 UV-I 0 W/m² 13,3 °C 16,2 °C 4,8 km/h (1 Bft)
21.08.2018 01:37 16,2 °C 83 % 1016,9 hPa 0,0 mm 4,3 km/h (1 Bft) S-SW 192 ° 0 min 0,000 mm 0,0 UV-I 0 W/m² 13,3 °C 16,2 °C 4,8 km/h (1 Bft)
21.08.2018 01:38 16,3 °C 83 % 1016,9 hPa 0,0 mm 4,4 km/h (1 Bft) S-SW 192 ° 0 min 0,000 mm 0,0 UV-I 0 W/m² 13,4 °C 16,3 °C 6,4 km/h (2 Bft)
21.08.2018 01:39 16,3 °C 83 % 1016,8 hPa 0,0 mm 4,3 km/h (1 Bft) S-SW 192 ° 0 min 0,000 mm 0,0 UV-I 0 W/m² 13,4 °C 16,3 °C 4,8 km/h (1 Bft)
21.08.2018 01:40 16,3 °C 83 % 1016,8 hPa 0,0 mm 3,8 km/h (1 Bft) S-SW 192 ° 0 min 0,000 mm 0,0 UV-I 0 W/m² 13,4 °C 16,3 °C 4,8 km/h (1 Bft)
21.08.2018 01:41 16,3 °C 83 % 1016,8 hPa 0,0 mm 3,6 km/h (1 Bft) S-SW 192 ° 0 min 0,000 mm 0,0 UV-I 0 W/m² 13,4 °C 16,3 °C 4,8 km/h (1 Bft)
21.08.2018 01:42 16,4 °C 83 % 1016,9 hPa 0,0 mm 2,2 km/h (1 Bft) S-SW 192 ° 0 min 0,000 mm 0,0 UV-I 0 W/m² 13,5 °C 16,4 °C 4,8 km/h (1 Bft)
21.08.2018 01:43 16,3 °C 83 % 1016,9 hPa 0,0 mm 0,2 km/h (0 Bft) S-SW 192 ° 0 min 0,000 mm 0,0 UV-I 0 W/m² 13,4 °C 16,3 °C 1,6 km/h (1 Bft)
21.08.2018 01:44 16,3 °C 83 % 1016,9 hPa 0,0 mm 0,4 km/h (0 Bft) S-SW 192 ° 0 min 0,000 mm 0,0 UV-I 0 W/m² 13,4 °C 16,3 °C 1,6 km/h (1 Bft)
21.08.2018 01:45 16,2 °C 83 % 1016,9 hPa 0,0 mm 1,6 km/h (1 Bft) S-SW 192 ° 0 min 0,000 mm 0,0 UV-I 0 W/m² 13,3 °C 16,2 °C 3,2 km/h (1 Bft)
21.08.2018 01:46 16,1 °C 83 % 1016,9 hPa 0,0 mm 0,5 km/h (0 Bft) S-SW 192 ° 0 min 0,000 mm 0,0 UV-I 0 W/m² 13,2 °C 16,1 °C 1,6 km/h (1 Bft)
21.08.2018 01:47 16,0 °C 84 % 1016,9 hPa 0,0 mm 0,0 km/h (0 Bft) S-SW 192 ° 0 min 0,000 mm 0,0 UV-I 0 W/m² 13,3 °C 16,0 °C 0,0 km/h (0 Bft)
21.08.2018 01:48 15,9 °C 84 % 1016,8 hPa 0,0 mm 0,0 km/h (0 Bft) S-SW 192 ° 0 min 0,000 mm 0,0 UV-I 0 W/m² 13,2 °C 15,9 °C 0,0 km/h (0 Bft)
21.08.2018 01:49 15,8 °C 84 % 1016,8 hPa 0,0 mm 1,3 km/h (1 Bft) S-SW 192 ° 0 min 0,000 mm 0,0 UV-I 0 W/m² 13,1 °C 15,8 °C 3,2 km/h (1 Bft)
21.08.2018 01:50 15,8 °C 84 % 1016,9 hPa 0,0 mm 2,4 km/h (1 Bft) S-SW 192 ° 0 min 0,000 mm 0,0 UV-I 0 W/m² 13,1 °C 15,8 °C 4,8 km/h (1 Bft)
21.08.2018 01:51 15,8 °C 85 % 1016,8 hPa 0,0 mm 1,6 km/h (1 Bft) S-SW 192 ° 0 min 0,000 mm 0,0 UV-I 0 W/m² 13,3 °C 15,8 °C 3,2 km/h (1 Bft)
21.08.2018 01:52 15,8 °C 85 % 1016,8 hPa 0,0 mm 1,5 km/h (1 Bft) S-SW 192 ° 0 min 0,000 mm 0,0 UV-I 0 W/m² 13,3 °C 15,8 °C 4,8 km/h (1 Bft)
21.08.2018 01:53 15,8 °C 85 % 1016,8 hPa 0,0 mm 4,4 km/h (1 Bft) S-SW 192 ° 0 min 0,000 mm 0,0 UV-I 0 W/m² 13,3 °C 15,8 °C 4,8 km/h (1 Bft)
21.08.2018 01:54 15,8 °C 85 % 1016,8 hPa 0,0 mm 3,9 km/h (1 Bft) S-SW 192 ° 0 min 0,000 mm 0,0 UV-I 0 W/m² 13,3 °C 15,8 °C 4,8 km/h (1 Bft)
21.08.2018 01:55 15,8 °C 85 % 1016,8 hPa 0,0 mm 2,8 km/h (1 Bft) S-SW 192 ° 0 min 0,000 mm 0,0 UV-I 0 W/m² 13,3 °C 15,8 °C 4,8 km/h (1 Bft)
21.08.2018 01:56 15,8 °C 85 % 1016,8 hPa 0,0 mm 3,7 km/h (1 Bft) S-SW 192 ° 0 min 0,000 mm 0,0 UV-I 0 W/m² 13,3 °C 15,8 °C 6,4 km/h (2 Bft)
21.08.2018 01:57 15,8 °C 85 % 1016,8 hPa 0,0 mm 3,3 km/h (1 Bft) S-SW 192 ° 0 min 0,000 mm 0,0 UV-I 0 W/m² 13,3 °C 15,8 °C 4,8 km/h (1 Bft)
21.08.2018 01:58 15,8 °C 85 % 1016,8 hPa 0,0 mm 1,6 km/h (1 Bft) S-SW 192 ° 0 min 0,000 mm 0,0 UV-I 0 W/m² 13,3 °C 15,8 °C 3,2 km/h (1 Bft)
21.08.2018 01:59 15,8 °C 85 % 1016,8 hPa 0,0 mm 2,1 km/h (1 Bft) S-SW 192 ° 0 min 0,000 mm 0,0 UV-I 0 W/m² 13,3 °C 15,8 °C 4,8 km/h (1 Bft)
21.08.2018 02:00 15,8 °C 85 % 1016,8 hPa 0,0 mm 3,2 km/h (1 Bft) S-SW 192 ° 0 min 0,026 mm 0,0 UV-I 0 W/m² 13,3 °C 15,8 °C 4,8 km/h (1 Bft)
21.08.2018 02:01 15,7 °C 85 % 1016,8 hPa 0,0 mm 1,5 km/h (1 Bft) S-SW 192 ° 0 min 0,000 mm 0,0 UV-I 0 W/m² 13,2 °C 15,7 °C 4,8 km/h (1 Bft)
21.08.2018 02:02 15,7 °C 85 % 1016,8 hPa 0,0 mm 0,7 km/h (0 Bft) S-SW 192 ° 0 min 0,000 mm 0,0 UV-I 0 W/m² 13,2 °C 15,7 °C 3,2 km/h (1 Bft)
21.08.2018 02:03 15,6 °C 85 % 1016,8 hPa 0,0 mm 0,6 km/h (0 Bft) S-SW 192 ° 0 min 0,000 mm 0,0 UV-I 0 W/m² 13,1 °C 15,6 °C 1,6 km/h (1 Bft)
21.08.2018 02:04 15,6 °C 85 % 1016,8 hPa 0,0 mm 0,7 km/h (0 Bft) S-SW 192 ° 0 min 0,000 mm 0,0 UV-I 0 W/m² 13,1 °C 15,6 °C 3,2 km/h (1 Bft)
21.08.2018 02:05 15,6 °C 85 % 1016,8 hPa 0,0 mm 0,2 km/h (0 Bft) S-SW 192 ° 0 min 0,000 mm 0,0 UV-I 0 W/m² 13,1 °C 15,6 °C 3,2 km/h (1 Bft)
21.08.2018 02:06 15,6 °C 85 % 1016,8 hPa 0,0 mm 0,6 km/h (0 Bft) S-SW 192 ° 0 min 0,000 mm 0,0 UV-I 0 W/m² 13,1 °C 15,6 °C 1,6 km/h (1 Bft)
21.08.2018 02:07 15,6 °C 85 % 1016,8 hPa 0,0 mm 0,0 km/h (0 Bft) S-SW 192 ° 0 min 0,000 mm 0,0 UV-I 0 W/m² 13,1 °C 15,6 °C 0,0 km/h (0 Bft)
21.08.2018 02:08 15,6 °C 85 % 1016,8 hPa 0,0 mm 0,0 km/h (0 Bft) S-SW 192 ° 0 min 0,000 mm 0,0 UV-I 0 W/m² 13,1 °C 15,6 °C 0,0 km/h (0 Bft)
21.08.2018 02:09 15,6 °C 85 % 1016,8 hPa 0,0 mm 0,0 km/h (0 Bft) S-SW 192 ° 0 min 0,000 mm 0,0 UV-I 0 W/m² 13,1 °C 15,6 °C 0,0 km/h (0 Bft)
21.08.2018 02:10 15,6 °C 85 % 1016,8 hPa 0,0 mm 0,0 km/h (0 Bft) S-SW 192 ° 0 min 0,000 mm 0,0 UV-I 0 W/m² 13,1 °C 15,6 °C 0,0 km/h (0 Bft)
21.08.2018 02:11 15,5 °C 85 % 1016,8 hPa 0,0 mm 0,3 km/h (0 Bft) S-SW 192 ° 0 min 0,000 mm 0,0 UV-I 0 W/m² 13,0 °C 15,5 °C 1,6 km/h (1 Bft)
21.08.2018 02:12 15,3 °C 85 % 1016,8 hPa 0,0 mm 0,3 km/h (0 Bft) S-SW 192 ° 0 min 0,000 mm 0,0 UV-I 0 W/m² 12,8 °C 15,3 °C 1,6 km/h (1 Bft)
21.08.2018 02:13 15,2 °C 85 % 1016,8 hPa 0,0 mm 0,4 km/h (0 Bft) S-SW 192 ° 0 min 0,000 mm 0,0 UV-I 0 W/m² 12,7 °C 15,2 °C 1,6 km/h (1 Bft)
21.08.2018 02:14 15,1 °C 86 % 1016,8 hPa 0,0 mm 0,0 km/h (0 Bft) S-SW 192 ° 0 min 0,000 mm 0,0 UV-I 0 W/m² 12,8 °C 15,1 °C 0,0 km/h (0 Bft)
21.08.2018 02:15 15,1 °C 87 % 1016,9 hPa 0,0 mm 0,0 km/h (0 Bft) S-SW 192 ° 0 min 0,000 mm 0,0 UV-I 0 W/m² 13,0 °C 15,1 °C 0,0 km/h (0 Bft)
21.08.2018 02:16 15,1 °C 87 % 1016,8 hPa 0,0 mm 0,0 km/h (0 Bft) S-SW 192 ° 0 min 0,000 mm 0,0 UV-I 0 W/m² 13,0 °C 15,1 °C 0,0 km/h (0 Bft)
21.08.2018 02:17 15,1 °C 87 % 1016,9 hPa 0,0 mm 0,0 km/h (0 Bft) S-SW 192 ° 0 min 0,000 mm 0,0 UV-I 0 W/m² 13,0 °C 15,1 °C 0,0 km/h (0 Bft)
21.08.2018 02:18 15,2 °C 87 % 1016,9 hPa 0,0 mm 0,0 km/h (0 Bft) S-SW 192 ° 0 min 0,000 mm 0,0 UV-I 0 W/m² 13,0 °C 15,2 °C 0,0 km/h (0 Bft)
21.08.2018 02:19 15,2 °C 87 % 1016,8 hPa 0,0 mm 0,0 km/h (0 Bft) S-SW 192 ° 0 min 0,000 mm 0,0 UV-I 0 W/m² 13,0 °C 15,2 °C 0,0 km/h (0 Bft)
21.08.2018 02:20 15,2 °C 87 % 1016,8 hPa 0,0 mm 0,1 km/h (0 Bft) S-SW 192 ° 0 min 0,000 mm 0,0 UV-I 0 W/m² 13,0 °C 15,2 °C 1,6 km/h (1 Bft)
21.08.2018 02:21 15,3 °C 87 % 1016,8 hPa 0,0 mm 1,0 km/h (0 Bft) S-SW 192 ° 0 min 0,000 mm 0,0 UV-I 0 W/m² 13,1 °C 15,3 °C 3,2 km/h (1 Bft)
21.08.2018 02:22 15,2 °C 87 % 1016,8 hPa 0,0 mm 1,5 km/h (1 Bft) S-SW 192 ° 0 min 0,000 mm 0,0 UV-I 0 W/m² 13,0 °C 15,2 °C 3,2 km/h (1 Bft)
21.08.2018 02:23 15,3 °C 86 % 1016,8 hPa 0,0 mm 0,5 km/h (0 Bft) S-SW 192 ° 0 min 0,000 mm 0,0 UV-I 0 W/m² 13,0 °C 15,3 °C 1,6 km/h (1 Bft)
21.08.2018 02:24 15,3 °C 86 % 1016,8 hPa 0,0 mm 0,8 km/h (0 Bft) S-SW 192 ° 0 min 0,000 mm 0,0 UV-I 0 W/m² 13,0 °C 15,3 °C 3,2 km/h (1 Bft)
21.08.2018 02:25 15,3 °C 86 % 1016,8 hPa 0,0 mm 3,2 km/h (1 Bft) S-SW 192 ° 0 min 0,000 mm 0,0 UV-I 0 W/m² 13,0 °C 15,3 °C 4,8 km/h (1 Bft)
21.08.2018 02:26 15,3 °C 86 % 1016,8 hPa 0,0 mm 3,2 km/h (1 Bft) S-SW 192 ° 0 min 0,000 mm 0,0 UV-I 0 W/m² 13,0 °C 15,3 °C 4,8 km/h (1 Bft)
21.08.2018 02:27 15,2 °C 86 % 1016,8 hPa 0,0 mm 3,2 km/h (1 Bft) S-SW 192 ° 0 min 0,000 mm 0,0 UV-I 0 W/m² 12,9 °C 15,2 °C 4,8 km/h (1 Bft)
21.08.2018 02:28 15,2 °C 86 % 1016,8 hPa 0,0 mm 0,6 km/h (0 Bft) S-SW 192 ° 0 min 0,000 mm 0,0 UV-I 0 W/m² 12,9 °C 15,2 °C 3,2 km/h (1 Bft)
21.08.2018 02:29 15,2 °C 87 % 1016,8 hPa 0,0 mm 0,0 km/h (0 Bft) S-SW 192 ° 0 min 0,000 mm 0,0 UV-I 0 W/m² 13,0 °C 15,2 °C 0,0 km/h (0 Bft)
21.08.2018 02:30 15,2 °C 87 % 1016,8 hPa 0,0 mm 0,0 km/h (0 Bft) S-SW 192 ° 0 min 0,000 mm 0,0 UV-I 0 W/m² 13,0 °C 15,2 °C 0,0 km/h (0 Bft)
21.08.2018 02:31 15,2 °C 87 % 1016,7 hPa 0,0 mm 0,0 km/h (0 Bft) S-SW 192 ° 0 min 0,000 mm 0,0 UV-I 0 W/m² 13,0 °C 15,2 °C 0,0 km/h (0 Bft)
21.08.2018 02:32 15,2 °C 87 % 1016,7 hPa 0,0 mm 0,0 km/h (0 Bft) S-SW 192 ° 0 min 0,000 mm 0,0 UV-I 0 W/m² 13,0 °C 15,2 °C 0,0 km/h (0 Bft)
21.08.2018 02:33 15,2 °C 87 % 1016,8 hPa 0,0 mm 0,0 km/h (0 Bft) S-SW 192 ° 0 min 0,000 mm 0,0 UV-I 0 W/m² 13,0 °C 15,2 °C 0,0 km/h (0 Bft)
21.08.2018 02:34 15,2 °C 86 % 1016,8 hPa 0,0 mm 2,2 km/h (1 Bft) S-SW 192 ° 0 min 0,000 mm 0,0 UV-I 0 W/m² 12,9 °C 15,2 °C 3,2 km/h (1 Bft)
21.08.2018 02:35 15,2 °C 87 % 1016,7 hPa 0,0 mm 1,8 km/h (1 Bft) S-SW 192 ° 0 min 0,000 mm 0,0 UV-I 0 W/m² 13,0 °C 15,2 °C 3,2 km/h (1 Bft)
21.08.2018 02:36 15,2 °C 87 % 1016,7 hPa 0,0 mm 0,3 km/h (0 Bft) S-SW 192 ° 0 min 0,000 mm 0,0 UV-I 0 W/m² 13,0 °C 15,2 °C 1,6 km/h (1 Bft)
21.08.2018 02:37 15,2 °C 87 % 1016,7 hPa 0,0 mm 0,0 km/h (0 Bft) S-SW 192 ° 0 min 0,000 mm 0,0 UV-I 0 W/m² 13,0 °C 15,2 °C 0,0 km/h (0 Bft)
21.08.2018 02:38 15,2 °C 87 % 1016,7 hPa 0,0 mm 0,0 km/h (0 Bft) S-SW 192 ° 0 min 0,000 mm 0,0 UV-I 0 W/m² 13,0 °C 15,2 °C 0,0 km/h (0 Bft)
21.08.2018 02:39 15,2 °C 86 % 1016,7 hPa 0,0 mm 0,0 km/h (0 Bft) S-SW 192 ° 0 min 0,000 mm 0,0 UV-I 0 W/m² 12,9 °C 15,2 °C 0,0 km/h (0 Bft)
21.08.2018 02:40 15,1 °C 86 % 1016,7 hPa 0,0 mm 0,0 km/h (0 Bft) S-SW 192 ° 0 min 0,000 mm 0,0 UV-I 0 W/m² 12,8 °C 15,1 °C 0,0 km/h (0 Bft)
21.08.2018 02:41 15,1 °C 87 % 1016,7 hPa 0,0 mm 0,0 km/h (0 Bft) S-SW 192 ° 0 min 0,000 mm 0,0 UV-I 0 W/m² 13,0 °C 15,1 °C 0,0 km/h (0 Bft)
21.08.2018 02:42 15,1 °C 87 % 1016,8 hPa 0,0 mm 0,0 km/h (0 Bft) S-SW 192 ° 0 min 0,000 mm 0,0 UV-I 0 W/m² 13,0 °C 15,1 °C 0,0 km/h (0 Bft)
21.08.2018 02:43 15,0 °C 87 % 1016,7 hPa 0,0 mm 0,0 km/h (0 Bft) S-SW 192 ° 0 min 0,000 mm 0,0 UV-I 0 W/m² 12,9 °C 15,0 °C 0,0 km/h (0 Bft)
21.08.2018 02:44 15,1 °C 87 % 1016,8 hPa 0,0 mm 0,0 km/h (0 Bft) S-SW 192 ° 0 min 0,000 mm 0,0 UV-I 0 W/m² 13,0 °C 15,1 °C 0,0 km/h (0 Bft)
21.08.2018 02:45 15,0 °C 87 % 1016,8 hPa 0,0 mm 0,0 km/h (0 Bft) S-SW 192 ° 0 min 0,000 mm 0,0 UV-I 0 W/m² 12,9 °C 15,0 °C 0,0 km/h (0 Bft)
21.08.2018 02:46 15,0 °C 87 % 1016,8 hPa 0,0 mm 0,0 km/h (0 Bft) S-SW 192 ° 0 min 0,000 mm 0,0 UV-I 0 W/m² 12,9 °C 15,0 °C 0,0 km/h (0 Bft)
21.08.2018 02:47 15,0 °C 87 % 1016,7 hPa 0,0 mm 0,0 km/h (0 Bft) S-SW 192 ° 0 min 0,000 mm 0,0 UV-I 0 W/m² 12,9 °C 15,0 °C 0,0 km/h (0 Bft)
21.08.2018 02:48 14,9 °C 87 % 1016,7 hPa 0,0 mm 0,0 km/h (0 Bft) S-SW 192 ° 0 min 0,000 mm 0,0 UV-I 0 W/m² 12,8 °C 14,9 °C 0,0 km/h (0 Bft)
21.08.2018 02:49 14,9 °C 87 % 1016,8 hPa 0,0 mm 0,0 km/h (0 Bft) S-SW 192 ° 0 min 0,000 mm 0,0 UV-I 0 W/m² 12,8 °C 14,9 °C 0,0 km/h (0 Bft)
21.08.2018 02:50 14,9 °C 87 % 1016,7 hPa 0,0 mm 0,0 km/h (0 Bft) S-SW 192 ° 0 min 0,000 mm 0,0 UV-I 0 W/m² 12,8 °C 14,9 °C 0,0 km/h (0 Bft)
21.08.2018 02:51 14,8 °C 87 % 1016,7 hPa 0,0 mm 0,0 km/h (0 Bft) S-SW 192 ° 0 min 0,000 mm 0,0 UV-I 0 W/m² 12,7 °C 14,8 °C 0,0 km/h (0 Bft)
21.08.2018 02:52 14,8 °C 87 % 1016,8 hPa 0,0 mm 0,0 km/h (0 Bft) S-SW 192 ° 0 min 0,000 mm 0,0 UV-I 0 W/m² 12,7 °C 14,8 °C 0,0 km/h (0 Bft)
21.08.2018 02:53 14,9 °C 88 % 1016,8 hPa 0,0 mm 0,0 km/h (0 Bft) S-SW 192 ° 0 min 0,000 mm 0,0 UV-I 0 W/m² 12,9 °C 14,9 °C 0,0 km/h (0 Bft)
21.08.2018 02:54 14,9 °C 88 % 1016,8 hPa 0,0 mm 0,0 km/h (0 Bft) S-SW 192 ° 0 min 0,000 mm 0,0 UV-I 0 W/m² 12,9 °C 14,9 °C 0,0 km/h (0 Bft)
21.08.2018 02:55 14,9 °C 87 % 1016,8 hPa 0,0 mm 0,0 km/h (0 Bft) S-SW 192 ° 0 min 0,000 mm 0,0 UV-I 0 W/m² 12,8 °C 14,9 °C 0,0 km/h (0 Bft)
21.08.2018 02:56 14,9 °C 88 % 1016,8 hPa 0,0 mm 0,0 km/h (0 Bft) S-SW 192 ° 0 min 0,000 mm 0,0 UV-I 0 W/m² 12,9 °C 14,9 °C 0,0 km/h (0 Bft)
21.08.2018 02:57 14,8 °C 87 % 1016,8 hPa 0,0 mm 0,0 km/h (0 Bft) S-SW 192 ° 0 min 0,000 mm 0,0 UV-I 0 W/m² 12,7 °C 14,8 °C 0,0 km/h (0 Bft)
21.08.2018 02:58 14,7 °C 87 % 1016,8 hPa 0,0 mm 0,0 km/h (0 Bft) S-SW 192 ° 0 min 0,000 mm 0,0 UV-I 0 W/m² 12,6 °C 14,7 °C 0,0 km/h (0 Bft)
21.08.2018 02:59 14,6 °C 87 % 1016,8 hPa 0,0 mm 0,0 km/h (0 Bft) S-SW 192 ° 0 min 0,000 mm 0,0 UV-I 0 W/m² 12,5 °C 14,6 °C 0,0 km/h (0 Bft)
21.08.2018 03:00 14,6 °C 87 % 1016,8 hPa 0,0 mm 0,0 km/h (0 Bft) S-SW 192 ° 0 min 0,000 mm 0,0 UV-I 0 W/m² 12,5 °C 14,6 °C 0,0 km/h (0 Bft)
21.08.2018 03:01 14,6 °C 88 % 1016,8 hPa 0,0 mm 0,0 km/h (0 Bft) S-SW 192 ° 0 min 0,000 mm 0,0 UV-I 0 W/m² 12,6 °C 14,6 °C 0,0 km/h (0 Bft)
21.08.2018 03:02 14,6 °C 88 % 1016,8 hPa 0,0 mm 0,0 km/h (0 Bft) S-SW 192 ° 0 min 0,000 mm 0,0 UV-I 0 W/m² 12,6 °C 14,6 °C 0,0 km/h (0 Bft)
21.08.2018 03:03 14,5 °C 88 % 1016,8 hPa 0,0 mm 0,0 km/h (0 Bft) S-SW 192 ° 0 min 0,000 mm 0,0 UV-I 0 W/m² 12,5 °C 14,5 °C 0,0 km/h (0 Bft)
21.08.2018 03:04 14,4 °C 88 % 1016,8 hPa 0,0 mm 0,0 km/h (0 Bft) S-SW 192 ° 0 min 0,000 mm 0,0 UV-I 0 W/m² 12,4 °C 14,4 °C 0,0 km/h (0 Bft)
21.08.2018 03:05 14,4 °C 88 % 1016,8 hPa 0,0 mm 0,0 km/h (0 Bft) S-SW 192 ° 0 min 0,000 mm 0,0 UV-I 0 W/m² 12,4 °C 14,4 °C 0,0 km/h (0 Bft)
21.08.2018 03:06 14,4 °C 88 % 1016,8 hPa 0,0 mm 0,0 km/h (0 Bft) S-SW 192 ° 0 min 0,000 mm 0,0 UV-I 0 W/m² 12,4 °C 14,4 °C 0,0 km/h (0 Bft)
21.08.2018 03:07 14,4 °C 88 % 1016,8 hPa 0,0 mm 0,0 km/h (0 Bft) S-SW 192 ° 0 min 0,000 mm 0,0 UV-I 0 W/m² 12,4 °C 14,4 °C 0,0 km/h (0 Bft)
21.08.2018 03:08 14,4 °C 88 % 1016,8 hPa 0,0 mm 0,0 km/h (0 Bft) S-SW 192 ° 0 min 0,000 mm 0,0 UV-I 0 W/m² 12,4 °C 14,4 °C 0,0 km/h (0 Bft)
21.08.2018 03:09 14,3 °C 88 % 1016,8 hPa 0,0 mm 0,0 km/h (0 Bft) S-SW 192 ° 0 min 0,000 mm 0,0 UV-I 0 W/m² 12,3 °C 14,3 °C 0,0 km/h (0 Bft)
21.08.2018 03:10 14,2 °C 88 % 1016,8 hPa 0,0 mm 0,0 km/h (0 Bft) S-SW 192 ° 0 min 0,000 mm 0,0 UV-I 0 W/m² 12,2 °C 14,2 °C 0,0 km/h (0 Bft)
21.08.2018 03:11 14,2 °C 88 % 1016,8 hPa 0,0 mm 0,0 km/h (0 Bft) S-SW 192 ° 0 min 0,000 mm 0,0 UV-I 0 W/m² 12,2 °C 14,2 °C 0,0 km/h (0 Bft)
21.08.2018 03:12 14,2 °C 89 % 1016,8 hPa 0,0 mm 0,0 km/h (0 Bft) S-SW 192 ° 0 min 0,000 mm 0,0 UV-I 0 W/m² 12,4 °C 14,2 °C 0,0 km/h (0 Bft)
21.08.2018 03:13 14,2 °C 89 % 1016,8 hPa 0,0 mm 0,0 km/h (0 Bft) S-SW 192 ° 0 min 0,000 mm 0,0 UV-I 0 W/m² 12,4 °C 14,2 °C 0,0 km/h (0 Bft)
21.08.2018 03:14 14,3 °C 89 % 1016,8 hPa 0,0 mm 0,0 km/h (0 Bft) S-SW 192 ° 0 min 0,000 mm 0,0 UV-I 0 W/m² 12,5 °C 14,3 °C 0,0 km/h (0 Bft)
21.08.2018 03:15 14,4 °C 89 % 1016,8 hPa 0,0 mm 0,0 km/h (0 Bft) S-SW 192 ° 0 min 0,000 mm 0,0 UV-I 0 W/m² 12,6 °C 14,4 °C 0,0 km/h (0 Bft)
21.08.2018 03:16 14,3 °C 88 % 1016,7 hPa 0,0 mm 0,0 km/h (0 Bft) S-SW 192 ° 0 min 0,000 mm 0,0 UV-I 0 W/m² 12,3 °C 14,3 °C 0,0 km/h (0 Bft)
21.08.2018 03:17 14,3 °C 88 % 1016,8 hPa 0,0 mm 0,0 km/h (0 Bft) S-SW 192 ° 0 min 0,000 mm 0,0 UV-I 0 W/m² 12,3 °C 14,3 °C 0,0 km/h (0 Bft)
21.08.2018 03:18 14,3 °C 88 % 1016,8 hPa 0,0 mm 0,0 km/h (0 Bft) S-SW 192 ° 0 min 0,000 mm 0,0 UV-I 0 W/m² 12,3 °C 14,3 °C 0,0 km/h (0 Bft)
21.08.2018 03:19 14,3 °C 89 % 1016,8 hPa 0,0 mm 0,0 km/h (0 Bft) S-SW 192 ° 0 min 0,000 mm 0,0 UV-I 0 W/m² 12,5 °C 14,3 °C 0,0 km/h (0 Bft)
21.08.2018 03:20 14,3 °C 89 % 1016,8 hPa 0,0 mm 0,0 km/h (0 Bft) S-SW 192 ° 0 min 0,000 mm 0,0 UV-I 0 W/m² 12,5 °C 14,3 °C 0,0 km/h (0 Bft)
21.08.2018 03:21 14,3 °C 89 % 1016,8 hPa 0,0 mm 0,0 km/h (0 Bft) S-SW 192 ° 0 min 0,000 mm 0,0 UV-I 0 W/m² 12,5 °C 14,3 °C 0,0 km/h (0 Bft)
21.08.2018 03:22 14,4 °C 89 % 1016,8 hPa 0,0 mm 0,0 km/h (0 Bft) S-SW 192 ° 0 min 0,000 mm 0,0 UV-I 0 W/m² 12,6 °C 14,4 °C 0,0 km/h (0 Bft)
21.08.2018 03:23 14,4 °C 89 % 1016,8 hPa 0,0 mm 0,0 km/h (0 Bft) S-SW 192 ° 0 min 0,000 mm 0,0 UV-I 0 W/m² 12,6 °C 14,4 °C 0,0 km/h (0 Bft)
21.08.2018 03:24 14,4 °C 89 % 1016,8 hPa 0,0 mm 0,0 km/h (0 Bft) S-SW 192 ° 0 min 0,000 mm 0,0 UV-I 0 W/m² 12,6 °C 14,4 °C 0,0 km/h (0 Bft)
21.08.2018 03:25 14,4 °C 88 % 1016,8 hPa 0,0 mm 0,0 km/h (0 Bft) S-SW 192 ° 0 min 0,000 mm 0,0 UV-I 0 W/m² 12,4 °C 14,4 °C 0,0 km/h (0 Bft)
21.08.2018 03:26 14,4 °C 88 % 1016,8 hPa 0,0 mm 0,0 km/h (0 Bft) S-SW 192 ° 0 min 0,000 mm 0,0 UV-I 0 W/m² 12,4 °C 14,4 °C 0,0 km/h (0 Bft)
21.08.2018 03:27 14,4 °C 88 % 1016,8 hPa 0,0 mm 0,1 km/h (0 Bft) S-SW 192 ° 0 min 0,000 mm 0,0 UV-I 0 W/m² 12,4 °C 14,4 °C 1,6 km/h (1 Bft)
21.08.2018 03:28 14,4 °C 88 % 1016,8 hPa 0,0 mm 0,5 km/h (0 Bft) S-SW 192 ° 0 min 0,000 mm 0,0 UV-I 0 W/m² 12,4 °C 14,4 °C 3,2 km/h (1 Bft)
21.08.2018 03:29 14,4 °C 88 % 1016,8 hPa 0,0 mm 2,3 km/h (1 Bft) S-SW 192 ° 0 min 0,000 mm 0,0 UV-I 0 W/m² 12,4 °C 14,4 °C 3,2 km/h (1 Bft)
21.08.2018 03:30 14,4 °C 88 % 1016,8 hPa 0,0 mm 0,8 km/h (0 Bft) S-SW 192 ° 0 min 0,000 mm 0,0 UV-I 0 W/m² 12,4 °C 14,4 °C 3,2 km/h (1 Bft)
21.08.2018 03:31 14,4 °C 88 % 1016,8 hPa 0,0 mm 0,9 km/h (0 Bft) S 191 ° 0 min 0,000 mm 0,0 UV-I 0 W/m² 12,4 °C 14,4 °C 3,2 km/h (1 Bft)
21.08.2018 03:32 14,4 °C 88 % 1016,9 hPa 0,0 mm 0,4 km/h (0 Bft) S 191 ° 0 min 0,000 mm 0,0 UV-I 0 W/m² 12,4 °C 14,4 °C 3,2 km/h (1 Bft)
21.08.2018 03:33 14,4 °C 88 % 1016,9 hPa 0,0 mm 0,0 km/h (0 Bft) S 191 ° 0 min 0,000 mm 0,0 UV-I 0 W/m² 12,4 °C 14,4 °C 0,0 km/h (0 Bft)
21.08.2018 03:34 14,3 °C 88 % 1016,9 hPa 0,0 mm 0,0 km/h (0 Bft) S 191 ° 0 min 0,000 mm 0,0 UV-I 0 W/m² 12,3 °C 14,3 °C 0,0 km/h (0 Bft)
21.08.2018 03:35 14,3 °C 88 % 1016,8 hPa 0,0 mm 0,0 km/h (0 Bft) S 191 ° 0 min 0,000 mm 0,0 UV-I 0 W/m² 12,3 °C 14,3 °C 0,0 km/h (0 Bft)
21.08.2018 03:36 14,2 °C 88 % 1016,8 hPa 0,0 mm 0,0 km/h (0 Bft) S 191 ° 0 min 0,000 mm 0,0 UV-I 0 W/m² 12,2 °C 14,2 °C 0,0 km/h (0 Bft)
21.08.2018 03:37 14,1 °C 88 % 1016,8 hPa 0,0 mm 0,0 km/h (0 Bft) S 191 ° 0 min 0,000 mm 0,0 UV-I 0 W/m² 12,1 °C 14,1 °C 0,0 km/h (0 Bft)
21.08.2018 03:38 14,1 °C 89 % 1016,8 hPa 0,0 mm 0,0 km/h (0 Bft) S 191 ° 0 min 0,000 mm 0,0 UV-I 0 W/m² 12,3 °C 14,1 °C 0,0 km/h (0 Bft)
21.08.2018 03:39 14,1 °C 89 % 1016,8 hPa 0,0 mm 0,0 km/h (0 Bft) S 191 ° 0 min 0,000 mm 0,0 UV-I 0 W/m² 12,3 °C 14,1 °C 0,0 km/h (0 Bft)
21.08.2018 03:40 14,1 °C 89 % 1016,8 hPa 0,0 mm 0,0 km/h (0 Bft) S 191 ° 0 min 0,000 mm 0,0 UV-I 0 W/m² 12,3 °C 14,1 °C 0,0 km/h (0 Bft)
21.08.2018 03:41 14,1 °C 89 % 1016,8 hPa 0,0 mm 0,0 km/h (0 Bft) S 191 ° 0 min 0,000 mm 0,0 UV-I 0 W/m² 12,3 °C 14,1 °C 0,0 km/h (0 Bft)
21.08.2018 03:42 14,0 °C 89 % 1016,8 hPa 0,0 mm 0,0 km/h (0 Bft) S 191 ° 0 min 0,000 mm 0,0 UV-I 0 W/m² 12,2 °C 14,0 °C 0,0 km/h (0 Bft)
21.08.2018 03:43 13,9 °C 88 % 1016,8 hPa 0,0 mm 0,0 km/h (0 Bft) S 191 ° 0 min 0,000 mm 0,0 UV-I 0 W/m² 11,9 °C 13,9 °C 0,0 km/h (0 Bft)
21.08.2018 03:44 13,9 °C 89 % 1016,8 hPa 0,0 mm 0,0 km/h (0 Bft) S 191 ° 0 min 0,000 mm 0,0 UV-I 0 W/m² 12,1 °C 13,9 °C 0,0 km/h (0 Bft)
21.08.2018 03:45 13,8 °C 89 % 1016,8 hPa 0,0 mm 0,0 km/h (0 Bft) S 191 ° 0 min 0,000 mm 0,0 UV-I 0 W/m² 12,0 °C 13,8 °C 0,0 km/h (0 Bft)
21.08.2018 03:46 13,8 °C 89 % 1016,7 hPa 0,0 mm 0,0 km/h (0 Bft) S 191 ° 0 min 0,000 mm 0,0 UV-I 0 W/m² 12,0 °C 13,8 °C 0,0 km/h (0 Bft)
21.08.2018 03:47 13,8 °C 90 % 1016,7 hPa 0,0 mm 0,0 km/h (0 Bft) S 191 ° 0 min 0,000 mm 0,0 UV-I 0 W/m² 12,2 °C 13,8 °C 0,0 km/h (0 Bft)
21.08.2018 03:48 13,8 °C 90 % 1016,8 hPa 0,0 mm 0,0 km/h (0 Bft) S 191 ° 0 min 0,000 mm 0,0 UV-I 0 W/m² 12,2 °C 13,8 °C 0,0 km/h (0 Bft)
21.08.2018 03:49 13,9 °C 90 % 1016,8 hPa 0,0 mm 0,0 km/h (0 Bft) S 191 ° 0 min 0,000 mm 0,0 UV-I 0 W/m² 12,3 °C 13,9 °C 0,0 km/h (0 Bft)
21.08.2018 03:50 13,9 °C 90 % 1016,8 hPa 0,0 mm 0,0 km/h (0 Bft) S 191 ° 0 min 0,000 mm 0,0 UV-I 0 W/m² 12,3 °C 13,9 °C 0,0 km/h (0 Bft)
21.08.2018 03:51 13,9 °C 90 % 1016,8 hPa 0,0 mm 0,0 km/h (0 Bft) S 191 ° 0 min 0,000 mm 0,0 UV-I 0 W/m² 12,3 °C 13,9 °C 0,0 km/h (0 Bft)
21.08.2018 03:52 14,0 °C 90 % 1016,8 hPa 0,0 mm 0,0 km/h (0 Bft) S 191 ° 0 min 0,000 mm 0,0 UV-I 0 W/m² 12,4 °C 14,0 °C 0,0 km/h (0 Bft)
21.08.2018 03:53 14,0 °C 90 % 1016,8 hPa 0,0 mm 0,0 km/h (0 Bft) S 191 ° 0 min 0,000 mm 0,0 UV-I 0 W/m² 12,4 °C 14,0 °C 0,0 km/h (0 Bft)
21.08.2018 03:54 13,9 °C 89 % 1016,8 hPa 0,0 mm 0,0 km/h (0 Bft) S 191 ° 0 min 0,000 mm 0,0 UV-I 0 W/m² 12,1 °C 13,9 °C 0,0 km/h (0 Bft)
21.08.2018 03:55 13,9 °C 89 % 1016,8 hPa 0,0 mm 0,0 km/h (0 Bft) S 191 ° 0 min 0,000 mm 0,0 UV-I 0 W/m² 12,1 °C 13,9 °C 0,0 km/h (0 Bft)
21.08.2018 03:56 13,8 °C 89 % 1016,8 hPa 0,0 mm 0,0 km/h (0 Bft) S 191 ° 0 min 0,000 mm 0,0 UV-I 0 W/m² 12,0 °C 13,8 °C 0,0 km/h (0 Bft)
21.08.2018 03:57 13,8 °C 89 % 1016,8 hPa 0,0 mm 0,0 km/h (0 Bft) S 191 ° 0 min 0,000 mm 0,0 UV-I 0 W/m² 12,0 °C 13,8 °C 0,0 km/h (0 Bft)
21.08.2018 03:58 13,7 °C 89 % 1016,8 hPa 0,0 mm 0,0 km/h (0 Bft) S 191 ° 0 min 0,000 mm 0,0 UV-I 0 W/m² 11,9 °C 13,7 °C 0,0 km/h (0 Bft)
21.08.2018 03:59 13,7 °C 90 % 1016,7 hPa 0,0 mm 0,0 km/h (0 Bft) S 191 ° 0 min 0,000 mm 0,0 UV-I 0 W/m² 12,1 °C 13,7 °C 0,0 km/h (0 Bft)
21.08.2018 04:00 13,7 °C 90 % 1016,7 hPa 0,0 mm 0,0 km/h (0 Bft) S 191 ° 0 min 0,000 mm 0,0 UV-I 0 W/m² 12,1 °C 13,7 °C 0,0 km/h (0 Bft)
21.08.2018 04:01 13,7 °C 90 % 1016,7 hPa 0,0 mm 0,0 km/h (0 Bft) S 191 ° 0 min 0,000 mm 0,0 UV-I 0 W/m² 12,1 °C 13,7 °C 0,0 km/h (0 Bft)
21.08.2018 04:02 13,7 °C 90 % 1016,7 hPa 0,0 mm 0,0 km/h (0 Bft) S 191 ° 0 min 0,000 mm 0,0 UV-I 0 W/m² 12,1 °C 13,7 °C 0,0 km/h (0 Bft)
21.08.2018 04:03 13,7 °C 90 % 1016,7 hPa 0,0 mm 0,0 km/h (0 Bft) S 191 ° 0 min 0,000 mm 0,0 UV-I 0 W/m² 12,1 °C 13,7 °C 0,0 km/h (0 Bft)
21.08.2018 04:04 13,7 °C 90 % 1016,7 hPa 0,0 mm 0,0 km/h (0 Bft) S 191 ° 0 min 0,000 mm 0,0 UV-I 0 W/m² 12,1 °C 13,7 °C 0,0 km/h (0 Bft)
21.08.2018 04:05 13,7 °C 90 % 1016,8 hPa 0,0 mm 0,0 km/h (0 Bft) S 191 ° 0 min 0,000 mm 0,0 UV-I 0 W/m² 12,1 °C 13,7 °C 0,0 km/h (0 Bft)
21.08.2018 04:06 13,7 °C 90 % 1016,8 hPa 0,0 mm 0,0 km/h (0 Bft) S 191 ° 0 min 0,000 mm 0,0 UV-I 0 W/m² 12,1 °C 13,7 °C 0,0 km/h (0 Bft)
21.08.2018 04:07 13,7 °C 90 % 1016,8 hPa 0,0 mm 0,0 km/h (0 Bft) S 191 ° 0 min 0,000 mm 0,0 UV-I 0 W/m² 12,1 °C 13,7 °C 0,0 km/h (0 Bft)
21.08.2018 04:08 13,7 °C 90 % 1016,8 hPa 0,0 mm 0,0 km/h (0 Bft) S 191 ° 0 min 0,000 mm 0,0 UV-I 0 W/m² 12,1 °C 13,7 °C 0,0 km/h (0 Bft)
21.08.2018 04:09 13,7 °C 90 % 1016,7 hPa 0,0 mm 0,0 km/h (0 Bft) S 191 ° 0 min 0,000 mm 0,0 UV-I 0 W/m² 12,1 °C 13,7 °C 0,0 km/h (0 Bft)
21.08.2018 04:10 13,7 °C 90 % 1016,7 hPa 0,0 mm 0,0 km/h (0 Bft) S 191 ° 0 min 0,000 mm 0,0 UV-I 0 W/m² 12,1 °C 13,7 °C 0,0 km/h (0 Bft)
21.08.2018 04:11 13,7 °C 90 % 1016,8 hPa 0,0 mm 0,0 km/h (0 Bft) S 191 ° 0 min 0,000 mm 0,0 UV-I 0 W/m² 12,1 °C 13,7 °C 0,0 km/h (0 Bft)
21.08.2018 04:12 13,7 °C 91 % 1016,8 hPa 0,0 mm 0,0 km/h (0 Bft) S 191 ° 0 min 0,000 mm 0,0 UV-I 0 W/m² 12,3 °C 13,7 °C 0,0 km/h (0 Bft)
21.08.2018 04:13 13,8 °C 91 % 1016,7 hPa 0,0 mm 0,0 km/h (0 Bft) S 191 ° 0 min 0,000 mm 0,0 UV-I 0 W/m² 12,4 °C 13,8 °C 0,0 km/h (0 Bft)
21.08.2018 04:14 13,8 °C 90 % 1016,7 hPa 0,0 mm 0,0 km/h (0 Bft) S 191 ° 0 min 0,000 mm 0,0 UV-I 0 W/m² 12,2 °C 13,8 °C 0,0 km/h (0 Bft)
21.08.2018 04:15 13,9 °C 90 % 1016,7 hPa 0,0 mm 0,0 km/h (0 Bft) S 191 ° 0 min 0,000 mm 0,0 UV-I 0 W/m² 12,3 °C 13,9 °C 0,0 km/h (0 Bft)
21.08.2018 04:16 13,9 °C 90 % 1016,7 hPa 0,0 mm 0,0 km/h (0 Bft) S 191 ° 0 min 0,000 mm 0,0 UV-I 0 W/m² 12,3 °C 13,9 °C 0,0 km/h (0 Bft)
21.08.2018 04:17 13,9 °C 90 % 1016,7 hPa 0,0 mm 0,0 km/h (0 Bft) S 191 ° 0 min 0,000 mm 0,0 UV-I 0 W/m² 12,3 °C 13,9 °C 0,0 km/h (0 Bft)
21.08.2018 04:18 13,9 °C 90 % 1016,7 hPa 0,0 mm 0,0 km/h (0 Bft) S 191 ° 0 min 0,000 mm 0,0 UV-I 0 W/m² 12,3 °C 13,9 °C 0,0 km/h (0 Bft)
21.08.2018 04:19 13,8 °C 90 % 1016,7 hPa 0,0 mm 0,0 km/h (0 Bft) S 191 ° 0 min 0,000 mm 0,0 UV-I 0 W/m² 12,2 °C 13,8 °C 0,0 km/h (0 Bft)
21.08.2018 04:20 13,7 °C 89 % 1016,7 hPa 0,0 mm 0,0 km/h (0 Bft) S 191 ° 0 min 0,000 mm 0,0 UV-I 0 W/m² 11,9 °C 13,7 °C 0,0 km/h (0 Bft)
21.08.2018 04:21 13,6 °C 89 % 1016,7 hPa 0,0 mm 0,0 km/h (0 Bft) S 191 ° 0 min 0,000 mm 0,0 UV-I 0 W/m² 11,8 °C 13,6 °C 0,0 km/h (0 Bft)
21.08.2018 04:22 13,6 °C 90 % 1016,7 hPa 0,0 mm 0,0 km/h (0 Bft) S 191 ° 0 min 0,000 mm 0,0 UV-I 0 W/m² 12,0 °C 13,6 °C 0,0 km/h (0 Bft)
21.08.2018 04:23 13,5 °C 90 % 1016,7 hPa 0,0 mm 0,0 km/h (0 Bft) S 191 ° 0 min 0,000 mm 0,0 UV-I 0 W/m² 11,9 °C 13,5 °C 0,0 km/h (0 Bft)
21.08.2018 04:24 13,5 °C 90 % 1016,7 hPa 0,0 mm 0,0 km/h (0 Bft) S 191 ° 0 min 0,000 mm 0,0 UV-I 0 W/m² 11,9 °C 13,5 °C 0,0 km/h (0 Bft)
21.08.2018 04:25 13,5 °C 90 % 1016,7 hPa 0,0 mm 0,0 km/h (0 Bft) S 191 ° 0 min 0,000 mm 0,0 UV-I 0 W/m² 11,9 °C 13,5 °C 0,0 km/h (0 Bft)
21.08.2018 04:26 13,5 °C 90 % 1016,7 hPa 0,0 mm 0,0 km/h (0 Bft) S 191 ° 0 min 0,000 mm 0,0 UV-I 0 W/m² 11,9 °C 13,5 °C 0,0 km/h (0 Bft)
21.08.2018 04:27 13,5 °C 91 % 1016,7 hPa 0,0 mm 0,0 km/h (0 Bft) S 191 ° 0 min 0,000 mm 0,0 UV-I 0 W/m² 12,1 °C 13,5 °C 0,0 km/h (0 Bft)
21.08.2018 04:28 13,5 °C 90 % 1016,7 hPa 0,0 mm 0,0 km/h (0 Bft) S 191 ° 0 min 0,000 mm 0,0 UV-I 0 W/m² 11,9 °C 13,5 °C 0,0 km/h (0 Bft)
21.08.2018 04:29 13,5 °C 90 % 1016,7 hPa 0,0 mm 0,0 km/h (0 Bft) S 191 ° 0 min 0,000 mm 0,0 UV-I 0 W/m² 11,9 °C 13,5 °C 0,0 km/h (0 Bft)
21.08.2018 04:30 13,5 °C 90 % 1016,7 hPa 0,0 mm 0,0 km/h (0 Bft) S 191 ° 0 min 0,000 mm 0,0 UV-I 0 W/m² 11,9 °C 13,5 °C 0,0 km/h (0 Bft)
21.08.2018 04:31 13,4 °C 91 % 1016,7 hPa 0,0 mm 0,0 km/h (0 Bft) S 191 ° 0 min 0,000 mm 0,0 UV-I 0 W/m² 12,0 °C 13,4 °C 0,0 km/h (0 Bft)
21.08.2018 04:32 13,5 °C 91 % 1016,7 hPa 0,0 mm 0,0 km/h (0 Bft) S 191 ° 0 min 0,000 mm 0,0 UV-I 0 W/m² 12,1 °C 13,5 °C 0,0 km/h (0 Bft)
21.08.2018 04:33 13,4 °C 91 % 1016,7 hPa 0,0 mm 0,0 km/h (0 Bft) S 191 ° 0 min 0,000 mm 0,0 UV-I 0 W/m² 12,0 °C 13,4 °C 0,0 km/h (0 Bft)
21.08.2018 04:34 13,4 °C 91 % 1016,8 hPa 0,0 mm 0,0 km/h (0 Bft) S 191 ° 0 min 0,000 mm 0,0 UV-I 0 W/m² 12,0 °C 13,4 °C 0,0 km/h (0 Bft)
21.08.2018 04:35 13,4 °C 91 % 1016,7 hPa 0,0 mm 0,0 km/h (0 Bft) S 191 ° 0 min 0,000 mm 0,0 UV-I 0 W/m² 12,0 °C 13,4 °C 0,0 km/h (0 Bft)
21.08.2018 04:36 13,4 °C 91 % 1016,7 hPa 0,0 mm 0,0 km/h (0 Bft) S 191 ° 0 min 0,000 mm 0,0 UV-I 0 W/m² 12,0 °C 13,4 °C 0,0 km/h (0 Bft)
21.08.2018 04:37 13,4 °C 91 % 1016,7 hPa 0,0 mm 0,0 km/h (0 Bft) S 191 ° 0 min 0,000 mm 0,0 UV-I 0 W/m² 12,0 °C 13,4 °C 0,0 km/h (0 Bft)
21.08.2018 04:38 13,4 °C 91 % 1016,7 hPa 0,0 mm 0,0 km/h (0 Bft) S 191 ° 0 min 0,000 mm 0,0 UV-I 0 W/m² 12,0 °C 13,4 °C 0,0 km/h (0 Bft)
21.08.2018 04:39 13,4 °C 91 % 1016,7 hPa 0,0 mm 0,0 km/h (0 Bft) S 191 ° 0 min 0,000 mm 0,0 UV-I 0 W/m² 12,0 °C 13,4 °C 0,0 km/h (0 Bft)
21.08.2018 04:40 13,4 °C 91 % 1016,7 hPa 0,0 mm 0,0 km/h (0 Bft) S 191 ° 0 min 0,000 mm 0,0 UV-I 0 W/m² 12,0 °C 13,4 °C 0,0 km/h (0 Bft)
21.08.2018 04:41 13,4 °C 91 % 1016,7 hPa 0,0 mm 0,0 km/h (0 Bft) S 191 ° 0 min 0,000 mm 0,0 UV-I 0 W/m² 12,0 °C 13,4 °C 0,0 km/h (0 Bft)
21.08.2018 04:42 13,4 °C 91 % 1016,7 hPa 0,0 mm 0,0 km/h (0 Bft) S 191 ° 0 min 0,000 mm 0,0 UV-I 0 W/m² 12,0 °C 13,4 °C 0,0 km/h (0 Bft)
21.08.2018 04:43 13,4 °C 91 % 1016,7 hPa 0,0 mm 0,0 km/h (0 Bft) S 191 ° 0 min 0,000 mm 0,0 UV-I 0 W/m² 12,0 °C 13,4 °C 0,0 km/h (0 Bft)
21.08.2018 04:44 13,4 °C 91 % 1016,7 hPa 0,0 mm 0,0 km/h (0 Bft) S 191 ° 0 min 0,000 mm 0,0 UV-I 0 W/m² 12,0 °C 13,4 °C 0,0 km/h (0 Bft)
21.08.2018 04:45 13,3 °C 91 % 1016,7 hPa 0,0 mm 0,0 km/h (0 Bft) S 191 ° 0 min 0,000 mm 0,0 UV-I 0 W/m² 11,9 °C 13,3 °C 0,0 km/h (0 Bft)
21.08.2018 04:46 13,3 °C 91 % 1016,7 hPa 0,0 mm 0,0 km/h (0 Bft) S 191 ° 0 min 0,000 mm 0,0 UV-I 0 W/m² 11,9 °C 13,3 °C 0,0 km/h (0 Bft)
21.08.2018 04:47 13,3 °C 91 % 1016,7 hPa 0,0 mm 0,0 km/h (0 Bft) S 191 ° 0 min 0,000 mm 0,0 UV-I 0 W/m² 11,9 °C 13,3 °C 0,0 km/h (0 Bft)
21.08.2018 04:48 13,3 °C 91 % 1016,7 hPa 0,0 mm 0,0 km/h (0 Bft) S 191 ° 0 min 0,000 mm 0,0 UV-I 0 W/m² 11,9 °C 13,3 °C 0,0 km/h (0 Bft)
21.08.2018 04:49 13,3 °C 91 % 1016,7 hPa 0,0 mm 0,0 km/h (0 Bft) S 191 ° 0 min 0,000 mm 0,0 UV-I 0 W/m² 11,9 °C 13,3 °C 0,0 km/h (0 Bft)
21.08.2018 04:50 13,3 °C 91 % 1016,7 hPa 0,0 mm 0,0 km/h (0 Bft) S 191 ° 0 min 0,000 mm 0,0 UV-I 0 W/m² 11,9 °C 13,3 °C 0,0 km/h (0 Bft)
21.08.2018 04:51 13,3 °C 91 % 1016,7 hPa 0,0 mm 0,0 km/h (0 Bft) S 191 ° 0 min 0,000 mm 0,0 UV-I 0 W/m² 11,9 °C 13,3 °C 0,0 km/h (0 Bft)
21.08.2018 04:52 13,2 °C 91 % 1016,6 hPa 0,0 mm 0,0 km/h (0 Bft) S 191 ° 0 min 0,000 mm 0,0 UV-I 0 W/m² 11,8 °C 13,2 °C 0,0 km/h (0 Bft)
21.08.2018 04:53 13,2 °C 91 % 1016,7 hPa 0,0 mm 0,0 km/h (0 Bft) S 191 ° 0 min 0,000 mm 0,0 UV-I 0 W/m² 11,8 °C 13,2 °C 0,0 km/h (0 Bft)
21.08.2018 04:54 13,2 °C 91 % 1016,7 hPa 0,0 mm 0,0 km/h (0 Bft) S 191 ° 0 min 0,000 mm 0,0 UV-I 0 W/m² 11,8 °C 13,2 °C 0,0 km/h (0 Bft)
21.08.2018 04:55 13,3 °C 91 % 1016,7 hPa 0,0 mm 0,0 km/h (0 Bft) S 191 ° 0 min 0,000 mm 0,0 UV-I 0 W/m² 11,9 °C 13,3 °C 0,0 km/h (0 Bft)
21.08.2018 04:56 13,2 °C 91 % 1016,7 hPa 0,0 mm 0,0 km/h (0 Bft) S 191 ° 0 min 0,000 mm 0,0 UV-I 0 W/m² 11,8 °C 13,2 °C 0,0 km/h (0 Bft)
21.08.2018 04:57 13,2 °C 91 % 1016,7 hPa 0,0 mm 0,0 km/h (0 Bft) S 191 ° 0 min 0,000 mm 0,0 UV-I 0 W/m² 11,8 °C 13,2 °C 0,0 km/h (0 Bft)
21.08.2018 04:58 13,2 °C 91 % 1016,7 hPa 0,0 mm 0,0 km/h (0 Bft) S 191 ° 0 min 0,000 mm 0,0 UV-I 0 W/m² 11,8 °C 13,2 °C 0,0 km/h (0 Bft)
21.08.2018 04:59 13,2 °C 91 % 1016,7 hPa 0,0 mm 0,0 km/h (0 Bft) S 191 ° 0 min 0,000 mm 0,0 UV-I 0 W/m² 11,8 °C 13,2 °C 0,0 km/h (0 Bft)
21.08.2018 05:00 13,2 °C 91 % 1016,7 hPa 0,0 mm 0,0 km/h (0 Bft) S 191 ° 0 min 0,000 mm 0,0 UV-I 0 W/m² 11,8 °C 13,2 °C 0,0 km/h (0 Bft)
21.08.2018 05:01 13,2 °C 92 % 1016,7 hPa 0,0 mm 0,0 km/h (0 Bft) S 191 ° 0 min 0,000 mm 0,0 UV-I 0 W/m² 11,9 °C 13,2 °C 0,0 km/h (0 Bft)
21.08.2018 05:02 13,2 °C 92 % 1016,8 hPa 0,0 mm 0,0 km/h (0 Bft) S 191 ° 0 min 0,000 mm 0,0 UV-I 0 W/m² 11,9 °C 13,2 °C 0,0 km/h (0 Bft)
21.08.2018 05:03 13,2 °C 92 % 1016,7 hPa 0,0 mm 0,0 km/h (0 Bft) S 191 ° 0 min 0,000 mm 0,0 UV-I 0 W/m² 11,9 °C 13,2 °C 0,0 km/h (0 Bft)
21.08.2018 05:04 13,2 °C 92 % 1016,8 hPa 0,0 mm 0,0 km/h (0 Bft) S 191 ° 0 min 0,000 mm 0,0 UV-I 0 W/m² 11,9 °C 13,2 °C 0,0 km/h (0 Bft)
21.08.2018 05:05 13,2 °C 92 % 1016,7 hPa 0,0 mm 0,0 km/h (0 Bft) S 191 ° 0 min 0,000 mm 0,0 UV-I 0 W/m² 11,9 °C 13,2 °C 0,0 km/h (0 Bft)
21.08.2018 05:06 13,2 °C 92 % 1016,7 hPa 0,0 mm 0,0 km/h (0 Bft) S 191 ° 0 min 0,000 mm 0,0 UV-I 0 W/m² 11,9 °C 13,2 °C 0,0 km/h (0 Bft)
21.08.2018 05:07 13,1 °C 92 % 1016,8 hPa 0,0 mm 0,0 km/h (0 Bft) S 191 ° 0 min 0,000 mm 0,0 UV-I 0 W/m² 11,8 °C 13,1 °C 0,0 km/h (0 Bft)
21.08.2018 05:08 13,1 °C 92 % 1016,7 hPa 0,0 mm 0,0 km/h (0 Bft) S 191 ° 0 min 0,000 mm 0,0 UV-I 0 W/m² 11,8 °C 13,1 °C 0,0 km/h (0 Bft)
21.08.2018 05:09 13,1 °C 92 % 1016,7 hPa 0,0 mm 0,0 km/h (0 Bft) S 191 ° 0 min 0,000 mm 0,0 UV-I 0 W/m² 11,8 °C 13,1 °C 0,0 km/h (0 Bft)
21.08.2018 05:10 13,1 °C 92 % 1016,7 hPa 0,0 mm 0,0 km/h (0 Bft) S 191 ° 0 min 0,000 mm 0,0 UV-I 0 W/m² 11,8 °C 13,1 °C 0,0 km/h (0 Bft)
21.08.2018 05:11 13,1 °C 92 % 1016,7 hPa 0,0 mm 0,0 km/h (0 Bft) S 191 ° 0 min 0,000 mm 0,0 UV-I 0 W/m² 11,8 °C 13,1 °C 0,0 km/h (0 Bft)
21.08.2018 05:12 13,1 °C 92 % 1016,7 hPa 0,0 mm 0,0 km/h (0 Bft) S 191 ° 0 min 0,000 mm 0,0 UV-I 0 W/m² 11,8 °C 13,1 °C 0,0 km/h (0 Bft)
21.08.2018 05:13 13,1 °C 92 % 1016,7 hPa 0,0 mm 0,0 km/h (0 Bft) S 191 ° 0 min 0,000 mm 0,0 UV-I 0 W/m² 11,8 °C 13,1 °C 0,0 km/h (0 Bft)
21.08.2018 05:14 13,1 °C 92 % 1016,7 hPa 0,0 mm 0,0 km/h (0 Bft) S 191 ° 0 min 0,000 mm 0,0 UV-I 0 W/m² 11,8 °C 13,1 °C 0,0 km/h (0 Bft)
21.08.2018 05:15 13,1 °C 92 % 1016,7 hPa 0,0 mm 0,0 km/h (0 Bft) S 191 ° 0 min 0,000 mm 0,0 UV-I 0 W/m² 11,8 °C 13,1 °C 0,0 km/h (0 Bft)
21.08.2018 05:16 13,1 °C 92 % 1016,7 hPa 0,0 mm 0,0 km/h (0 Bft) S 191 ° 0 min 0,000 mm 0,0 UV-I 0 W/m² 11,8 °C 13,1 °C 0,0 km/h (0 Bft)
21.08.2018 05:17 13,1 °C 92 % 1016,7 hPa 0,0 mm 0,0 km/h (0 Bft) S 191 ° 0 min 0,000 mm 0,0 UV-I 0 W/m² 11,8 °C 13,1 °C 0,0 km/h (0 Bft)
21.08.2018 05:18 13,1 °C 92 % 1016,7 hPa 0,0 mm 0,0 km/h (0 Bft) S 191 ° 0 min 0,000 mm 0,0 UV-I 0 W/m² 11,8 °C 13,1 °C 0,0 km/h (0 Bft)
21.08.2018 05:19 13,1 °C 92 % 1016,7 hPa 0,0 mm 0,0 km/h (0 Bft) S 191 ° 0 min 0,000 mm 0,0 UV-I 0 W/m² 11,8 °C 13,1 °C 0,0 km/h (0 Bft)
21.08.2018 05:20 13,0 °C 92 % 1016,7 hPa 0,0 mm 0,0 km/h (0 Bft) S 191 ° 0 min 0,000 mm 0,0 UV-I 0 W/m² 11,7 °C 13,0 °C 0,0 km/h (0 Bft)
21.08.2018 05:21 12,9 °C 92 % 1016,7 hPa 0,0 mm 0,0 km/h (0 Bft) S 191 ° 0 min 0,000 mm 0,0 UV-I 0 W/m² 11,6 °C 12,9 °C 0,0 km/h (0 Bft)
21.08.2018 05:22 12,9 °C 91 % 1016,7 hPa 0,0 mm 0,0 km/h (0 Bft) S 191 ° 0 min 0,000 mm 0,0 UV-I 0 W/m² 11,5 °C 12,9 °C 0,0 km/h (0 Bft)
21.08.2018 05:23 12,9 °C 91 % 1016,7 hPa 0,0 mm 0,0 km/h (0 Bft) S 191 ° 0 min 0,000 mm 0,0 UV-I 0 W/m² 11,5 °C 12,9 °C 0,0 km/h (0 Bft)
21.08.2018 05:24 12,9 °C 92 % 1016,7 hPa 0,0 mm 0,0 km/h (0 Bft) S 191 ° 0 min 0,000 mm 0,0 UV-I 0 W/m² 11,6 °C 12,9 °C 0,0 km/h (0 Bft)
21.08.2018 05:25 12,9 °C 92 % 1016,7 hPa 0,0 mm 0,0 km/h (0 Bft) S 191 ° 0 min 0,000 mm 0,0 UV-I 0 W/m² 11,6 °C 12,9 °C 0,0 km/h (0 Bft)
21.08.2018 05:26 12,9 °C 92 % 1016,7 hPa 0,0 mm 0,0 km/h (0 Bft) S 191 ° 0 min 0,000 mm 0,0 UV-I 0 W/m² 11,6 °C 12,9 °C 0,0 km/h (0 Bft)
21.08.2018 05:27 12,9 °C 92 % 1016,8 hPa 0,0 mm 0,0 km/h (0 Bft) S 191 ° 0 min 0,000 mm 0,0 UV-I 0 W/m² 11,6 °C 12,9 °C 0,0 km/h (0 Bft)
21.08.2018 05:28 12,9 °C 92 % 1016,8 hPa 0,0 mm 0,0 km/h (0 Bft) S 191 ° 0 min 0,000 mm 0,0 UV-I 0 W/m² 11,6 °C 12,9 °C 0,0 km/h (0 Bft)
21.08.2018 05:29 12,8 °C 92 % 1016,8 hPa 0,0 mm 0,0 km/h (0 Bft) S 191 ° 0 min 0,000 mm 0,0 UV-I 0 W/m² 11,5 °C 12,8 °C 0,0 km/h (0 Bft)
21.08.2018 05:30 12,8 °C 92 % 1016,8 hPa 0,0 mm 0,0 km/h (0 Bft) S 191 ° 0 min 0,000 mm 0,0 UV-I 0 W/m² 11,5 °C 12,8 °C 0,0 km/h (0 Bft)
21.08.2018 05:31 12,7 °C 91 % 1016,8 hPa 0,0 mm 0,0 km/h (0 Bft) S 191 ° 0 min 0,000 mm 0,0 UV-I 0 W/m² 11,3 °C 12,7 °C 0,0 km/h (0 Bft)
21.08.2018 05:32 12,7 °C 91 % 1016,8 hPa 0,0 mm 0,0 km/h (0 Bft) S 191 ° 0 min 0,000 mm 0,0 UV-I 0 W/m² 11,3 °C 12,7 °C 0,0 km/h (0 Bft)
21.08.2018 05:33 12,7 °C 92 % 1016,8 hPa 0,0 mm 0,0 km/h (0 Bft) S 191 ° 0 min 0,000 mm 0,0 UV-I 0 W/m² 11,4 °C 12,7 °C 0,0 km/h (0 Bft)
21.08.2018 05:34 12,7 °C 92 % 1016,8 hPa 0,0 mm 0,0 km/h (0 Bft) S 191 ° 0 min 0,000 mm 0,0 UV-I 0 W/m² 11,4 °C 12,7 °C 0,0 km/h (0 Bft)
21.08.2018 05:35 12,7 °C 92 % 1016,8 hPa 0,0 mm 0,0 km/h (0 Bft) S 191 ° 0 min 0,000 mm 0,0 UV-I 0 W/m² 11,4 °C 12,7 °C 0,0 km/h (0 Bft)
21.08.2018 05:36 12,6 °C 92 % 1016,8 hPa 0,0 mm 0,0 km/h (0 Bft) S 191 ° 0 min 0,000 mm 0,0 UV-I 0 W/m² 11,3 °C 12,6 °C 0,0 km/h (0 Bft)
21.08.2018 05:37 12,6 °C 92 % 1016,8 hPa 0,0 mm 0,0 km/h (0 Bft) S 191 ° 0 min 0,000 mm 0,0 UV-I 0 W/m² 11,3 °C 12,6 °C 0,0 km/h (0 Bft)
21.08.2018 05:38 12,7 °C 92 % 1016,8 hPa 0,0 mm 0,0 km/h (0 Bft) S 191 ° 0 min 0,000 mm 0,0 UV-I 0 W/m² 11,4 °C 12,7 °C 0,0 km/h (0 Bft)
21.08.2018 05:39 12,8 °C 92 % 1016,8 hPa 0,0 mm 0,0 km/h (0 Bft) S 191 ° 0 min 0,000 mm 0,0 UV-I 0 W/m² 11,5 °C 12,8 °C 0,0 km/h (0 Bft)
21.08.2018 05:40 12,8 °C 92 % 1016,8 hPa 0,0 mm 0,0 km/h (0 Bft) S 191 ° 0 min 0,000 mm 0,0 UV-I 0 W/m² 11,5 °C 12,8 °C 0,0 km/h (0 Bft)
21.08.2018 05:41 12,9 °C 92 % 1016,8 hPa 0,0 mm 0,0 km/h (0 Bft) S 191 ° 0 min 0,000 mm 0,0 UV-I 0 W/m² 11,6 °C 12,9 °C 0,0 km/h (0 Bft)
21.08.2018 05:42 12,9 °C 92 % 1016,8 hPa 0,0 mm 0,0 km/h (0 Bft) S 191 ° 0 min 0,000 mm 0,0 UV-I 0 W/m² 11,6 °C 12,9 °C 0,0 km/h (0 Bft)
21.08.2018 05:43 12,9 °C 92 % 1016,8 hPa 0,0 mm 0,0 km/h (0 Bft) S 191 ° 0 min 0,000 mm 0,0 UV-I 0 W/m² 11,6 °C 12,9 °C 0,0 km/h (0 Bft)
21.08.2018 05:44 12,8 °C 91 % 1016,8 hPa 0,0 mm 0,0 km/h (0 Bft) S 191 ° 0 min 0,000 mm 0,0 UV-I 0 W/m² 11,4 °C 12,8 °C 0,0 km/h (0 Bft)
21.08.2018 05:45 12,8 °C 91 % 1016,8 hPa 0,0 mm 0,0 km/h (0 Bft) S 191 ° 0 min 0,000 mm 0,0 UV-I 0 W/m² 11,4 °C 12,8 °C 0,0 km/h (0 Bft)
21.08.2018 05:46 12,7 °C 91 % 1016,8 hPa 0,0 mm 0,0 km/h (0 Bft) S 191 ° 0 min 0,000 mm 0,0 UV-I 0 W/m² 11,3 °C 12,7 °C 0,0 km/h (0 Bft)
21.08.2018 05:47 12,6 °C 91 % 1016,8 hPa 0,0 mm 0,0 km/h (0 Bft) S 191 ° 0 min 0,000 mm 0,0 UV-I 0 W/m² 11,2 °C 12,6 °C 0,0 km/h (0 Bft)
21.08.2018 05:48 12,6 °C 92 % 1016,8 hPa 0,0 mm 0,0 km/h (0 Bft) S 191 ° 0 min 0,000 mm 0,0 UV-I 0 W/m² 11,3 °C 12,6 °C 0,0 km/h (0 Bft)
21.08.2018 05:49 12,6 °C 92 % 1016,8 hPa 0,0 mm 0,0 km/h (0 Bft) S 191 ° 0 min 0,000 mm 0,0 UV-I 0 W/m² 11,3 °C 12,6 °C 0,0 km/h (0 Bft)
21.08.2018 05:50 12,6 °C 91 % 1016,8 hPa 0,0 mm 0,0 km/h (0 Bft) S 191 ° 0 min 0,000 mm 0,0 UV-I 0 W/m² 11,2 °C 12,6 °C 0,0 km/h (0 Bft)
21.08.2018 05:51 12,6 °C 91 % 1016,9 hPa 0,0 mm 0,0 km/h (0 Bft) S 191 ° 0 min 0,000 mm 0,0 UV-I 0 W/m² 11,2 °C 12,6 °C 0,0 km/h (0 Bft)
21.08.2018 05:52 12,6 °C 91 % 1016,8 hPa 0,0 mm 0,0 km/h (0 Bft) S 191 ° 0 min 0,000 mm 0,0 UV-I 0 W/m² 11,2 °C 12,6 °C 0,0 km/h (0 Bft)
21.08.2018 05:53 12,6 °C 91 % 1016,9 hPa 0,0 mm 0,0 km/h (0 Bft) S 191 ° 0 min 0,000 mm 0,0 UV-I 0 W/m² 11,2 °C 12,6 °C 0,0 km/h (0 Bft)
21.08.2018 05:54 12,6 °C 91 % 1016,8 hPa 0,0 mm 0,0 km/h (0 Bft) S 191 ° 0 min 0,000 mm 0,0 UV-I 0 W/m² 11,2 °C 12,6 °C 0,0 km/h (0 Bft)
21.08.2018 05:55 12,6 °C 92 % 1016,8 hPa 0,0 mm 0,0 km/h (0 Bft) S 191 ° 0 min 0,000 mm 0,0 UV-I 0 W/m² 11,3 °C 12,6 °C 0,0 km/h (0 Bft)
21.08.2018 05:56 12,6 °C 92 % 1016,8 hPa 0,0 mm 0,0 km/h (0 Bft) S 191 ° 0 min 0,000 mm 0,0 UV-I 0 W/m² 11,3 °C 12,6 °C 0,0 km/h (0 Bft)
21.08.2018 05:57 12,6 °C 92 % 1016,8 hPa 0,0 mm 0,0 km/h (0 Bft) S 191 ° 0 min 0,000 mm 0,0 UV-I 0 W/m² 11,3 °C 12,6 °C 0,0 km/h (0 Bft)
21.08.2018 05:58 12,7 °C 92 % 1016,8 hPa 0,0 mm 0,0 km/h (0 Bft) S 191 ° 0 min 0,000 mm 0,0 UV-I 0 W/m² 11,4 °C 12,7 °C 0,0 km/h (0 Bft)
21.08.2018 05:59 12,7 °C 92 % 1016,8 hPa 0,0 mm 0,0 km/h (0 Bft) S 191 ° 0 min 0,000 mm 0,0 UV-I 0 W/m² 11,4 °C 12,7 °C 0,0 km/h (0 Bft)
21.08.2018 06:00 12,8 °C 92 % 1016,8 hPa 0,0 mm 0,0 km/h (0 Bft) S 191 ° 0 min 0,000 mm 0,0 UV-I 0 W/m² 11,5 °C 12,8 °C 0,0 km/h (0 Bft)
21.08.2018 06:01 12,8 °C 92 % 1016,8 hPa 0,0 mm 0,0 km/h (0 Bft) S 191 ° 0 min 0,000 mm 0,0 UV-I 0 W/m² 11,5 °C 12,8 °C 0,0 km/h (0 Bft)
21.08.2018 06:02 12,8 °C 92 % 1016,9 hPa 0,0 mm 0,0 km/h (0 Bft) S 191 ° 0 min 0,000 mm 0,0 UV-I 0 W/m² 11,5 °C 12,8 °C 0,0 km/h (0 Bft)
21.08.2018 06:03 12,8 °C 92 % 1016,8 hPa 0,0 mm 0,0 km/h (0 Bft) S 191 ° 0 min 0,000 mm 0,0 UV-I 0 W/m² 11,5 °C 12,8 °C 0,0 km/h (0 Bft)
21.08.2018 06:04 12,7 °C 92 % 1016,9 hPa 0,0 mm 0,0 km/h (0 Bft) S 191 ° 0 min 0,000 mm 0,0 UV-I 0 W/m² 11,4 °C 12,7 °C 0,0 km/h (0 Bft)
21.08.2018 06:05 12,7 °C 92 % 1016,9 hPa 0,0 mm 0,7 km/h (0 Bft) S 191 ° 0 min 0,000 mm 0,0 UV-I 0 W/m² 11,4 °C 12,7 °C 1,6 km/h (1 Bft)
21.08.2018 06:06 12,8 °C 92 % 1016,9 hPa 0,0 mm 1,7 km/h (1 Bft) S 191 ° 0 min 0,000 mm 0,0 UV-I 0 W/m² 11,5 °C 12,8 °C 3,2 km/h (1 Bft)
21.08.2018 06:07 12,8 °C 92 % 1016,8 hPa 0,0 mm 0,6 km/h (0 Bft) S 191 ° 0 min 0,000 mm 0,0 UV-I 0 W/m² 11,5 °C 12,8 °C 1,6 km/h (1 Bft)
21.08.2018 06:08 12,9 °C 92 % 1016,8 hPa 0,0 mm 0,0 km/h (0 Bft) S 191 ° 0 min 0,000 mm 0,0 UV-I 0 W/m² 11,6 °C 12,9 °C 0,0 km/h (0 Bft)
21.08.2018 06:09 12,9 °C 91 % 1016,8 hPa 0,0 mm 0,0 km/h (0 Bft) S 191 ° 0 min 0,000 mm 0,0 UV-I 0 W/m² 11,5 °C 12,9 °C 0,0 km/h (0 Bft)
21.08.2018 06:10 12,8 °C 91 % 1016,8 hPa 0,0 mm 0,0 km/h (0 Bft) S 191 ° 0 min 0,000 mm 0,0 UV-I 0 W/m² 11,4 °C 12,8 °C 0,0 km/h (0 Bft)
21.08.2018 06:11 12,8 °C 91 % 1016,8 hPa 0,0 mm 0,0 km/h (0 Bft) S 191 ° 0 min 0,000 mm 0,0 UV-I 0 W/m² 11,4 °C 12,8 °C 0,0 km/h (0 Bft)
21.08.2018 06:12 12,8 °C 91 % 1016,8 hPa 0,0 mm 0,0 km/h (0 Bft) S 191 ° 0 min 0,000 mm 0,0 UV-I 0 W/m² 11,4 °C 12,8 °C 0,0 km/h (0 Bft)
21.08.2018 06:13 12,8 °C 91 % 1016,8 hPa 0,0 mm 0,0 km/h (0 Bft) S 191 ° 0 min 0,000 mm 0,0 UV-I 0 W/m² 11,4 °C 12,8 °C 0,0 km/h (0 Bft)
21.08.2018 06:14 12,7 °C 91 % 1016,8 hPa 0,0 mm 0,0 km/h (0 Bft) S 191 ° 0 min 0,000 mm 0,0 UV-I 0 W/m² 11,3 °C 12,7 °C 0,0 km/h (0 Bft)
21.08.2018 06:15 12,8 °C 91 % 1016,8 hPa 0,0 mm 0,0 km/h (0 Bft) S 191 ° 0 min 0,000 mm 0,0 UV-I 0 W/m² 11,4 °C 12,8 °C 0,0 km/h (0 Bft)
21.08.2018 06:16 12,8 °C 92 % 1016,8 hPa 0,0 mm 0,0 km/h (0 Bft) S 191 ° 0 min 0,000 mm 0,0 UV-I 0 W/m² 11,5 °C 12,8 °C 0,0 km/h (0 Bft)
21.08.2018 06:17 12,8 °C 92 % 1016,8 hPa 0,0 mm 0,0 km/h (0 Bft) S 191 ° 0 min 0,000 mm 0,0 UV-I 0 W/m² 11,5 °C 12,8 °C 0,0 km/h (0 Bft)
21.08.2018 06:18 12,9 °C 92 % 1016,8 hPa 0,0 mm 0,0 km/h (0 Bft) S 191 ° 0 min 0,000 mm 0,0 UV-I 0 W/m² 11,6 °C 12,9 °C 0,0 km/h (0 Bft)
21.08.2018 06:19 12,9 °C 92 % 1016,8 hPa 0,0 mm 0,0 km/h (0 Bft) S 191 ° 0 min 0,000 mm 0,0 UV-I 0 W/m² 11,6 °C 12,9 °C 0,0 km/h (0 Bft)
21.08.2018 06:20 12,8 °C 91 % 1016,8 hPa 0,0 mm 0,0 km/h (0 Bft) S 191 ° 0 min 0,000 mm 0,0 UV-I 0 W/m² 11,4 °C 12,8 °C 0,0 km/h (0 Bft)
21.08.2018 06:21 12,8 °C 91 % 1016,8 hPa 0,0 mm 0,0 km/h (0 Bft) S 191 ° 0 min 0,000 mm 0,0 UV-I 0 W/m² 11,4 °C 12,8 °C 0,0 km/h (0 Bft)
21.08.2018 06:22 12,8 °C 91 % 1016,8 hPa 0,0 mm 0,0 km/h (0 Bft) S 191 ° 0 min 0,000 mm 0,0 UV-I 5 W/m² 11,4 °C 12,8 °C 0,0 km/h (0 Bft)
21.08.2018 06:23 12,8 °C 91 % 1016,8 hPa 0,0 mm 0,3 km/h (0 Bft) S 191 ° 0 min 0,000 mm 0,0 UV-I 5 W/m² 11,4 °C 12,8 °C 1,6 km/h (1 Bft)
21.08.2018 06:24 12,8 °C 91 % 1016,8 hPa 0,0 mm 0,7 km/h (0 Bft) S 191 ° 0 min 0,000 mm 0,0 UV-I 5 W/m² 11,4 °C 12,8 °C 1,6 km/h (1 Bft)
21.08.2018 06:25 12,8 °C 92 % 1016,8 hPa 0,0 mm 0,0 km/h (0 Bft) S 191 ° 0 min 0,000 mm 0,0 UV-I 5 W/m² 11,5 °C 12,8 °C 0,0 km/h (0 Bft)
21.08.2018 06:26 12,9 °C 92 % 1016,8 hPa 0,0 mm 0,0 km/h (0 Bft) S 191 ° 0 min 0,000 mm 0,0 UV-I 7 W/m² 11,6 °C 12,9 °C 0,0 km/h (0 Bft)
21.08.2018 06:27 12,9 °C 92 % 1016,9 hPa 0,0 mm 0,0 km/h (0 Bft) S 191 ° 0 min 0,000 mm 0,0 UV-I 7 W/m² 11,6 °C 12,9 °C 0,0 km/h (0 Bft)
21.08.2018 06:28 12,9 °C 91 % 1016,8 hPa 0,0 mm 0,0 km/h (0 Bft) S 191 ° 0 min 0,000 mm 0,0 UV-I 7 W/m² 11,5 °C 12,9 °C 0,0 km/h (0 Bft)
21.08.2018 06:29 13,0 °C 92 % 1016,9 hPa 0,0 mm 0,0 km/h (0 Bft) S 191 ° 0 min 0,000 mm 0,0 UV-I 9 W/m² 11,7 °C 13,0 °C 0,0 km/h (0 Bft)
21.08.2018 06:30 12,9 °C 91 % 1016,9 hPa 0,0 mm 0,0 km/h (0 Bft) S 191 ° 0 min 0,000 mm 0,0 UV-I 9 W/m² 11,5 °C 12,9 °C 0,0 km/h (0 Bft)
21.08.2018 06:31 12,9 °C 91 % 1016,8 hPa 0,0 mm 0,0 km/h (0 Bft) S 191 ° 0 min 0,000 mm 0,0 UV-I 9 W/m² 11,5 °C 12,9 °C 0,0 km/h (0 Bft)
21.08.2018 06:32 12,8 °C 91 % 1016,9 hPa 0,0 mm 0,0 km/h (0 Bft) S 191 ° 0 min 0,000 mm 0,0 UV-I 9 W/m² 11,4 °C 12,8 °C 0,0 km/h (0 Bft)
21.08.2018 06:33 12,9 °C 92 % 1016,9 hPa 0,0 mm 0,0 km/h (0 Bft) S 191 ° 0 min 0,000 mm 0,0 UV-I 11 W/m² 11,6 °C 12,9 °C 0,0 km/h (0 Bft)
21.08.2018 06:34 13,0 °C 92 % 1016,9 hPa 0,0 mm 0,0 km/h (0 Bft) S 191 ° 0 min 0,000 mm 0,0 UV-I 11 W/m² 11,7 °C 13,0 °C 0,0 km/h (0 Bft)
21.08.2018 06:35 13,1 °C 92 % 1017,0 hPa 0,0 mm 0,0 km/h (0 Bft) S 191 ° 0 min 0,000 mm 0,0 UV-I 12 W/m² 11,8 °C 13,1 °C 0,0 km/h (0 Bft)
21.08.2018 06:36 13,1 °C 91 % 1016,9 hPa 0,0 mm 0,0 km/h (0 Bft) S 191 ° 0 min 0,000 mm 0,0 UV-I 12 W/m² 11,7 °C 13,1 °C 0,0 km/h (0 Bft)
21.08.2018 06:37 12,9 °C 91 % 1017,0 hPa 0,0 mm 0,0 km/h (0 Bft) S 191 ° 0 min 0,000 mm 0,0 UV-I 12 W/m² 11,5 °C 12,9 °C 0,0 km/h (0 Bft)
21.08.2018 06:38 12,8 °C 91 % 1016,9 hPa 0,0 mm 0,0 km/h (0 Bft) S 191 ° 0 min 0,000 mm 0,0 UV-I 12 W/m² 11,4 °C 12,8 °C 0,0 km/h (0 Bft)
21.08.2018 06:39 12,8 °C 91 % 1016,9 hPa 0,0 mm 0,0 km/h (0 Bft) S 191 ° 0 min 0,000 mm 0,0 UV-I 14 W/m² 11,4 °C 12,8 °C 0,0 km/h (0 Bft)
21.08.2018 06:40 12,7 °C 91 % 1017,0 hPa 0,0 mm 0,0 km/h (0 Bft) S 191 ° 0 min 0,000 mm 0,0 UV-I 14 W/m² 11,3 °C 12,7 °C 0,0 km/h (0 Bft)
21.08.2018 06:41 12,7 °C 91 % 1016,9 hPa 0,0 mm 0,0 km/h (0 Bft) S 191 ° 0 min 0,000 mm 0,0 UV-I 16 W/m² 11,3 °C 12,7 °C 0,0 km/h (0 Bft)
21.08.2018 06:42 12,7 °C 91 % 1016,9 hPa 0,0 mm 0,0 km/h (0 Bft) S 191 ° 0 min 0,000 mm 0,0 UV-I 16 W/m² 11,3 °C 12,7 °C 0,0 km/h (0 Bft)
21.08.2018 06:43 12,7 °C 91 % 1016,8 hPa 0,0 mm 0,0 km/h (0 Bft) S 191 ° 0 min 0,000 mm 0,0 UV-I 16 W/m² 11,3 °C 12,7 °C 0,0 km/h (0 Bft)
21.08.2018 06:44 12,7 °C 91 % 1016,9 hPa 0,0 mm 0,0 km/h (0 Bft) S 191 ° 0 min 0,000 mm 0,0 UV-I 18 W/m² 11,3 °C 12,7 °C 0,0 km/h (0 Bft)
21.08.2018 06:45 12,7 °C 91 % 1016,9 hPa 0,0 mm 0,0 km/h (0 Bft) S 191 ° 0 min 0,000 mm 0,0 UV-I 18 W/m² 11,3 °C 12,7 °C 0,0 km/h (0 Bft)
21.08.2018 06:46 12,7 °C 92 % 1016,9 hPa 0,0 mm 0,0 km/h (0 Bft) S 191 ° 0 min 0,000 mm 0,0 UV-I 19 W/m² 11,4 °C 12,7 °C 0,0 km/h (0 Bft)
21.08.2018 06:47 12,8 °C 92 % 1016,9 hPa 0,0 mm 0,0 km/h (0 Bft) S 191 ° 0 min 0,000 mm 0,0 UV-I 19 W/m² 11,5 °C 12,8 °C 0,0 km/h (0 Bft)
21.08.2018 06:48 12,8 °C 92 % 1016,9 hPa 0,0 mm 0,0 km/h (0 Bft) S 191 ° 0 min 0,000 mm 0,0 UV-I 19 W/m² 11,5 °C 12,8 °C 0,0 km/h (0 Bft)
21.08.2018 06:49 12,7 °C 91 % 1016,9 hPa 0,0 mm 0,0 km/h (0 Bft) S 191 ° 0 min 0,000 mm 0,0 UV-I 21 W/m² 11,3 °C 12,7 °C 0,0 km/h (0 Bft)
21.08.2018 06:50 12,7 °C 91 % 1016,9 hPa 0,0 mm 0,0 km/h (0 Bft) S 191 ° 0 min 0,000 mm 0,0 UV-I 21 W/m² 11,3 °C 12,7 °C 0,0 km/h (0 Bft)
21.08.2018 06:51 12,6 °C 91 % 1016,9 hPa 0,0 mm 0,0 km/h (0 Bft) S 191 ° 0 min 0,000 mm 0,0 UV-I 23 W/m² 11,2 °C 12,6 °C 0,0 km/h (0 Bft)
21.08.2018 06:52 12,6 °C 91 % 1016,9 hPa 0,0 mm 0,0 km/h (0 Bft) S 191 ° 0 min 0,000 mm 0,0 UV-I 23 W/m² 11,2 °C 12,6 °C 0,0 km/h (0 Bft)
21.08.2018 06:53 12,5 °C 91 % 1016,9 hPa 0,0 mm 0,0 km/h (0 Bft) S 191 ° 0 min 0,000 mm 0,0 UV-I 23 W/m² 11,1 °C 12,5 °C 0,0 km/h (0 Bft)
21.08.2018 06:54 12,5 °C 91 % 1016,8 hPa 0,0 mm 0,0 km/h (0 Bft) S 191 ° 0 min 0,000 mm 0,0 UV-I 25 W/m² 11,1 °C 12,5 °C 0,0 km/h (0 Bft)
21.08.2018 06:55 12,5 °C 91 % 1016,9 hPa 0,0 mm 0,0 km/h (0 Bft) S 191 ° 0 min 0,000 mm 0,0 UV-I 25 W/m² 11,1 °C 12,5 °C 0,0 km/h (0 Bft)
21.08.2018 06:56 12,6 °C 92 % 1016,9 hPa 0,0 mm 0,0 km/h (0 Bft) S 191 ° 0 min 0,000 mm 0,0 UV-I 25 W/m² 11,3 °C 12,6 °C 0,0 km/h (0 Bft)
21.08.2018 06:57 12,6 °C 92 % 1016,9 hPa 0,0 mm 0,0 km/h (0 Bft) S 191 ° 0 min 0,000 mm 0,0 UV-I 26 W/m² 11,3 °C 12,6 °C 0,0 km/h (0 Bft)
21.08.2018 06:58 12,7 °C 92 % 1016,9 hPa 0,0 mm 0,0 km/h (0 Bft) S 191 ° 0 min 0,000 mm 0,0 UV-I 26 W/m² 11,4 °C 12,7 °C 0,0 km/h (0 Bft)
21.08.2018 06:59 12,7 °C 92 % 1016,9 hPa 0,0 mm 0,0 km/h (0 Bft) S 191 ° 0 min 0,000 mm 0,0 UV-I 26 W/m² 11,4 °C 12,7 °C 0,0 km/h (0 Bft)
21.08.2018 07:00 12,8 °C 92 % 1016,9 hPa 0,0 mm 0,0 km/h (0 Bft) S 191 ° 0 min 0,000 mm 0,0 UV-I 26 W/m² 11,5 °C 12,8 °C 0,0 km/h (0 Bft)
21.08.2018 07:01 12,8 °C 92 % 1016,9 hPa 0,0 mm 0,0 km/h (0 Bft) S 191 ° 0 min 0,000 mm 0,0 UV-I 28 W/m² 11,5 °C 12,8 °C 0,0 km/h (0 Bft)
21.08.2018 07:02 12,8 °C 92 % 1016,9 hPa 0,0 mm 0,0 km/h (0 Bft) S 191 ° 0 min 0,000 mm 0,0 UV-I 28 W/m² 11,5 °C 12,8 °C 0,0 km/h (0 Bft)
21.08.2018 07:03 12,8 °C 92 % 1016,9 hPa 0,0 mm 0,0 km/h (0 Bft) S 191 ° 0 min 0,000 mm 0,0 UV-I 30 W/m² 11,5 °C 12,8 °C 0,0 km/h (0 Bft)
21.08.2018 07:04 12,8 °C 92 % 1016,9 hPa 0,0 mm 0,0 km/h (0 Bft) S 191 ° 0 min 0,000 mm 0,0 UV-I 30 W/m² 11,5 °C 12,8 °C 0,0 km/h (0 Bft)
21.08.2018 07:05 12,8 °C 92 % 1017,0 hPa 0,0 mm 0,0 km/h (0 Bft) S 191 ° 0 min 0,000 mm 0,0 UV-I 30 W/m² 11,5 °C 12,8 °C 0,0 km/h (0 Bft)
21.08.2018 07:06 12,8 °C 92 % 1017,0 hPa 0,0 mm 0,0 km/h (0 Bft) S 191 ° 0 min 0,000 mm 0,0 UV-I 30 W/m² 11,5 °C 12,8 °C 0,0 km/h (0 Bft)
21.08.2018 07:07 12,8 °C 92 % 1016,9 hPa 0,0 mm 0,0 km/h (0 Bft) S 191 ° 0 min 0,000 mm 0,0 UV-I 32 W/m² 11,5 °C 12,8 °C 0,0 km/h (0 Bft)
21.08.2018 07:08 12,9 °C 92 % 1016,9 hPa 0,0 mm 0,0 km/h (0 Bft) S 191 ° 0 min 0,000 mm 0,0 UV-I 32 W/m² 11,6 °C 12,9 °C 0,0 km/h (0 Bft)
21.08.2018 07:09 12,9 °C 92 % 1017,0 hPa 0,0 mm 0,0 km/h (0 Bft) S 191 ° 0 min 0,000 mm 0,0 UV-I 33 W/m² 11,6 °C 12,9 °C 0,0 km/h (0 Bft)
21.08.2018 07:10 12,9 °C 92 % 1017,0 hPa 0,0 mm 0,0 km/h (0 Bft) S 191 ° 0 min 0,000 mm 0,0 UV-I 33 W/m² 11,6 °C 12,9 °C 0,0 km/h (0 Bft)
21.08.2018 07:11 12,9 °C 91 % 1017,0 hPa 0,0 mm 0,0 km/h (0 Bft) S 191 ° 0 min 0,000 mm 0,0 UV-I 33 W/m² 11,5 °C 12,9 °C 0,0 km/h (0 Bft)
21.08.2018 07:12 13,0 °C 91 % 1017,0 hPa 0,0 mm 0,0 km/h (0 Bft) S 191 ° 0 min 0,000 mm 0,0 UV-I 33 W/m² 11,6 °C 13,0 °C 0,0 km/h (0 Bft)
21.08.2018 07:13 13,1 °C 91 % 1017,0 hPa 0,0 mm 0,0 km/h (0 Bft) S 191 ° 0 min 0,000 mm 0,0 UV-I 35 W/m² 11,7 °C 13,1 °C 0,0 km/h (0 Bft)
21.08.2018 07:14 13,1 °C 91 % 1017,0 hPa 0,0 mm 0,0 km/h (0 Bft) S 191 ° 0 min 0,000 mm 0,0 UV-I 35 W/m² 11,7 °C 13,1 °C 0,0 km/h (0 Bft)
21.08.2018 07:15 13,1 °C 91 % 1017,0 hPa 0,0 mm 0,0 km/h (0 Bft) S 191 ° 0 min 0,000 mm 0,0 UV-I 37 W/m² 11,7 °C 13,1 °C 0,0 km/h (0 Bft)
21.08.2018 07:16 13,1 °C 91 % 1017,0 hPa 0,0 mm 0,0 km/h (0 Bft) S 191 ° 0 min 0,000 mm 0,0 UV-I 37 W/m² 11,7 °C 13,1 °C 0,0 km/h (0 Bft)
21.08.2018 07:17 13,1 °C 91 % 1017,0 hPa 0,0 mm 0,0 km/h (0 Bft) S 191 ° 0 min 0,000 mm 0,0 UV-I 37 W/m² 11,7 °C 13,1 °C 0,0 km/h (0 Bft)
21.08.2018 07:18 13,2 °C 91 % 1017,0 hPa 0,0 mm 0,0 km/h (0 Bft) S 191 ° 0 min 0,000 mm 0,0 UV-I 39 W/m² 11,8 °C 13,2 °C 0,0 km/h (0 Bft)
21.08.2018 07:19 13,2 °C 91 % 1017,0 hPa 0,0 mm 0,0 km/h (0 Bft) S 191 ° 0 min 0,000 mm 0,0 UV-I 39 W/m² 11,8 °C 13,2 °C 0,0 km/h (0 Bft)
21.08.2018 07:20 13,2 °C 91 % 1017,0 hPa 0,0 mm 0,0 km/h (0 Bft) S 191 ° 0 min 0,000 mm 0,0 UV-I 39 W/m² 11,8 °C 13,2 °C 0,0 km/h (0 Bft)
21.08.2018 07:21 13,3 °C 91 % 1017,0 hPa 0,0 mm 0,0 km/h (0 Bft) S 191 ° 0 min 0,000 mm 0,0 UV-I 40 W/m² 11,9 °C 13,3 °C 0,0 km/h (0 Bft)
21.08.2018 07:22 13,3 °C 91 % 1017,0 hPa 0,0 mm 0,0 km/h (0 Bft) S 191 ° 0 min 0,000 mm 0,0 UV-I 40 W/m² 11,9 °C 13,3 °C 0,0 km/h (0 Bft)
21.08.2018 07:23 13,4 °C 91 % 1017,0 hPa 0,0 mm 0,0 km/h (0 Bft) S 191 ° 0 min 0,000 mm 0,0 UV-I 42 W/m² 12,0 °C 13,4 °C 0,0 km/h (0 Bft)
21.08.2018 07:24 13,4 °C 91 % 1017,0 hPa 0,0 mm 0,0 km/h (0 Bft) S 191 ° 0 min 0,000 mm 0,0 UV-I 42 W/m² 12,0 °C 13,4 °C 0,0 km/h (0 Bft)
21.08.2018 07:25 13,4 °C 91 % 1017,0 hPa 0,0 mm 0,0 km/h (0 Bft) S 191 ° 0 min 0,000 mm 0,0 UV-I 42 W/m² 12,0 °C 13,4 °C 0,0 km/h (0 Bft)
21.08.2018 07:26 13,4 °C 90 % 1017,0 hPa 0,0 mm 0,0 km/h (0 Bft) S 191 ° 0 min 0,000 mm 0,0 UV-I 44 W/m² 11,8 °C 13,4 °C 0,0 km/h (0 Bft)
21.08.2018 07:27 13,4 °C 90 % 1017,0 hPa 0,0 mm 0,0 km/h (0 Bft) S 191 ° 0 min 0,000 mm 0,0 UV-I 44 W/m² 11,8 °C 13,4 °C 0,0 km/h (0 Bft)
21.08.2018 07:28 13,4 °C 90 % 1017,0 hPa 0,0 mm 0,0 km/h (0 Bft) S 191 ° 0 min 0,000 mm 0,0 UV-I 44 W/m² 11,8 °C 13,4 °C 0,0 km/h (0 Bft)
21.08.2018 07:29 13,4 °C 90 % 1017,0 hPa 0,0 mm 0,0 km/h (0 Bft) S 191 ° 0 min 0,000 mm 0,0 UV-I 46 W/m² 11,8 °C 13,4 °C 0,0 km/h (0 Bft)
21.08.2018 07:30 13,4 °C 90 % 1017,0 hPa 0,0 mm 0,0 km/h (0 Bft) S 191 ° 0 min 0,000 mm 0,0 UV-I 46 W/m² 11,8 °C 13,4 °C 0,0 km/h (0 Bft)
21.08.2018 07:31 13,4 °C 90 % 1017,0 hPa 0,0 mm 0,0 km/h (0 Bft) S 191 ° 0 min 0,000 mm 0,0 UV-I 46 W/m² 11,8 °C 13,4 °C 0,0 km/h (0 Bft)
21.08.2018 07:32 13,4 °C 90 % 1017,0 hPa 0,0 mm 0,0 km/h (0 Bft) S 191 ° 0 min 0,000 mm 0,0 UV-I 47 W/m² 11,8 °C 13,4 °C 0,0 km/h (0 Bft)
21.08.2018 07:33 13,4 °C 90 % 1017,0 hPa 0,0 mm 0,0 km/h (0 Bft) S 191 ° 0 min 0,000 mm 0,0 UV-I 47 W/m² 11,8 °C 13,4 °C 0,0 km/h (0 Bft)
21.08.2018 07:34 13,5 °C 91 % 1017,0 hPa 0,0 mm 0,0 km/h (0 Bft) S 191 ° 0 min 0,000 mm 0,0 UV-I 49 W/m² 12,1 °C 13,5 °C 0,0 km/h (0 Bft)
21.08.2018 07:35 13,5 °C 91 % 1017,0 hPa 0,0 mm 0,0 km/h (0 Bft) S 191 ° 0 min 0,000 mm 0,0 UV-I 49 W/m² 12,1 °C 13,5 °C 0,0 km/h (0 Bft)
21.08.2018 07:36 13,6 °C 90 % 1017,0 hPa 0,0 mm 0,0 km/h (0 Bft) S 191 ° 0 min 0,000 mm 0,0 UV-I 49 W/m² 12,0 °C 13,6 °C 0,0 km/h (0 Bft)
21.08.2018 07:37 13,6 °C 91 % 1017,0 hPa 0,0 mm 0,0 km/h (0 Bft) S 191 ° 0 min 0,000 mm 0,0 UV-I 51 W/m² 12,2 °C 13,6 °C 0,0 km/h (0 Bft)
21.08.2018 07:38 13,6 °C 91 % 1017,0 hPa 0,0 mm 0,0 km/h (0 Bft) S 191 ° 0 min 0,000 mm 0,0 UV-I 54 W/m² 12,2 °C 13,6 °C 0,0 km/h (0 Bft)
21.08.2018 07:39 13,7 °C 90 % 1017,0 hPa 0,0 mm 0,0 km/h (0 Bft) S 191 ° 0 min 0,000 mm 0,0 UV-I 54 W/m² 12,1 °C 13,7 °C 0,0 km/h (0 Bft)
21.08.2018 07:40 13,7 °C 90 % 1017,0 hPa 0,0 mm 0,0 km/h (0 Bft) S 191 ° 0 min 0,000 mm 0,0 UV-I 53 W/m² 12,1 °C 13,7 °C 0,0 km/h (0 Bft)
21.08.2018 07:41 13,8 °C 90 % 1017,0 hPa 0,0 mm 0,0 km/h (0 Bft) S 191 ° 0 min 0,000 mm 0,0 UV-I 53 W/m² 12,2 °C 13,8 °C 0,0 km/h (0 Bft)
21.08.2018 07:42 13,8 °C 90 % 1017,0 hPa 0,0 mm 0,0 km/h (0 Bft) S 191 ° 0 min 0,000 mm 0,0 UV-I 53 W/m² 12,2 °C 13,8 °C 0,0 km/h (0 Bft)
21.08.2018 07:43 13,9 °C 90 % 1017,0 hPa 0,0 mm 0,0 km/h (0 Bft) S 191 ° 0 min 0,000 mm 0,0 UV-I 53 W/m² 12,3 °C 13,9 °C 0,0 km/h (0 Bft)
21.08.2018 07:44 13,9 °C 90 % 1017,0 hPa 0,0 mm 0,0 km/h (0 Bft) S 191 ° 0 min 0,000 mm 0,0 UV-I 54 W/m² 12,3 °C 13,9 °C 0,0 km/h (0 Bft)
21.08.2018 07:45 14,0 °C 90 % 1017,0 hPa 0,0 mm 0,0 km/h (0 Bft) S 191 ° 0 min 0,000 mm 0,5 UV-I 62 W/m² 12,4 °C 14,0 °C 0,0 km/h (0 Bft)
21.08.2018 07:46 14,0 °C 90 % 1017,0 hPa 0,0 mm 0,0 km/h (0 Bft) S 191 ° 0 min 0,000 mm 0,6 UV-I 81 W/m² 12,4 °C 14,0 °C 0,0 km/h (0 Bft)
21.08.2018 07:47 14,0 °C 90 % 1017,0 hPa 0,0 mm 0,0 km/h (0 Bft) S 191 ° 0 min 0,000 mm 0,6 UV-I 114 W/m² 12,4 °C 14,0 °C 0,0 km/h (0 Bft)
21.08.2018 07:48 14,0 °C 90 % 1017,0 hPa 0,0 mm 0,0 km/h (0 Bft) S 191 ° 0 min 0,000 mm 0,6 UV-I 135 W/m² 12,4 °C 14,0 °C 0,0 km/h (0 Bft)
21.08.2018 07:49 14,1 °C 90 % 1017,0 hPa 0,0 mm 0,0 km/h (0 Bft) S 191 ° 0 min 0,000 mm 0,6 UV-I 139 W/m² 12,5 °C 14,1 °C 0,0 km/h (0 Bft)
21.08.2018 07:50 14,2 °C 89 % 1017,0 hPa 0,0 mm 0,0 km/h (0 Bft) S 191 ° 0 min 0,000 mm 0,6 UV-I 144 W/m² 12,4 °C 14,2 °C 0,0 km/h (0 Bft)
21.08.2018 07:51 14,2 °C 89 % 1017,0 hPa 0,0 mm 0,0 km/h (0 Bft) S 191 ° 0 min 0,000 mm 0,6 UV-I 146 W/m² 12,4 °C 14,2 °C 0,0 km/h (0 Bft)
21.08.2018 07:52 14,3 °C 89 % 1017,0 hPa 0,0 mm 0,0 km/h (0 Bft) S 191 ° 0 min 0,000 mm 0,6 UV-I 148 W/m² 12,5 °C 14,3 °C 0,0 km/h (0 Bft)
21.08.2018 07:53 14,3 °C 89 % 1017,0 hPa 0,0 mm 0,0 km/h (0 Bft) S 191 ° 0 min 0,000 mm 0,6 UV-I 151 W/m² 12,5 °C 14,3 °C 0,0 km/h (0 Bft)
21.08.2018 07:54 14,4 °C 89 % 1017,0 hPa 0,0 mm 0,0 km/h (0 Bft) S 191 ° 0 min 0,000 mm 0,6 UV-I 153 W/m² 12,6 °C 14,4 °C 0,0 km/h (0 Bft)
21.08.2018 07:55 14,4 °C 89 % 1017,0 hPa 0,0 mm 0,0 km/h (0 Bft) S 191 ° 0 min 0,000 mm 0,7 UV-I 155 W/m² 12,6 °C 14,4 °C 0,0 km/h (0 Bft)
21.08.2018 07:56 14,6 °C 89 % 1017,0 hPa 0,0 mm 0,0 km/h (0 Bft) S 191 ° 0 min 0,000 mm 0,7 UV-I 160 W/m² 12,8 °C 14,6 °C 0,0 km/h (0 Bft)
21.08.2018 07:57 14,7 °C 90 % 1017,0 hPa 0,0 mm 0,0 km/h (0 Bft) S 191 ° 0 min 0,000 mm 0,7 UV-I 162 W/m² 13,1 °C 14,7 °C 0,0 km/h (0 Bft)
21.08.2018 07:58 14,8 °C 89 % 1017,0 hPa 0,0 mm 0,0 km/h (0 Bft) S 191 ° 0 min 0,000 mm 0,7 UV-I 165 W/m² 13,0 °C 14,8 °C 0,0 km/h (0 Bft)
21.08.2018 07:59 14,9 °C 89 % 1017,0 hPa 0,0 mm 0,0 km/h (0 Bft) S 191 ° 0 min 0,000 mm 0,7 UV-I 167 W/m² 13,1 °C 14,9 °C 0,0 km/h (0 Bft)
21.08.2018 08:00 15,1 °C 89 % 1017,0 hPa 0,0 mm 0,0 km/h (0 Bft) S 191 ° 0 min 0,000 mm 0,7 UV-I 171 W/m² 13,3 °C 15,1 °C 0,0 km/h (0 Bft)
21.08.2018 08:01 15,2 °C 90 % 1017,0 hPa 0,0 mm 0,0 km/h (0 Bft) S 191 ° 0 min 0,025 mm 0,7 UV-I 172 W/m² 13,6 °C 15,2 °C 0,0 km/h (0 Bft)
21.08.2018 08:02 15,3 °C 89 % 1017,0 hPa 0,0 mm 0,0 km/h (0 Bft) S 191 ° 0 min 0,000 mm 0,8 UV-I 178 W/m² 13,5 °C 15,3 °C 0,0 km/h (0 Bft)
21.08.2018 08:03 15,3 °C 89 % 1017,0 hPa 0,0 mm 0,0 km/h (0 Bft) S 191 ° 0 min 0,000 mm 0,8 UV-I 179 W/m² 13,5 °C 15,3 °C 0,0 km/h (0 Bft)
21.08.2018 08:04 15,3 °C 90 % 1017,0 hPa 0,0 mm 0,0 km/h (0 Bft) S 191 ° 0 min 0,000 mm 0,8 UV-I 183 W/m² 13,7 °C 15,3 °C 0,0 km/h (0 Bft)
21.08.2018 08:05 15,3 °C 89 % 1017,0 hPa 0,0 mm 0,0 km/h (0 Bft) S 191 ° 0 min 0,000 mm 0,8 UV-I 186 W/m² 13,5 °C 15,3 °C 0,0 km/h (0 Bft)
21.08.2018 08:06 15,2 °C 90 % 1017,0 hPa 0,0 mm 0,0 km/h (0 Bft) S 191 ° 0 min 0,000 mm 0,8 UV-I 188 W/m² 13,6 °C 15,2 °C 0,0 km/h (0 Bft)
21.08.2018 08:07 15,2 °C 89 % 1017,0 hPa 0,0 mm 0,0 km/h (0 Bft) S 191 ° 0 min 0,000 mm 0,8 UV-I 193 W/m² 13,4 °C 15,2 °C 0,0 km/h (0 Bft)
21.08.2018 08:08 15,2 °C 89 % 1017,1 hPa 0,0 mm 0,0 km/h (0 Bft) S 191 ° 0 min 0,000 mm 0,8 UV-I 197 W/m² 13,4 °C 15,2 °C 0,0 km/h (0 Bft)
21.08.2018 08:09 15,2 °C 89 % 1017,0 hPa 0,0 mm 0,0 km/h (0 Bft) S 191 ° 0 min 0,000 mm 0,9 UV-I 200 W/m² 13,4 °C 15,2 °C 0,0 km/h (0 Bft)
21.08.2018 08:10 15,2 °C 89 % 1017,1 hPa 0,0 mm 0,0 km/h (0 Bft) S 191 ° 0 min 0,000 mm 0,9 UV-I 204 W/m² 13,4 °C 15,2 °C 0,0 km/h (0 Bft)
21.08.2018 08:11 15,3 °C 89 % 1017,1 hPa 0,0 mm 0,0 km/h (0 Bft) S 191 ° 0 min 0,000 mm 0,9 UV-I 206 W/m² 13,5 °C 15,3 °C 0,0 km/h (0 Bft)
21.08.2018 08:12 15,3 °C 89 % 1017,1 hPa 0,0 mm 0,0 km/h (0 Bft) S 191 ° 0 min 0,000 mm 0,9 UV-I 209 W/m² 13,5 °C 15,3 °C 0,0 km/h (0 Bft)
21.08.2018 08:13 15,4 °C 88 % 1017,0 hPa 0,0 mm 0,0 km/h (0 Bft) S 191 ° 0 min 0,000 mm 0,9 UV-I 214 W/m² 13,4 °C 15,4 °C 0,0 km/h (0 Bft)
21.08.2018 08:14 15,6 °C 88 % 1017,1 hPa 0,0 mm 0,0 km/h (0 Bft) S 191 ° 0 min 0,000 mm 1,0 UV-I 218 W/m² 13,6 °C 15,6 °C 0,0 km/h (0 Bft)
21.08.2018 08:15 15,6 °C 88 % 1017,0 hPa 0,0 mm 0,0 km/h (0 Bft) S 191 ° 0 min 0,000 mm 1,0 UV-I 221 W/m² 13,6 °C 15,6 °C 0,0 km/h (0 Bft)
21.08.2018 08:16 15,7 °C 88 % 1017,1 hPa 0,0 mm 0,0 km/h (0 Bft) S 191 ° 0 min 0,000 mm 1,0 UV-I 225 W/m² 13,7 °C 15,7 °C 0,0 km/h (0 Bft)
21.08.2018 08:17 15,8 °C 88 % 1017,1 hPa 0,0 mm 0,0 km/h (0 Bft) S 191 ° 0 min 0,000 mm 1,0 UV-I 225 W/m² 13,8 °C 15,8 °C 0,0 km/h (0 Bft)
21.08.2018 08:18 15,8 °C 88 % 1017,0 hPa 0,0 mm 0,0 km/h (0 Bft) S 191 ° 0 min 0,000 mm 1,1 UV-I 230 W/m² 13,8 °C 15,8 °C 0,0 km/h (0 Bft)
21.08.2018 08:19 15,8 °C 87 % 1017,0 hPa 0,0 mm 0,0 km/h (0 Bft) S 191 ° 0 min 0,000 mm 1,1 UV-I 236 W/m² 13,6 °C 15,8 °C 0,0 km/h (0 Bft)
21.08.2018 08:20 15,9 °C 88 % 1017,1 hPa 0,0 mm 0,0 km/h (0 Bft) S 191 ° 0 min 0,000 mm 1,1 UV-I 237 W/m² 13,9 °C 15,9 °C 0,0 km/h (0 Bft)
21.08.2018 08:21 15,9 °C 88 % 1017,1 hPa 0,0 mm 0,0 km/h (0 Bft) S 191 ° 0 min 0,000 mm 1,1 UV-I 241 W/m² 13,9 °C 15,9 °C 0,0 km/h (0 Bft)
21.08.2018 08:22 16,1 °C 87 % 1017,1 hPa 0,0 mm 0,0 km/h (0 Bft) S 191 ° 0 min 0,000 mm 1,1 UV-I 243 W/m² 13,9 °C 16,1 °C 0,0 km/h (0 Bft)
21.08.2018 08:23 16,2 °C 87 % 1017,1 hPa 0,0 mm 0,0 km/h (0 Bft) S 191 ° 0 min 0,000 mm 1,1 UV-I 243 W/m² 14,0 °C 16,2 °C 0,0 km/h (0 Bft)
21.08.2018 08:24 16,2 °C 87 % 1017,2 hPa 0,0 mm 0,0 km/h (0 Bft) S 191 ° 0 min 0,000 mm 1,2 UV-I 248 W/m² 14,0 °C 16,2 °C 0,0 km/h (0 Bft)
21.08.2018 08:25 16,3 °C 86 % 1017,1 hPa 0,0 mm 0,0 km/h (0 Bft) S 191 ° 0 min 0,000 mm 1,2 UV-I 251 W/m² 14,0 °C 16,3 °C 0,0 km/h (0 Bft)
21.08.2018 08:26 16,3 °C 87 % 1017,1 hPa 0,0 mm 0,0 km/h (0 Bft) S 191 ° 0 min 0,000 mm 1,2 UV-I 253 W/m² 14,1 °C 16,3 °C 0,0 km/h (0 Bft)
21.08.2018 08:27 16,4 °C 86 % 1017,1 hPa 0,0 mm 0,0 km/h (0 Bft) S 191 ° 0 min 0,000 mm 1,2 UV-I 255 W/m² 14,1 °C 16,4 °C 0,0 km/h (0 Bft)
21.08.2018 08:28 16,4 °C 86 % 1017,1 hPa 0,0 mm 0,0 km/h (0 Bft) S 191 ° 0 min 0,000 mm 1,2 UV-I 258 W/m² 14,1 °C 16,4 °C 0,0 km/h (0 Bft)
21.08.2018 08:29 16,4 °C 85 % 1017,1 hPa 0,0 mm 0,0 km/h (0 Bft) S 191 ° 0 min 0,000 mm 1,2 UV-I 260 W/m² 13,9 °C 16,4 °C 0,0 km/h (0 Bft)
21.08.2018 08:30 16,4 °C 85 % 1017,0 hPa 0,0 mm 0,0 km/h (0 Bft) S 191 ° 0 min 0,000 mm 1,3 UV-I 262 W/m² 13,9 °C 16,4 °C 0,0 km/h (0 Bft)
21.08.2018 08:31 16,4 °C 85 % 1017,0 hPa 0,0 mm 0,0 km/h (0 Bft) S 191 ° 0 min 0,000 mm 1,3 UV-I 267 W/m² 13,9 °C 16,4 °C 0,0 km/h (0 Bft)
21.08.2018 08:32 16,4 °C 86 % 1017,0 hPa 0,0 mm 0,0 km/h (0 Bft) S 191 ° 0 min 0,000 mm 1,3 UV-I 271 W/m² 14,1 °C 16,4 °C 0,0 km/h (0 Bft)
21.08.2018 08:33 16,4 °C 86 % 1017,0 hPa 0,0 mm 0,0 km/h (0 Bft) S 191 ° 0 min 0,000 mm 1,3 UV-I 272 W/m² 14,1 °C 16,4 °C 0,0 km/h (0 Bft)
21.08.2018 08:34 16,4 °C 86 % 1017,0 hPa 0,0 mm 0,0 km/h (0 Bft) S 191 ° 0 min 0,000 mm 1,3 UV-I 274 W/m² 14,1 °C 16,4 °C 0,0 km/h (0 Bft)
21.08.2018 08:35 16,4 °C 86 % 1017,0 hPa 0,0 mm 0,0 km/h (0 Bft) S 191 ° 0 min 0,000 mm 1,3 UV-I 278 W/m² 14,1 °C 16,4 °C 0,0 km/h (0 Bft)
21.08.2018 08:36 16,5 °C 86 % 1017,0 hPa 0,0 mm 0,0 km/h (0 Bft) S 191 ° 0 min 0,000 mm 1,3 UV-I 279 W/m² 14,1 °C 16,5 °C 0,0 km/h (0 Bft)
21.08.2018 08:37 16,5 °C 85 % 1017,0 hPa 0,0 mm 0,0 km/h (0 Bft) S 191 ° 0 min 0,000 mm 1,4 UV-I 285 W/m² 14,0 °C 16,5 °C 0,0 km/h (0 Bft)
21.08.2018 08:38 16,6 °C 85 % 1017,0 hPa 0,0 mm 0,0 km/h (0 Bft) S 191 ° 0 min 0,000 mm 1,4 UV-I 288 W/m² 14,1 °C 16,6 °C 0,0 km/h (0 Bft)
21.08.2018 08:39 16,7 °C 86 % 1017,0 hPa 0,0 mm 0,0 km/h (0 Bft) S 191 ° 0 min 0,000 mm 1,4 UV-I 290 W/m² 14,3 °C 16,7 °C 0,0 km/h (0 Bft)
21.08.2018 08:40 16,7 °C 86 % 1017,0 hPa 0,0 mm 0,0 km/h (0 Bft) S 191 ° 0 min 0,000 mm 1,4 UV-I 292 W/m² 14,3 °C 16,7 °C 0,0 km/h (0 Bft)
21.08.2018 08:41 16,8 °C 86 % 1017,0 hPa 0,0 mm 0,0 km/h (0 Bft) S 191 ° 0 min 0,000 mm 1,4 UV-I 295 W/m² 14,4 °C 16,8 °C 0,0 km/h (0 Bft)
21.08.2018 08:42 16,9 °C 86 % 1017,0 hPa 0,0 mm 0,0 km/h (0 Bft) S 191 ° 0 min 0,000 mm 1,4 UV-I 297 W/m² 14,5 °C 16,9 °C 0,0 km/h (0 Bft)
21.08.2018 08:43 16,9 °C 85 % 1016,9 hPa 0,0 mm 0,0 km/h (0 Bft) S 191 ° 0 min 0,000 mm 1,5 UV-I 302 W/m² 14,4 °C 16,9 °C 0,0 km/h (0 Bft)
21.08.2018 08:44 16,9 °C 85 % 1016,9 hPa 0,0 mm 0,0 km/h (0 Bft) S 191 ° 0 min 0,000 mm 1,5 UV-I 308 W/m² 14,4 °C 16,9 °C 0,0 km/h (0 Bft)
21.08.2018 08:45 17,0 °C 85 % 1016,9 hPa 0,0 mm 0,0 km/h (0 Bft) S 191 ° 0 min 0,000 mm 1,5 UV-I 309 W/m² 14,5 °C 17,0 °C 0,0 km/h (0 Bft)
21.08.2018 08:46 17,0 °C 85 % 1016,9 hPa 0,0 mm 0,0 km/h (0 Bft) S 191 ° 0 min 0,000 mm 1,5 UV-I 311 W/m² 14,5 °C 17,0 °C 0,0 km/h (0 Bft)
21.08.2018 08:47 17,1 °C 84 % 1016,9 hPa 0,0 mm 0,0 km/h (0 Bft) S 191 ° 0 min 0,000 mm 1,6 UV-I 315 W/m² 14,4 °C 17,1 °C 0,0 km/h (0 Bft)
21.08.2018 08:48 17,1 °C 84 % 1016,9 hPa 0,0 mm 0,0 km/h (0 Bft) S 191 ° 0 min 0,000 mm 1,6 UV-I 316 W/m² 14,4 °C 17,1 °C 0,0 km/h (0 Bft)
21.08.2018 08:49 17,2 °C 85 % 1016,9 hPa 0,0 mm 0,0 km/h (0 Bft) S 191 ° 0 min 0,000 mm 1,6 UV-I 322 W/m² 14,7 °C 17,2 °C 0,0 km/h (0 Bft)
21.08.2018 08:50 17,3 °C 85 % 1016,9 hPa 0,0 mm 0,0 km/h (0 Bft) S 191 ° 0 min 0,000 mm 1,6 UV-I 325 W/m² 14,8 °C 17,3 °C 0,0 km/h (0 Bft)
21.08.2018 08:51 17,4 °C 85 % 1016,9 hPa 0,0 mm 0,0 km/h (0 Bft) S 191 ° 0 min 0,000 mm 1,6 UV-I 327 W/m² 14,8 °C 17,4 °C 0,0 km/h (0 Bft)
21.08.2018 08:52 17,6 °C 84 % 1016,9 hPa 0,0 mm 0,0 km/h (0 Bft) S 191 ° 0 min 0,000 mm 1,7 UV-I 330 W/m² 14,9 °C 17,6 °C 0,0 km/h (0 Bft)
21.08.2018 08:53 17,6 °C 84 % 1016,9 hPa 0,0 mm 0,0 km/h (0 Bft) S 191 ° 0 min 0,000 mm 1,7 UV-I 334 W/m² 14,9 °C 17,6 °C 0,0 km/h (0 Bft)
21.08.2018 08:54 17,7 °C 83 % 1016,9 hPa 0,0 mm 0,0 km/h (0 Bft) S 191 ° 0 min 0,000 mm 1,7 UV-I 339 W/m² 14,8 °C 17,7 °C 0,0 km/h (0 Bft)
21.08.2018 08:55 17,8 °C 84 % 1016,9 hPa 0,0 mm 0,0 km/h (0 Bft) S 191 ° 0 min 0,000 mm 1,7 UV-I 341 W/m² 15,1 °C 17,8 °C 0,0 km/h (0 Bft)
21.08.2018 08:56 17,9 °C 85 % 1016,9 hPa 0,0 mm 0,0 km/h (0 Bft) S 191 ° 0 min 0,000 mm 1,7 UV-I 345 W/m² 15,3 °C 17,9 °C 0,0 km/h (0 Bft)
21.08.2018 08:57 18,1 °C 83 % 1016,9 hPa 0,0 mm 0,0 km/h (0 Bft) S 191 ° 0 min 0,000 mm 1,8 UV-I 346 W/m² 15,2 °C 18,1 °C 0,0 km/h (0 Bft)
21.08.2018 08:58 18,1 °C 81 % 1016,9 hPa 0,0 mm 0,0 km/h (0 Bft) S 191 ° 0 min 0,000 mm 1,8 UV-I 350 W/m² 14,8 °C 18,1 °C 0,0 km/h (0 Bft)
21.08.2018 08:59 18,1 °C 81 % 1016,9 hPa 0,0 mm 0,0 km/h (0 Bft) S 191 ° 0 min 0,000 mm 1,8 UV-I 352 W/m² 14,8 °C 18,1 °C 0,0 km/h (0 Bft)
21.08.2018 09:00 18,1 °C 81 % 1016,9 hPa 0,0 mm 0,0 km/h (0 Bft) S 191 ° 0 min 0,000 mm 1,8 UV-I 355 W/m² 14,8 °C 18,1 °C 0,0 km/h (0 Bft)
21.08.2018 09:01 18,1 °C 81 % 1016,9 hPa 0,0 mm 0,0 km/h (0 Bft) S 191 ° 0 min 0,153 mm 1,8 UV-I 359 W/m² 14,8 °C 18,1 °C 0,0 km/h (0 Bft)
21.08.2018 09:02 18,1 °C 81 % 1016,9 hPa 0,0 mm 0,0 km/h (0 Bft) S 191 ° 0 min 0,000 mm 1,9 UV-I 360 W/m² 14,8 °C 18,1 °C 0,0 km/h (0 Bft)
21.08.2018 09:03 18,2 °C 82 % 1016,9 hPa 0,0 mm 0,0 km/h (0 Bft) S 191 ° 0 min 0,000 mm 1,9 UV-I 364 W/m² 15,1 °C 18,2 °C 0,0 km/h (0 Bft)
21.08.2018 09:04 18,3 °C 81 % 1016,9 hPa 0,0 mm 0,0 km/h (0 Bft) S 191 ° 0 min 0,000 mm 1,9 UV-I 366 W/m² 15,0 °C 18,3 °C 0,0 km/h (0 Bft)
21.08.2018 09:05 18,3 °C 81 % 1016,9 hPa 0,0 mm 0,0 km/h (0 Bft) S 191 ° 0 min 0,000 mm 1,9 UV-I 369 W/m² 15,0 °C 18,3 °C 0,0 km/h (0 Bft)
21.08.2018 09:06 18,4 °C 82 % 1016,9 hPa 0,0 mm 0,0 km/h (0 Bft) S 191 ° 0 min 0,000 mm 1,9 UV-I 374 W/m² 15,3 °C 18,4 °C 0,0 km/h (0 Bft)
21.08.2018 09:07 18,6 °C 81 % 1016,9 hPa 0,0 mm 0,0 km/h (0 Bft) S 191 ° 0 min 0,000 mm 2,0 UV-I 378 W/m² 15,3 °C 18,6 °C 0,0 km/h (0 Bft)
21.08.2018 09:08 18,6 °C 81 % 1016,9 hPa 0,0 mm 0,0 km/h (0 Bft) S 191 ° 0 min 0,000 mm 2,0 UV-I 381 W/m² 15,3 °C 18,6 °C 0,0 km/h (0 Bft)
21.08.2018 09:09 18,6 °C 80 % 1016,9 hPa 0,0 mm 0,0 km/h (0 Bft) S 191 ° 0 min 0,000 mm 2,0 UV-I 383 W/m² 15,1 °C 18,6 °C 0,0 km/h (0 Bft)
21.08.2018 09:10 18,6 °C 79 % 1016,9 hPa 0,0 mm 0,0 km/h (0 Bft) S 191 ° 0 min 0,000 mm 2,0 UV-I 385 W/m² 14,9 °C 18,6 °C 0,0 km/h (0 Bft)
21.08.2018 09:11 18,8 °C 78 % 1016,9 hPa 0,0 mm 0,0 km/h (0 Bft) S 191 ° 0 min 0,000 mm 2,0 UV-I 387 W/m² 14,9 °C 18,8 °C 0,0 km/h (0 Bft)
21.08.2018 09:12 18,9 °C 79 % 1016,9 hPa 0,0 mm 0,0 km/h (0 Bft) S 191 ° 0 min 0,000 mm 2,1 UV-I 390 W/m² 15,2 °C 18,9 °C 0,0 km/h (0 Bft)
21.08.2018 09:13 18,9 °C 78 % 1016,9 hPa 0,0 mm 0,0 km/h (0 Bft) S 191 ° 0 min 0,000 mm 2,1 UV-I 394 W/m² 15,0 °C 18,9 °C 0,0 km/h (0 Bft)
21.08.2018 09:14 19,1 °C 78 % 1016,9 hPa 0,0 mm 0,0 km/h (0 Bft) S 191 ° 0 min 0,000 mm 2,1 UV-I 397 W/m² 15,2 °C 19,1 °C 0,0 km/h (0 Bft)
21.08.2018 09:15 19,2 °C 81 % 1016,9 hPa 0,0 mm 0,0 km/h (0 Bft) S 191 ° 0 min 0,000 mm 2,1 UV-I 399 W/m² 15,9 °C 19,2 °C 0,0 km/h (0 Bft)
21.08.2018 09:16 19,3 °C 78 % 1016,8 hPa 0,0 mm 0,0 km/h (0 Bft) S 191 ° 0 min 0,000 mm 2,2 UV-I 403 W/m² 15,4 °C 19,3 °C 0,0 km/h (0 Bft)
21.08.2018 09:17 19,4 °C 77 % 1016,9 hPa 0,0 mm 0,0 km/h (0 Bft) S 191 ° 0 min 0,000 mm 2,2 UV-I 408 W/m² 15,3 °C 19,4 °C 0,0 km/h (0 Bft)
21.08.2018 09:18 19,6 °C 76 % 1016,9 hPa 0,0 mm 0,0 km/h (0 Bft) S 191 ° 0 min 0,000 mm 2,2 UV-I 410 W/m² 15,2 °C 19,6 °C 0,0 km/h (0 Bft)
21.08.2018 09:19 19,7 °C 78 % 1016,9 hPa 0,0 mm 0,0 km/h (0 Bft) S 191 ° 0 min 0,000 mm 2,2 UV-I 413 W/m² 15,8 °C 19,7 °C 0,0 km/h (0 Bft)
21.08.2018 09:20 19,4 °C 78 % 1016,9 hPa 0,0 mm 0,0 km/h (0 Bft) S 191 ° 0 min 0,000 mm 2,2 UV-I 417 W/m² 15,5 °C 19,4 °C 0,0 km/h (0 Bft)
21.08.2018 09:21 19,5 °C 78 % 1016,9 hPa 0,0 mm 0,0 km/h (0 Bft) S 191 ° 0 min 0,000 mm 2,3 UV-I 420 W/m² 15,6 °C 19,5 °C 0,0 km/h (0 Bft)
21.08.2018 09:22 19,7 °C 77 % 1016,8 hPa 0,0 mm 0,0 km/h (0 Bft) S 191 ° 0 min 0,000 mm 2,3 UV-I 424 W/m² 15,5 °C 19,7 °C 0,0 km/h (0 Bft)
21.08.2018 09:23 19,7 °C 76 % 1016,8 hPa 0,0 mm 0,0 km/h (0 Bft) S 191 ° 0 min 0,000 mm 2,3 UV-I 425 W/m² 15,3 °C 19,7 °C 0,0 km/h (0 Bft)
21.08.2018 09:24 19,9 °C 76 % 1016,8 hPa 0,0 mm 1,8 km/h (1 Bft) S 191 ° 0 min 0,000 mm 2,3 UV-I 429 W/m² 15,5 °C 19,9 °C 4,8 km/h (1 Bft)
21.08.2018 09:25 20,1 °C 76 % 1016,8 hPa 0,0 mm 0,8 km/h (0 Bft) S 191 ° 0 min 0,000 mm 2,4 UV-I 431 W/m² 15,7 °C 20,1 °C 3,2 km/h (1 Bft)
21.08.2018 09:26 19,9 °C 77 % 1016,9 hPa 0,0 mm 0,8 km/h (0 Bft) S 191 ° 0 min 0,000 mm 2,4 UV-I 434 W/m² 15,7 °C 19,9 °C 1,6 km/h (1 Bft)
21.08.2018 09:27 19,9 °C 76 % 1016,9 hPa 0,0 mm 0,5 km/h (0 Bft) S 191 ° 0 min 0,000 mm 2,4 UV-I 436 W/m² 15,5 °C 19,9 °C 1,6 km/h (1 Bft)
21.08.2018 09:28 19,9 °C 76 % 1016,9 hPa 0,0 mm 0,4 km/h (0 Bft) S 191 ° 0 min 0,000 mm 2,4 UV-I 439 W/m² 15,5 °C 19,9 °C 3,2 km/h (1 Bft)
21.08.2018 09:29 20,1 °C 78 % 1016,8 hPa 0,0 mm 1,7 km/h (1 Bft) S 186 ° 0 min 0,000 mm 2,4 UV-I 443 W/m² 16,1 °C 20,1 °C 3,2 km/h (1 Bft)
21.08.2018 09:30 20,2 °C 75 % 1016,8 hPa 0,0 mm 2,0 km/h (1 Bft) S 180 ° 0 min 0,000 mm 2,4 UV-I 445 W/m² 15,6 °C 20,2 °C 3,2 km/h (1 Bft)
21.08.2018 09:31 20,3 °C 76 % 1016,8 hPa 0,0 mm 1,5 km/h (1 Bft) O-SO 112 ° 0 min 0,000 mm 2,5 UV-I 446 W/m² 15,9 °C 20,3 °C 3,2 km/h (1 Bft)
21.08.2018 09:32 20,2 °C 76 % 1016,8 hPa 0,0 mm 0,5 km/h (0 Bft) O-SO 112 ° 0 min 0,000 mm 2,5 UV-I 448 W/m² 15,8 °C 20,2 °C 1,6 km/h (1 Bft)
21.08.2018 09:33 20,2 °C 75 % 1016,8 hPa 0,0 mm 3,2 km/h (1 Bft) O-NO 61 ° 0 min 0,000 mm 2,5 UV-I 452 W/m² 15,6 °C 20,2 °C 4,8 km/h (1 Bft)
21.08.2018 09:34 20,4 °C 75 % 1016,8 hPa 0,0 mm 2,7 km/h (1 Bft) N 360 ° 0 min 0,000 mm 2,5 UV-I 454 W/m² 15,8 °C 20,4 °C 4,8 km/h (1 Bft)
21.08.2018 09:35 20,6 °C 76 % 1016,8 hPa 0,0 mm 0,7 km/h (0 Bft) N 360 ° 0 min 0,000 mm 2,5 UV-I 459 W/m² 16,2 °C 20,6 °C 3,2 km/h (1 Bft)
21.08.2018 09:36 20,5 °C 74 % 1016,8 hPa 0,0 mm 0,2 km/h (0 Bft) N 360 ° 0 min 0,000 mm 2,6 UV-I 461 W/m² 15,7 °C 20,5 °C 1,6 km/h (1 Bft)
21.08.2018 09:37 20,4 °C 74 % 1016,8 hPa 0,0 mm 0,4 km/h (0 Bft) N 360 ° 0 min 0,000 mm 2,6 UV-I 462 W/m² 15,6 °C 20,4 °C 1,6 km/h (1 Bft)
21.08.2018 09:38 20,5 °C 75 % 1016,8 hPa 0,0 mm 1,0 km/h (0 Bft) N 360 ° 0 min 0,000 mm 2,6 UV-I 464 W/m² 15,9 °C 20,5 °C 1,6 km/h (1 Bft)
21.08.2018 09:39 20,6 °C 75 % 1016,8 hPa 0,0 mm 3,1 km/h (1 Bft) N 360 ° 0 min 0,000 mm 2,6 UV-I 466 W/m² 16,0 °C 20,6 °C 4,8 km/h (1 Bft)
21.08.2018 09:40 20,8 °C 74 % 1016,8 hPa 0,0 mm 3,4 km/h (1 Bft) NO 37 ° 0 min 0,000 mm 2,7 UV-I 469 W/m² 16,0 °C 20,8 °C 6,4 km/h (2 Bft)
21.08.2018 09:41 20,9 °C 74 % 1016,8 hPa 0,0 mm 2,1 km/h (1 Bft) NO 37 ° 0 min 0,000 mm 2,7 UV-I 471 W/m² 16,1 °C 20,9 °C 4,8 km/h (1 Bft)
21.08.2018 09:42 20,9 °C 72 % 1016,8 hPa 0,0 mm 1,3 km/h (1 Bft) NO 37 ° 0 min 0,000 mm 2,7 UV-I 476 W/m² 15,7 °C 20,9 °C 4,8 km/h (1 Bft)
21.08.2018 09:43 20,9 °C 71 % 1016,8 hPa 0,0 mm 0,5 km/h (0 Bft) NO 37 ° 0 min 0,000 mm 2,7 UV-I 476 W/m² 15,4 °C 20,9 °C 1,6 km/h (1 Bft)
21.08.2018 09:44 21,1 °C 73 % 1016,8 hPa 0,0 mm 0,8 km/h (0 Bft) NO 37 ° 0 min 0,000 mm 2,7 UV-I 480 W/m² 16,1 °C 21,1 °C 1,6 km/h (1 Bft)
21.08.2018 09:45 21,1 °C 71 % 1016,7 hPa 0,0 mm 1,3 km/h (1 Bft) NO 38 ° 0 min 0,000 mm 2,8 UV-I 482 W/m² 15,6 °C 21,1 °C 3,2 km/h (1 Bft)
21.08.2018 09:46 21,2 °C 70 % 1016,8 hPa 0,0 mm 3,1 km/h (1 Bft) NO 38 ° 0 min 0,000 mm 2,8 UV-I 485 W/m² 15,5 °C 21,2 °C 4,8 km/h (1 Bft)
21.08.2018 09:47 21,2 °C 70 % 1016,7 hPa 0,0 mm 2,9 km/h (1 Bft) NO 38 ° 0 min 0,000 mm 2,8 UV-I 490 W/m² 15,5 °C 21,2 °C 4,8 km/h (1 Bft)
21.08.2018 09:48 21,2 °C 72 % 1016,7 hPa 0,0 mm 1,9 km/h (1 Bft) NO 38 ° 0 min 0,000 mm 2,8 UV-I 490 W/m² 15,9 °C 21,2 °C 3,2 km/h (1 Bft)
21.08.2018 09:49 21,2 °C 70 % 1016,7 hPa 0,0 mm 4,5 km/h (1 Bft) NO 34 ° 0 min 0,000 mm 2,8 UV-I 492 W/m² 15,5 °C 21,2 °C 6,4 km/h (2 Bft)
21.08.2018 09:50 21,3 °C 74 % 1016,7 hPa 0,0 mm 5,4 km/h (1 Bft) NO 49 ° 0 min 0,000 mm 2,9 UV-I 494 W/m² 16,5 °C 21,3 °C 8,0 km/h (2 Bft)
21.08.2018 09:51 21,3 °C 74 % 1016,7 hPa 0,0 mm 3,6 km/h (1 Bft) O-NO 67 ° 0 min 0,000 mm 2,9 UV-I 497 W/m² 16,5 °C 21,3 °C 4,8 km/h (1 Bft)
21.08.2018 09:52 21,4 °C 70 % 1016,7 hPa 0,0 mm 1,2 km/h (1 Bft) O-NO 67 ° 0 min 0,000 mm 2,9 UV-I 499 W/m² 15,7 °C 21,4 °C 3,2 km/h (1 Bft)
21.08.2018 09:53 21,4 °C 70 % 1016,7 hPa 0,0 mm 2,6 km/h (1 Bft) NO 45 ° 0 min 0,000 mm 2,9 UV-I 504 W/m² 15,7 °C 21,4 °C 6,4 km/h (2 Bft)
21.08.2018 09:54 21,5 °C 70 % 1016,7 hPa 0,0 mm 7,3 km/h (2 Bft) NO 39 ° 0 min 0,000 mm 3,0 UV-I 504 W/m² 15,8 °C 21,5 °C 14,5 km/h (3 Bft)
21.08.2018 09:55 21,6 °C 67 % 1016,7 hPa 0,0 mm 5,7 km/h (1 Bft) NO 52 ° 0 min 0,000 mm 3,0 UV-I 508 W/m² 15,2 °C 21,6 °C 8,0 km/h (2 Bft)
21.08.2018 09:56 21,6 °C 67 % 1016,7 hPa 0,0 mm 4,3 km/h (1 Bft) NO 38 ° 0 min 0,000 mm 3,0 UV-I 510 W/m² 15,2 °C 21,6 °C 8,0 km/h (2 Bft)
21.08.2018 09:57 21,6 °C 67 % 1016,7 hPa 0,0 mm 3,4 km/h (1 Bft) NO 50 ° 0 min 0,000 mm 3,0 UV-I 512 W/m² 15,2 °C 21,6 °C 6,4 km/h (2 Bft)
21.08.2018 09:58 21,6 °C 67 % 1016,7 hPa 0,0 mm 5,3 km/h (1 Bft) O-NO 64 ° 0 min 0,000 mm 3,0 UV-I 513 W/m² 15,2 °C 21,6 °C 8,0 km/h (2 Bft)
21.08.2018 09:59 21,6 °C 67 % 1016,7 hPa 0,0 mm 2,9 km/h (1 Bft) O-NO 64 ° 0 min 0,000 mm 3,0 UV-I 515 W/m² 15,2 °C 21,6 °C 4,8 km/h (1 Bft)
21.08.2018 10:00 21,6 °C 67 % 1016,7 hPa 0,0 mm 1,1 km/h (1 Bft) NO 47 ° 0 min 0,000 mm 3,1 UV-I 519 W/m² 15,2 °C 21,6 °C 3,2 km/h (1 Bft)
21.08.2018 10:01 21,6 °C 67 % 1016,7 hPa 0,0 mm 3,4 km/h (1 Bft) NO 48 ° 0 min 0,254 mm 3,1 UV-I 520 W/m² 15,2 °C 21,6 °C 4,8 km/h (1 Bft)
21.08.2018 10:02 21,6 °C 68 % 1016,7 hPa 0,0 mm 4,8 km/h (1 Bft) NO 53 ° 0 min 0,000 mm 3,1 UV-I 522 W/m² 15,4 °C 21,6 °C 6,4 km/h (2 Bft)
21.08.2018 10:03 21,6 °C 67 % 1016,7 hPa 0,0 mm 3,8 km/h (1 Bft) O 81 ° 0 min 0,000 mm 3,1 UV-I 524 W/m² 15,2 °C 21,6 °C 4,8 km/h (1 Bft)
21.08.2018 10:04 21,6 °C 67 % 1016,7 hPa 0,0 mm 1,6 km/h (1 Bft) NO 52 ° 0 min 0,000 mm 3,1 UV-I 529 W/m² 15,2 °C 21,6 °C 4,8 km/h (1 Bft)
21.08.2018 10:05 21,7 °C 68 % 1016,7 hPa 0,0 mm 5,6 km/h (1 Bft) NO 47 ° 0 min 0,000 mm 3,1 UV-I 531 W/m² 15,5 °C 21,7 °C 6,4 km/h (2 Bft)
21.08.2018 10:06 21,8 °C 68 % 1016,7 hPa 0,0 mm 3,0 km/h (1 Bft) NO 52 ° 0 min 0,000 mm 3,2 UV-I 533 W/m² 15,6 °C 21,8 °C 4,8 km/h (1 Bft)
21.08.2018 10:07 21,8 °C 68 % 1016,7 hPa 0,0 mm 3,8 km/h (1 Bft) O-NO 61 ° 0 min 0,000 mm 3,2 UV-I 534 W/m² 15,6 °C 21,8 °C 6,4 km/h (2 Bft)
21.08.2018 10:08 21,8 °C 67 % 1016,7 hPa 0,0 mm 4,5 km/h (1 Bft) O-NO 57 ° 0 min 0,000 mm 3,2 UV-I 536 W/m² 15,4 °C 21,8 °C 9,7 km/h (2 Bft)
21.08.2018 10:09 21,8 °C 67 % 1016,7 hPa 0,0 mm 4,0 km/h (1 Bft) O-SO 117 ° 0 min 0,000 mm 3,2 UV-I 540 W/m² 15,4 °C 21,8 °C 9,7 km/h (2 Bft)
21.08.2018 10:10 21,8 °C 68 % 1016,7 hPa 0,0 mm 1,8 km/h (1 Bft) NO 48 ° 0 min 0,000 mm 3,2 UV-I 541 W/m² 15,6 °C 21,8 °C 4,8 km/h (1 Bft)
21.08.2018 10:11 21,9 °C 68 % 1016,6 hPa 0,0 mm 3,3 km/h (1 Bft) NO 46 ° 0 min 0,000 mm 3,3 UV-I 547 W/m² 15,7 °C 21,9 °C 6,4 km/h (2 Bft)
21.08.2018 10:12 22,1 °C 68 % 1016,7 hPa 0,0 mm 4,6 km/h (1 Bft) O-NO 61 ° 0 min 0,000 mm 3,3 UV-I 548 W/m² 15,9 °C 22,1 °C 8,0 km/h (2 Bft)
21.08.2018 10:13 22,1 °C 68 % 1016,7 hPa 0,0 mm 3,6 km/h (1 Bft) NO 37 ° 0 min 0,000 mm 3,3 UV-I 550 W/m² 15,9 °C 22,1 °C 6,4 km/h (2 Bft)
21.08.2018 10:14 22,1 °C 66 % 1016,7 hPa 0,0 mm 6,9 km/h (2 Bft) NO 40 ° 0 min 0,000 mm 3,3 UV-I 554 W/m² 15,4 °C 22,1 °C 9,7 km/h (2 Bft)
21.08.2018 10:15 22,1 °C 66 % 1016,7 hPa 0,0 mm 5,0 km/h (1 Bft) NO 55 ° 0 min 0,000 mm 3,3 UV-I 555 W/m² 15,4 °C 22,1 °C 6,4 km/h (2 Bft)
21.08.2018 10:16 22,2 °C 68 % 1016,7 hPa 0,0 mm 5,5 km/h (1 Bft) NO 47 ° 0 min 0,000 mm 3,4 UV-I 559 W/m² 16,0 °C 22,2 °C 11,3 km/h (2 Bft)
21.08.2018 10:17 22,2 °C 65 % 1016,6 hPa 0,0 mm 2,9 km/h (1 Bft) NO 38 ° 0 min 0,000 mm 3,4 UV-I 563 W/m² 15,3 °C 22,2 °C 8,0 km/h (2 Bft)
21.08.2018 10:18 22,3 °C 66 % 1016,6 hPa 0,0 mm 5,0 km/h (1 Bft) N 9 ° 0 min 0,000 mm 3,4 UV-I 564 W/m² 15,6 °C 22,3 °C 9,7 km/h (2 Bft)
21.08.2018 10:19 22,3 °C 66 % 1016,6 hPa 0,0 mm 2,6 km/h (1 Bft) O-NO 74 ° 0 min 0,000 mm 3,4 UV-I 568 W/m² 15,6 °C 22,3 °C 8,0 km/h (2 Bft)
21.08.2018 10:20 22,3 °C 65 % 1016,6 hPa 0,0 mm 5,9 km/h (2 Bft) O-NO 63 ° 0 min 0,000 mm 3,5 UV-I 570 W/m² 15,4 °C 22,3 °C 9,7 km/h (2 Bft)
21.08.2018 10:21 22,2 °C 67 % 1016,6 hPa 0,0 mm 4,3 km/h (1 Bft) O-NO 62 ° 0 min 0,000 mm 3,5 UV-I 571 W/m² 15,8 °C 22,2 °C 8,0 km/h (2 Bft)
21.08.2018 10:22 22,2 °C 68 % 1016,6 hPa 0,0 mm 3,5 km/h (1 Bft) N-NO 28 ° 0 min 0,000 mm 3,5 UV-I 577 W/m² 16,0 °C 22,2 °C 8,0 km/h (2 Bft)
21.08.2018 10:23 22,2 °C 66 % 1016,6 hPa 0,0 mm 7,4 km/h (2 Bft) NO 47 ° 0 min 0,000 mm 3,5 UV-I 578 W/m² 15,5 °C 22,2 °C 12,9 km/h (3 Bft)
21.08.2018 10:24 22,2 °C 65 % 1016,6 hPa 0,0 mm 6,2 km/h (2 Bft) O-NO 65 ° 0 min 0,000 mm 3,5 UV-I 580 W/m² 15,3 °C 22,2 °C 9,7 km/h (2 Bft)
21.08.2018 10:25 22,2 °C 66 % 1016,6 hPa 0,0 mm 6,9 km/h (2 Bft) O-NO 75 ° 0 min 0,000 mm 3,5 UV-I 584 W/m² 15,5 °C 22,2 °C 11,3 km/h (2 Bft)
21.08.2018 10:26 22,2 °C 66 % 1016,6 hPa 0,0 mm 4,4 km/h (1 Bft) NO 54 ° 0 min 0,000 mm 3,6 UV-I 585 W/m² 15,5 °C 22,2 °C 8,0 km/h (2 Bft)
21.08.2018 10:27 22,3 °C 66 % 1016,6 hPa 0,0 mm 9,7 km/h (2 Bft) O-NO 73 ° 0 min 0,000 mm 3,6 UV-I 587 W/m² 15,6 °C 22,3 °C 12,9 km/h (3 Bft)
21.08.2018 10:28 22,3 °C 65 % 1016,5 hPa 0,0 mm 5,6 km/h (1 Bft) O-NO 69 ° 0 min 0,000 mm 3,6 UV-I 591 W/m² 15,4 °C 22,3 °C 11,3 km/h (2 Bft)
21.08.2018 10:29 22,2 °C 65 % 1016,5 hPa 0,0 mm 7,0 km/h (2 Bft) N-NO 26 ° 0 min 0,000 mm 3,6 UV-I 592 W/m² 15,3 °C 22,2 °C 9,7 km/h (2 Bft)
21.08.2018 10:30 22,3 °C 66 % 1016,5 hPa 0,0 mm 7,5 km/h (2 Bft) N-NO 19 ° 0 min 0,000 mm 3,7 UV-I 596 W/m² 15,6 °C 22,3 °C 12,9 km/h (3 Bft)
21.08.2018 10:31 22,3 °C 67 % 1016,6 hPa 0,0 mm 6,4 km/h (2 Bft) N-NO 22 ° 0 min 0,000 mm 3,7 UV-I 596 W/m² 15,9 °C 22,3 °C 12,9 km/h (3 Bft)
21.08.2018 10:32 22,4 °C 64 % 1016,5 hPa 0,0 mm 4,3 km/h (1 Bft) NO 36 ° 0 min 0,000 mm 3,7 UV-I 598 W/m² 15,2 °C 22,4 °C 8,0 km/h (2 Bft)
21.08.2018 10:33 22,4 °C 64 % 1016,5 hPa 0,0 mm 7,1 km/h (2 Bft) O 86 ° 0 min 0,000 mm 3,7 UV-I 599 W/m² 15,2 °C 22,4 °C 14,5 km/h (3 Bft)
21.08.2018 10:34 22,4 °C 65 % 1016,6 hPa 0,0 mm 1,5 km/h (1 Bft) NO 52 ° 0 min 0,000 mm 3,7 UV-I 599 W/m² 15,5 °C 22,4 °C 6,4 km/h (2 Bft)
21.08.2018 10:35 22,4 °C 66 % 1016,5 hPa 0,0 mm 9,7 km/h (2 Bft) N-NO 28 ° 0 min 0,000 mm 3,7 UV-I 599 W/m² 15,7 °C 22,4 °C 17,7 km/h (3 Bft)
21.08.2018 10:36 22,4 °C 65 % 1016,5 hPa 0,0 mm 5,4 km/h (1 Bft) O 97 ° 1 min 0,000 mm 3,7 UV-I 603 W/m² 15,5 °C 22,4 °C 9,7 km/h (2 Bft)
21.08.2018 10:37 22,4 °C 66 % 1016,5 hPa 0,0 mm 6,7 km/h (2 Bft) NO 56 ° 1 min 0,000 mm 3,8 UV-I 603 W/m² 15,7 °C 22,4 °C 11,3 km/h (2 Bft)
21.08.2018 10:38 22,5 °C 66 % 1016,5 hPa 0,0 mm 7,1 km/h (2 Bft) NO 43 ° 1 min 0,000 mm 3,8 UV-I 603 W/m² 15,8 °C 22,5 °C 12,9 km/h (3 Bft)
21.08.2018 10:39 22,6 °C 65 % 1016,5 hPa 0,0 mm 8,1 km/h (2 Bft) O-NO 63 ° 1 min 0,000 mm 3,8 UV-I 603 W/m² 15,7 °C 22,6 °C 14,5 km/h (3 Bft)
21.08.2018 10:40 22,6 °C 65 % 1016,5 hPa 0,0 mm 5,1 km/h (1 Bft) O-NO 76 ° 1 min 0,000 mm 3,8 UV-I 605 W/m² 15,7 °C 22,6 °C 12,9 km/h (3 Bft)
21.08.2018 10:41 22,5 °C 65 % 1016,5 hPa 0,0 mm 4,8 km/h (1 Bft) O 80 ° 1 min 0,000 mm 3,8 UV-I 605 W/m² 15,6 °C 22,5 °C 6,4 km/h (2 Bft)
21.08.2018 10:42 22,4 °C 65 % 1016,5 hPa 0,0 mm 9,5 km/h (2 Bft) O-NO 70 ° 1 min 0,000 mm 3,8 UV-I 606 W/m² 15,5 °C 22,4 °C 14,5 km/h (3 Bft)
21.08.2018 10:43 22,4 °C 66 % 1016,5 hPa 0,0 mm 6,1 km/h (2 Bft) NO 40 ° 1 min 0,000 mm 3,8 UV-I 605 W/m² 15,7 °C 22,4 °C 12,9 km/h (3 Bft)
21.08.2018 10:44 22,4 °C 65 % 1016,5 hPa 0,0 mm 2,5 km/h (1 Bft) NO 44 ° 1 min 0,000 mm 3,8 UV-I 606 W/m² 15,5 °C 22,4 °C 4,8 km/h (1 Bft)
21.08.2018 10:45 22,4 °C 65 % 1016,5 hPa 0,0 mm 3,8 km/h (1 Bft) O-NO 72 ° 1 min 0,000 mm 3,9 UV-I 610 W/m² 15,5 °C 22,4 °C 6,4 km/h (2 Bft)
21.08.2018 10:46 22,4 °C 66 % 1016,5 hPa 0,0 mm 9,5 km/h (2 Bft) O 81 ° 1 min 0,000 mm 3,9 UV-I 612 W/m² 15,7 °C 22,4 °C 14,5 km/h (3 Bft)
21.08.2018 10:47 22,4 °C 65 % 1016,5 hPa 0,0 mm 8,7 km/h (2 Bft) O 80 ° 1 min 0,000 mm 3,9 UV-I 612 W/m² 15,5 °C 22,4 °C 12,9 km/h (3 Bft)
21.08.2018 10:48 22,4 °C 66 % 1016,5 hPa 0,0 mm 4,6 km/h (1 Bft) NO 43 ° 1 min 0,000 mm 3,9 UV-I 613 W/m² 15,7 °C 22,4 °C 8,0 km/h (2 Bft)
21.08.2018 10:49 22,4 °C 65 % 1016,5 hPa 0,0 mm 10,3 km/h (2 Bft) O-NO 74 ° 1 min 0,000 mm 3,9 UV-I 613 W/m² 15,5 °C 22,4 °C 16,1 km/h (3 Bft)
21.08.2018 10:50 22,4 °C 66 % 1016,5 hPa 0,0 mm 6,6 km/h (2 Bft) N-NO 14 ° 1 min 0,000 mm 3,9 UV-I 613 W/m² 15,7 °C 22,4 °C 16,1 km/h (3 Bft)
21.08.2018 10:51 22,4 °C 66 % 1016,5 hPa 0,0 mm 3,5 km/h (1 Bft) NO 36 ° 1 min 0,000 mm 3,9 UV-I 613 W/m² 15,7 °C 22,4 °C 8,0 km/h (2 Bft)
21.08.2018 10:52 22,6 °C 65 % 1016,5 hPa 0,0 mm 6,0 km/h (2 Bft) NO 49 ° 1 min 0,000 mm 3,9 UV-I 615 W/m² 15,7 °C 22,6 °C 11,3 km/h (2 Bft)
21.08.2018 10:53 22,5 °C 64 % 1016,5 hPa 0,0 mm 3,4 km/h (1 Bft) O-NO 78 ° 1 min 0,000 mm 4,0 UV-I 613 W/m² 15,3 °C 22,5 °C 9,7 km/h (2 Bft)
21.08.2018 10:54 22,5 °C 65 % 1016,5 hPa 0,0 mm 5,0 km/h (1 Bft) N-NO 12 ° 1 min 0,000 mm 4,0 UV-I 615 W/m² 15,6 °C 22,5 °C 8,0 km/h (2 Bft)
21.08.2018 10:55 22,6 °C 67 % 1016,5 hPa 0,0 mm 4,0 km/h (1 Bft) NO 54 ° 1 min 0,000 mm 4,0 UV-I 615 W/m² 16,2 °C 22,6 °C 8,0 km/h (2 Bft)
21.08.2018 10:56 22,7 °C 64 % 1016,5 hPa 0,0 mm 5,4 km/h (1 Bft) O-NO 71 ° 1 min 0,000 mm 4,0 UV-I 615 W/m² 15,5 °C 22,7 °C 8,0 km/h (2 Bft)
21.08.2018 10:57 22,8 °C 64 % 1016,5 hPa 0,0 mm 7,9 km/h (2 Bft) O-NO 57 ° 1 min 0,000 mm 4,0 UV-I 615 W/m² 15,6 °C 22,8 °C 14,5 km/h (3 Bft)
21.08.2018 10:58 22,8 °C 64 % 1016,6 hPa 0,0 mm 9,7 km/h (2 Bft) N-NO 26 ° 1 min 0,000 mm 4,0 UV-I 615 W/m² 15,6 °C 22,8 °C 11,3 km/h (2 Bft)
21.08.2018 10:59 22,7 °C 64 % 1016,6 hPa 0,0 mm 5,7 km/h (1 Bft) O-NO 63 ° 1 min 0,000 mm 4,0 UV-I 617 W/m² 15,5 °C 22,7 °C 11,3 km/h (2 Bft)
21.08.2018 11:00 22,7 °C 63 % 1016,6 hPa 0,0 mm 8,4 km/h (2 Bft) O-SO 107 ° 1 min 0,000 mm 4,0 UV-I 619 W/m² 15,3 °C 22,7 °C 14,5 km/h (3 Bft)
21.08.2018 11:01 22,6 °C 64 % 1016,6 hPa 0,0 mm 8,8 km/h (2 Bft) N-NO 24 ° 1 min 0,381 mm 4,0 UV-I 619 W/m² 15,4 °C 22,6 °C 16,1 km/h (3 Bft)
21.08.2018 11:02 22,6 °C 64 % 1016,5 hPa 0,0 mm 7,1 km/h (2 Bft) O-SO 106 ° 1 min 0,000 mm 4,1 UV-I 621 W/m² 15,4 °C 22,6 °C 11,3 km/h (2 Bft)
21.08.2018 11:03 22,6 °C 64 % 1016,6 hPa 0,0 mm 7,0 km/h (2 Bft) O 80 ° 1 min 0,000 mm 4,1 UV-I 622 W/m² 15,4 °C 22,6 °C 12,9 km/h (3 Bft)
21.08.2018 11:04 22,5 °C 63 % 1016,6 hPa 0,0 mm 5,9 km/h (2 Bft) O-NO 71 ° 1 min 0,000 mm 4,1 UV-I 624 W/m² 15,1 °C 22,5 °C 9,7 km/h (2 Bft)
21.08.2018 11:05 22,6 °C 65 % 1016,5 hPa 0,0 mm 4,9 km/h (1 Bft) NO 55 ° 1 min 0,000 mm 4,1 UV-I 626 W/m² 15,7 °C 22,6 °C 8,0 km/h (2 Bft)
21.08.2018 11:06 22,6 °C 64 % 1016,5 hPa 0,0 mm 5,0 km/h (1 Bft) O-SO 118 ° 1 min 0,000 mm 4,1 UV-I 628 W/m² 15,4 °C 22,6 °C 8,0 km/h (2 Bft)
21.08.2018 11:07 22,6 °C 64 % 1016,5 hPa 0,0 mm 4,3 km/h (1 Bft) NO 54 ° 1 min 0,000 mm 4,2 UV-I 629 W/m² 15,4 °C 22,6 °C 8,0 km/h (2 Bft)
21.08.2018 11:08 22,7 °C 65 % 1016,5 hPa 0,0 mm 4,2 km/h (1 Bft) O-NO 62 ° 1 min 0,000 mm 4,2 UV-I 629 W/m² 15,8 °C 22,7 °C 6,4 km/h (2 Bft)
21.08.2018 11:09 22,8 °C 65 % 1016,5 hPa 0,0 mm 6,3 km/h (2 Bft) O-NO 69 ° 1 min 0,000 mm 4,2 UV-I 633 W/m² 15,9 °C 22,8 °C 9,7 km/h (2 Bft)
21.08.2018 11:10 22,8 °C 64 % 1016,6 hPa 0,0 mm 4,5 km/h (1 Bft) O-NO 74 ° 1 min 0,000 mm 4,2 UV-I 636 W/m² 15,6 °C 22,8 °C 6,4 km/h (2 Bft)
21.08.2018 11:11 22,9 °C 64 % 1016,5 hPa 0,0 mm 7,8 km/h (2 Bft) O-NO 60 ° 1 min 0,000 mm 4,3 UV-I 638 W/m² 15,7 °C 22,9 °C 11,3 km/h (2 Bft)
21.08.2018 11:12 22,8 °C 63 % 1016,5 hPa 0,0 mm 6,1 km/h (2 Bft) N-NO 17 ° 1 min 0,000 mm 4,3 UV-I 640 W/m² 15,4 °C 22,8 °C 11,3 km/h (2 Bft)
21.08.2018 11:13 22,7 °C 63 % 1016,5 hPa 0,0 mm 4,0 km/h (1 Bft) N 351 ° 1 min 0,000 mm 4,3 UV-I 642 W/m² 15,3 °C 22,7 °C 8,0 km/h (2 Bft)
21.08.2018 11:14 22,8 °C 64 % 1016,5 hPa 0,0 mm 11,6 km/h (2 Bft) O-NO 61 ° 1 min 0,000 mm 4,3 UV-I 642 W/m² 15,6 °C 22,8 °C 19,3 km/h (3 Bft)
21.08.2018 11:15 22,8 °C 63 % 1016,5 hPa 0,0 mm 7,1 km/h (2 Bft) O-NO 71 ° 1 min 0,000 mm 4,3 UV-I 645 W/m² 15,4 °C 22,8 °C 14,5 km/h (3 Bft)
21.08.2018 11:16 22,8 °C 64 % 1016,5 hPa 0,0 mm 5,1 km/h (1 Bft) NO 50 ° 1 min 0,000 mm 4,4 UV-I 650 W/m² 15,6 °C 22,8 °C 8,0 km/h (2 Bft)
21.08.2018 11:17 22,8 °C 64 % 1016,5 hPa 0,0 mm 9,4 km/h (2 Bft) NO 40 ° 1 min 0,000 mm 4,4 UV-I 650 W/m² 15,6 °C 22,8 °C 16,1 km/h (3 Bft)
21.08.2018 11:18 22,9 °C 63 % 1016,5 hPa 0,0 mm 5,3 km/h (1 Bft) O-NO 63 ° 1 min 0,000 mm 4,4 UV-I 652 W/m² 15,5 °C 22,9 °C 9,7 km/h (2 Bft)
21.08.2018 11:19 22,9 °C 67 % 1016,5 hPa 0,0 mm 6,2 km/h (2 Bft) O 83 ° 1 min 0,000 mm 4,4 UV-I 654 W/m² 16,4 °C 22,9 °C 11,3 km/h (2 Bft)
21.08.2018 11:20 22,9 °C 64 % 1016,5 hPa 0,0 mm 3,3 km/h (1 Bft) N-NO 21 ° 1 min 0,000 mm 4,4 UV-I 656 W/m² 15,7 °C 22,9 °C 6,4 km/h (2 Bft)
21.08.2018 11:21 23,1 °C 67 % 1016,5 hPa 0,0 mm 7,6 km/h (2 Bft) O 84 ° 1 min 0,000 mm 4,4 UV-I 659 W/m² 16,6 °C 23,1 °C 14,5 km/h (3 Bft)
21.08.2018 11:22 23,2 °C 63 % 1016,5 hPa 0,0 mm 7,3 km/h (2 Bft) NO 46 ° 1 min 0,000 mm 4,5 UV-I 659 W/m² 15,8 °C 23,2 °C 14,5 km/h (3 Bft)
21.08.2018 11:23 23,1 °C 63 % 1016,5 hPa 0,0 mm 11,5 km/h (2 Bft) O-NO 78 ° 1 min 0,000 mm 4,5 UV-I 664 W/m² 15,7 °C 23,1 °C 16,1 km/h (3 Bft)
21.08.2018 11:24 23,0 °C 63 % 1016,5 hPa 0,0 mm 6,2 km/h (2 Bft) O 100 ° 1 min 0,000 mm 4,5 UV-I 666 W/m² 15,6 °C 23,0 °C 12,9 km/h (3 Bft)
21.08.2018 11:25 22,9 °C 64 % 1016,4 hPa 0,0 mm 8,0 km/h (2 Bft) NO 56 ° 1 min 0,000 mm 4,5 UV-I 666 W/m² 15,7 °C 22,9 °C 17,7 km/h (3 Bft)
21.08.2018 11:26 22,9 °C 63 % 1016,4 hPa 0,0 mm 10,1 km/h (2 Bft) NO 46 ° 1 min 0,000 mm 4,5 UV-I 668 W/m² 15,5 °C 22,9 °C 16,1 km/h (3 Bft)
21.08.2018 11:27 22,9 °C 64 % 1016,4 hPa 0,0 mm 4,1 km/h (1 Bft) O-NO 61 ° 1 min 0,000 mm 4,5 UV-I 670 W/m² 15,7 °C 22,9 °C 8,0 km/h (2 Bft)
21.08.2018 11:28 22,9 °C 63 % 1016,4 hPa 0,0 mm 7,8 km/h (2 Bft) O-SO 109 ° 1 min 0,000 mm 4,6 UV-I 671 W/m² 15,5 °C 22,9 °C 11,3 km/h (2 Bft)
21.08.2018 11:29 22,9 °C 63 % 1016,4 hPa 0,0 mm 8,5 km/h (2 Bft) O-NO 74 ° 1 min 0,000 mm 4,6 UV-I 673 W/m² 15,5 °C 22,9 °C 14,5 km/h (3 Bft)
21.08.2018 11:30 22,9 °C 64 % 1016,4 hPa 0,0 mm 10,8 km/h (2 Bft) O-SO 113 ° 1 min 0,000 mm 4,6 UV-I 675 W/m² 15,7 °C 22,9 °C 17,7 km/h (3 Bft)
21.08.2018 11:31 22,9 °C 64 % 1016,4 hPa 0,0 mm 6,6 km/h (2 Bft) O-NO 73 ° 1 min 0,000 mm 4,6 UV-I 677 W/m² 15,7 °C 22,9 °C 11,3 km/h (2 Bft)
21.08.2018 11:32 23,0 °C 65 % 1016,3 hPa 0,0 mm 4,9 km/h (1 Bft) O 96 ° 1 min 0,000 mm 4,6 UV-I 679 W/m² 16,1 °C 23,0 °C 9,7 km/h (2 Bft)
21.08.2018 11:33 23,1 °C 64 % 1016,4 hPa 0,0 mm 7,1 km/h (2 Bft) SO 126 ° 1 min 0,000 mm 4,6 UV-I 677 W/m² 15,9 °C 23,1 °C 14,5 km/h (3 Bft)
21.08.2018 11:34 23,1 °C 66 % 1016,4 hPa 0,0 mm 9,2 km/h (2 Bft) N-NO 26 ° 1 min 0,000 mm 4,7 UV-I 679 W/m² 16,4 °C 23,1 °C 16,1 km/h (3 Bft)
21.08.2018 11:35 23,1 °C 64 % 1016,3 hPa 0,0 mm 8,1 km/h (2 Bft) O-NO 61 ° 1 min 0,000 mm 4,7 UV-I 682 W/m² 15,9 °C 23,1 °C 14,5 km/h (3 Bft)
21.08.2018 11:36 23,2 °C 65 % 1016,4 hPa 0,0 mm 4,5 km/h (1 Bft) O-NO 78 ° 1 min 0,000 mm 4,7 UV-I 682 W/m² 16,2 °C 23,2 °C 9,7 km/h (2 Bft)
21.08.2018 11:37 23,2 °C 64 % 1016,4 hPa 0,0 mm 6,3 km/h (2 Bft) O-NO 73 ° 1 min 0,000 mm 4,7 UV-I 686 W/m² 16,0 °C 23,2 °C 11,3 km/h (2 Bft)
21.08.2018 11:38 23,1 °C 65 % 1016,3 hPa 0,0 mm 6,8 km/h (2 Bft) O-SO 119 ° 1 min 0,000 mm 4,7 UV-I 687 W/m² 16,2 °C 23,1 °C 11,3 km/h (2 Bft)
21.08.2018 11:39 23,2 °C 65 % 1016,3 hPa 0,0 mm 2,5 km/h (1 Bft) O-NO 78 ° 1 min 0,000 mm 4,8 UV-I 687 W/m² 16,2 °C 23,2 °C 6,4 km/h (2 Bft)
21.08.2018 11:40 23,1 °C 64 % 1016,2 hPa 0,0 mm 1,2 km/h (1 Bft) O-NO 78 ° 1 min 0,000 mm 4,8 UV-I 687 W/m² 15,9 °C 23,1 °C 3,2 km/h (1 Bft)
21.08.2018 11:41 23,0 °C 64 % 1016,3 hPa 0,0 mm 4,9 km/h (1 Bft) NO 39 ° 1 min 0,000 mm 4,8 UV-I 691 W/m² 15,8 °C 23,0 °C 6,4 km/h (2 Bft)
21.08.2018 11:42 23,1 °C 66 % 1016,3 hPa 0,0 mm 6,6 km/h (2 Bft) NO 49 ° 1 min 0,000 mm 4,8 UV-I 693 W/m² 16,4 °C 23,1 °C 9,7 km/h (2 Bft)
21.08.2018 11:43 23,3 °C 65 % 1016,3 hPa 0,0 mm 6,1 km/h (2 Bft) N-NO 26 ° 1 min 0,000 mm 4,9 UV-I 696 W/m² 16,3 °C 23,3 °C 8,0 km/h (2 Bft)
21.08.2018 11:44 23,4 °C 64 % 1016,3 hPa 0,0 mm 5,8 km/h (2 Bft) N-NO 17 ° 1 min 0,000 mm 4,9 UV-I 698 W/m² 16,2 °C 23,4 °C 9,7 km/h (2 Bft)
21.08.2018 11:45 23,4 °C 64 % 1016,3 hPa 0,0 mm 6,8 km/h (2 Bft) O 96 ° 1 min 0,000 mm 4,9 UV-I 696 W/m² 16,2 °C 23,4 °C 11,3 km/h (2 Bft)
21.08.2018 11:46 23,4 °C 65 % 1016,3 hPa 0,0 mm 4,6 km/h (1 Bft) O-NO 68 ° 1 min 0,000 mm 4,9 UV-I 696 W/m² 16,4 °C 23,4 °C 8,0 km/h (2 Bft)
21.08.2018 11:47 23,5 °C 65 % 1016,3 hPa 0,0 mm 5,1 km/h (1 Bft) O-NO 57 ° 1 min 0,000 mm 4,9 UV-I 700 W/m² 16,5 °C 23,5 °C 8,0 km/h (2 Bft)
21.08.2018 11:48 23,6 °C 65 % 1016,3 hPa 0,0 mm 5,7 km/h (1 Bft) NO 51 ° 1 min 0,000 mm 4,9 UV-I 703 W/m² 16,6 °C 23,6 °C 8,0 km/h (2 Bft)
21.08.2018 11:49 23,6 °C 63 % 1016,4 hPa 0,0 mm 9,4 km/h (2 Bft) O 80 ° 1 min 0,000 mm 4,9 UV-I 707 W/m² 16,1 °C 23,6 °C 16,1 km/h (3 Bft)
21.08.2018 11:50 23,6 °C 64 % 1016,4 hPa 0,0 mm 7,8 km/h (2 Bft) O-NO 76 ° 1 min 0,000 mm 4,9 UV-I 707 W/m² 16,4 °C 23,6 °C 12,9 km/h (3 Bft)
21.08.2018 11:51 23,4 °C 64 % 1016,4 hPa 0,0 mm 4,5 km/h (1 Bft) NO 56 ° 1 min 0,000 mm 4,9 UV-I 708 W/m² 16,2 °C 23,4 °C 9,7 km/h (2 Bft)
21.08.2018 11:52 23,4 °C 64 % 1016,3 hPa 0,0 mm 5,8 km/h (2 Bft) O-NO 61 ° 1 min 0,000 mm 4,9 UV-I 708 W/m² 16,2 °C 23,4 °C 12,9 km/h (3 Bft)
21.08.2018 11:53 23,3 °C 65 % 1016,3 hPa 0,0 mm 9,1 km/h (2 Bft) NO 44 ° 1 min 0,000 mm 5,0 UV-I 708 W/m² 16,3 °C 23,3 °C 12,9 km/h (3 Bft)
21.08.2018 11:54 23,4 °C 65 % 1016,3 hPa 0,0 mm 5,2 km/h (1 Bft) NO 45 ° 1 min 0,000 mm 5,0 UV-I 714 W/m² 16,4 °C 23,4 °C 6,4 km/h (2 Bft)
21.08.2018 11:55 23,6 °C 68 % 1016,4 hPa 0,0 mm 7,1 km/h (2 Bft) O 80 ° 1 min 0,000 mm 5,0 UV-I 715 W/m² 17,3 °C 23,6 °C 9,7 km/h (2 Bft)
21.08.2018 11:56 23,6 °C 65 % 1016,3 hPa 0,0 mm 10,0 km/h (2 Bft) NO 55 ° 1 min 0,000 mm 5,0 UV-I 719 W/m² 16,6 °C 23,6 °C 22,5 km/h (4 Bft)
21.08.2018 11:57 23,6 °C 64 % 1016,3 hPa 0,0 mm 5,9 km/h (2 Bft) N-NO 13 ° 1 min 0,000 mm 5,1 UV-I 719 W/m² 16,4 °C 23,6 °C 11,3 km/h (2 Bft)
21.08.2018 11:58 23,6 °C 65 % 1016,3 hPa 0,0 mm 8,0 km/h (2 Bft) NO 36 ° 1 min 0,000 mm 5,1 UV-I 722 W/m² 16,6 °C 23,6 °C 14,5 km/h (3 Bft)
21.08.2018 11:59 23,6 °C 65 % 1016,4 hPa 0,0 mm 4,3 km/h (1 Bft) N-NO 13 ° 1 min 0,000 mm 5,1 UV-I 724 W/m² 16,6 °C 23,6 °C 6,4 km/h (2 Bft)
21.08.2018 12:00 23,6 °C 67 % 1016,3 hPa 0,0 mm 3,1 km/h (1 Bft) N-NO 32 ° 1 min 0,000 mm 5,1 UV-I 726 W/m² 17,1 °C 23,6 °C 8,0 km/h (2 Bft)
21.08.2018 12:01 23,6 °C 64 % 1016,3 hPa 0,0 mm 4,1 km/h (1 Bft) N-NO 28 ° 1 min 0,431 mm 5,1 UV-I 722 W/m² 16,4 °C 23,6 °C 4,8 km/h (1 Bft)
21.08.2018 12:02 23,5 °C 64 % 1016,3 hPa 0,0 mm 5,0 km/h (1 Bft) N-NO 28 ° 1 min 0,000 mm 5,1 UV-I 724 W/m² 16,3 °C 23,5 °C 8,0 km/h (2 Bft)
21.08.2018 12:04 23,6 °C 66 % 1016,3 hPa 0,0 mm 4,1 km/h (1 Bft) N 355 ° 2 min 0,000 mm 5,1 UV-I 728 W/m² 16,9 °C 23,6 °C 11,3 km/h (2 Bft)
21.08.2018 12:05 23,6 °C 64 % 1016,3 hPa 0,0 mm 8,4 km/h (2 Bft) N 5 ° 1 min 0,000 mm 5,1 UV-I 724 W/m² 16,4 °C 23,6 °C 12,9 km/h (3 Bft)
21.08.2018 12:06 23,6 °C 64 % 1016,3 hPa 0,0 mm 3,7 km/h (1 Bft) N-NO 32 ° 1 min 0,000 mm 5,2 UV-I 731 W/m² 16,4 °C 23,6 °C 6,4 km/h (2 Bft)
21.08.2018 12:07 23,7 °C 64 % 1016,3 hPa 0,0 mm 8,3 km/h (2 Bft) O 86 ° 1 min 0,000 mm 5,2 UV-I 729 W/m² 16,5 °C 23,7 °C 12,9 km/h (3 Bft)
21.08.2018 12:08 23,7 °C 66 % 1016,3 hPa 0,0 mm 5,5 km/h (1 Bft) N-NO 27 ° 1 min 0,000 mm 5,2 UV-I 737 W/m² 17,0 °C 23,7 °C 9,7 km/h (2 Bft)
21.08.2018 12:09 23,8 °C 64 % 1016,2 hPa 0,0 mm 4,3 km/h (1 Bft) NO 49 ° 1 min 0,000 mm 5,2 UV-I 735 W/m² 16,6 °C 23,8 °C 6,4 km/h (2 Bft)
21.08.2018 12:10 23,8 °C 65 % 1016,3 hPa 0,0 mm 6,4 km/h (2 Bft) N 360 ° 1 min 0,000 mm 5,3 UV-I 738 W/m² 16,8 °C 23,8 °C 11,3 km/h (2 Bft)
21.08.2018 12:11 23,8 °C 62 % 1016,3 hPa 0,0 mm 7,4 km/h (2 Bft) N-NO 14 ° 1 min 0,000 mm 5,3 UV-I 737 W/m² 16,1 °C 23,8 °C 12,9 km/h (3 Bft)
21.08.2018 12:12 23,8 °C 65 % 1016,2 hPa 0,0 mm 5,7 km/h (1 Bft) N-NO 24 ° 1 min 0,000 mm 5,3 UV-I 737 W/m² 16,8 °C 23,8 °C 8,0 km/h (2 Bft)
21.08.2018 12:13 23,8 °C 63 % 1016,3 hPa 0,0 mm 4,1 km/h (1 Bft) N-NO 23 ° 1 min 0,000 mm 5,2 UV-I 738 W/m² 16,3 °C 23,8 °C 9,7 km/h (2 Bft)
21.08.2018 12:14 23,9 °C 64 % 1016,3 hPa 0,0 mm 5,9 km/h (2 Bft) N 10 ° 1 min 0,000 mm 5,2 UV-I 731 W/m² 16,7 °C 23,9 °C 11,3 km/h (2 Bft)
21.08.2018 12:15 23,9 °C 64 % 1016,3 hPa 0,0 mm 7,4 km/h (2 Bft) N 355 ° 1 min 0,000 mm 5,3 UV-I 733 W/m² 16,7 °C 23,9 °C 14,5 km/h (3 Bft)
21.08.2018 12:16 23,9 °C 63 % 1016,2 hPa 0,0 mm 7,6 km/h (2 Bft) O 86 ° 1 min 0,000 mm 5,3 UV-I 733 W/m² 16,4 °C 23,9 °C 14,5 km/h (3 Bft)
21.08.2018 12:17 23,8 °C 62 % 1016,2 hPa 0,0 mm 8,9 km/h (2 Bft) NO 47 ° 1 min 0,000 mm 5,2 UV-I 728 W/m² 16,1 °C 23,8 °C 14,5 km/h (3 Bft)
21.08.2018 12:18 23,7 °C 62 % 1016,2 hPa 0,0 mm 5,3 km/h (1 Bft) NW 325 ° 1 min 0,000 mm 5,4 UV-I 756 W/m² 16,0 °C 23,7 °C 9,7 km/h (2 Bft)
21.08.2018 12:19 23,8 °C 64 % 1016,2 hPa 0,0 mm 9,7 km/h (2 Bft) N-NW 339 ° 1 min 0,000 mm 5,4 UV-I 747 W/m² 16,6 °C 23,8 °C 16,1 km/h (3 Bft)
21.08.2018 12:20 23,9 °C 64 % 1016,2 hPa 0,0 mm 10,9 km/h (2 Bft) O-NO 59 ° 1 min 0,000 mm 5,3 UV-I 747 W/m² 16,7 °C 23,9 °C 17,7 km/h (3 Bft)
21.08.2018 12:21 24,0 °C 62 % 1016,2 hPa 0,0 mm 6,0 km/h (2 Bft) NW 321 ° 1 min 0,000 mm 5,3 UV-I 744 W/m² 16,3 °C 24,0 °C 9,7 km/h (2 Bft)
21.08.2018 12:22 24,1 °C 63 % 1016,2 hPa 0,0 mm 4,9 km/h (1 Bft) NO 49 ° 1 min 0,000 mm 5,3 UV-I 742 W/m² 16,6 °C 24,1 °C 8,0 km/h (2 Bft)
21.08.2018 12:23 24,1 °C 63 % 1016,2 hPa 0,0 mm 3,2 km/h (1 Bft) O-NO 58 ° 1 min 0,000 mm 5,4 UV-I 742 W/m² 16,6 °C 24,1 °C 4,8 km/h (1 Bft)
21.08.2018 12:24 24,1 °C 61 % 1016,2 hPa 0,0 mm 7,3 km/h (2 Bft) N 351 ° 1 min 0,000 mm 5,4 UV-I 744 W/m² 16,1 °C 24,1 °C 14,5 km/h (3 Bft)
21.08.2018 12:25 24,2 °C 62 % 1016,2 hPa 0,0 mm 8,0 km/h (2 Bft) N-NO 19 ° 1 min 0,000 mm 5,4 UV-I 744 W/m² 16,4 °C 24,2 °C 12,9 km/h (3 Bft)
21.08.2018 12:26 24,2 °C 61 % 1016,2 hPa 0,0 mm 3,8 km/h (1 Bft) N 351 ° 1 min 0,000 mm 5,4 UV-I 749 W/m² 16,2 °C 24,2 °C 4,8 km/h (1 Bft)
21.08.2018 12:27 24,3 °C 62 % 1016,2 hPa 0,0 mm 5,6 km/h (1 Bft) N-NO 15 ° 1 min 0,000 mm 5,4 UV-I 751 W/m² 16,5 °C 24,3 °C 9,7 km/h (2 Bft)
21.08.2018 12:28 24,2 °C 62 % 1016,2 hPa 0,0 mm 3,8 km/h (1 Bft) N-NW 344 ° 1 min 0,000 mm 5,4 UV-I 752 W/m² 16,4 °C 24,2 °C 14,5 km/h (3 Bft)
21.08.2018 12:29 24,2 °C 62 % 1016,2 hPa 0,0 mm 10,0 km/h (2 Bft) NW 324 ° 1 min 0,000 mm 5,5 UV-I 754 W/m² 16,4 °C 24,2 °C 14,5 km/h (3 Bft)
21.08.2018 12:30 24,2 °C 62 % 1016,1 hPa 0,0 mm 9,9 km/h (2 Bft) N-NW 347 ° 1 min 0,000 mm 5,5 UV-I 751 W/m² 16,4 °C 24,2 °C 14,5 km/h (3 Bft)
21.08.2018 12:31 24,3 °C 63 % 1016,1 hPa 0,0 mm 5,3 km/h (1 Bft) NO 54 ° 1 min 0,000 mm 5,5 UV-I 758 W/m² 16,8 °C 24,3 °C 9,7 km/h (2 Bft)
21.08.2018 12:32 24,3 °C 61 % 1016,2 hPa 0,0 mm 8,9 km/h (2 Bft) O-NO 65 ° 1 min 0,000 mm 5,5 UV-I 758 W/m² 16,3 °C 24,3 °C 11,3 km/h (2 Bft)
21.08.2018 12:33 24,3 °C 62 % 1016,2 hPa 0,0 mm 7,8 km/h (2 Bft) NO 44 ° 1 min 0,000 mm 5,5 UV-I 751 W/m² 16,5 °C 24,3 °C 14,5 km/h (3 Bft)
21.08.2018 12:34 24,3 °C 62 % 1016,2 hPa 0,0 mm 5,1 km/h (1 Bft) NO 45 ° 1 min 0,000 mm 5,5 UV-I 759 W/m² 16,5 °C 24,3 °C 9,7 km/h (2 Bft)
21.08.2018 12:35 24,2 °C 61 % 1016,2 hPa 0,0 mm 3,3 km/h (1 Bft) O-NO 60 ° 1 min 0,000 mm 5,5 UV-I 756 W/m² 16,2 °C 24,2 °C 4,8 km/h (1 Bft)
21.08.2018 12:36 24,2 °C 61 % 1016,1 hPa 0,0 mm 4,8 km/h (1 Bft) O-NO 69 ° 1 min 0,000 mm 5,5 UV-I 752 W/m² 16,2 °C 24,2 °C 8,0 km/h (2 Bft)
21.08.2018 12:37 24,2 °C 61 % 1016,1 hPa 0,0 mm 8,9 km/h (2 Bft) O 96 ° 1 min 0,000 mm 5,4 UV-I 756 W/m² 16,2 °C 24,2 °C 16,1 km/h (3 Bft)
21.08.2018 12:38 24,3 °C 62 % 1016,1 hPa 0,0 mm 5,8 km/h (2 Bft) O-NO 77 ° 1 min 0,000 mm 5,5 UV-I 756 W/m² 16,5 °C 24,3 °C 12,9 km/h (3 Bft)
21.08.2018 12:39 24,3 °C 62 % 1016,1 hPa 0,0 mm 11,8 km/h (2 Bft) NO 34 ° 1 min 0,000 mm 5,5 UV-I 758 W/m² 16,5 °C 24,3 °C 17,7 km/h (3 Bft)
21.08.2018 12:40 24,3 °C 63 % 1016,1 hPa 0,0 mm 3,9 km/h (1 Bft) N-NO 16 ° 1 min 0,000 mm 5,5 UV-I 761 W/m² 16,8 °C 24,3 °C 9,7 km/h (2 Bft)
21.08.2018 12:41 24,3 °C 61 % 1016,1 hPa 0,0 mm 6,8 km/h (2 Bft) NO 44 ° 1 min 0,000 mm 5,5 UV-I 763 W/m² 16,3 °C 24,3 °C 11,3 km/h (2 Bft)
21.08.2018 12:42 24,3 °C 61 % 1016,1 hPa 0,0 mm 4,8 km/h (1 Bft) NO 44 ° 1 min 0,000 mm 5,6 UV-I 766 W/m² 16,3 °C 24,3 °C 14,5 km/h (3 Bft)
21.08.2018 12:43 24,3 °C 61 % 1016,1 hPa 0,0 mm 11,6 km/h (2 Bft) NO 53 ° 1 min 0,000 mm 5,6 UV-I 765 W/m² 16,3 °C 24,3 °C 17,7 km/h (3 Bft)
21.08.2018 12:44 24,3 °C 61 % 1016,1 hPa 0,0 mm 2,6 km/h (1 Bft) NO 49 ° 1 min 0,000 mm 5,5 UV-I 761 W/m² 16,3 °C 24,3 °C 8,0 km/h (2 Bft)
21.08.2018 12:45 24,2 °C 62 % 1016,1 hPa 0,0 mm 7,5 km/h (2 Bft) NO 45 ° 1 min 0,000 mm 5,5 UV-I 752 W/m² 16,4 °C 24,2 °C 12,9 km/h (3 Bft)
21.08.2018 12:46 24,3 °C 62 % 1016,0 hPa 0,0 mm 4,4 km/h (1 Bft) N-NO 32 ° 1 min 0,000 mm 5,5 UV-I 759 W/m² 16,5 °C 24,3 °C 8,0 km/h (2 Bft)
21.08.2018 12:47 24,3 °C 61 % 1016,0 hPa 0,0 mm 1,5 km/h (1 Bft) NO 36 ° 1 min 0,000 mm 5,5 UV-I 763 W/m² 16,3 °C 24,3 °C 3,2 km/h (1 Bft)
21.08.2018 12:48 24,4 °C 61 % 1016,0 hPa 0,0 mm 1,5 km/h (1 Bft) NO 36 ° 1 min 0,000 mm 5,5 UV-I 770 W/m² 16,4 °C 24,4 °C 3,2 km/h (1 Bft)
21.08.2018 12:49 24,4 °C 63 % 1015,9 hPa 0,0 mm 3,5 km/h (1 Bft) O-SO 106 ° 1 min 0,000 mm 5,6 UV-I 773 W/m² 16,9 °C 24,4 °C 9,7 km/h (2 Bft)
21.08.2018 12:50 24,4 °C 62 % 1015,9 hPa 0,0 mm 1,0 km/h (0 Bft) O-NO 59 ° 1 min 0,000 mm 5,6 UV-I 775 W/m² 16,6 °C 24,4 °C 3,2 km/h (1 Bft)
21.08.2018 12:51 24,4 °C 61 % 1015,8 hPa 0,0 mm 1,8 km/h (1 Bft) O 90 ° 1 min 0,000 mm 5,6 UV-I 773 W/m² 16,4 °C 24,4 °C 3,2 km/h (1 Bft)
21.08.2018 12:52 24,4 °C 64 % 1015,8 hPa 0,0 mm 0,5 km/h (0 Bft) O 90 ° 1 min 0,000 mm 5,7 UV-I 775 W/m² 17,1 °C 24,4 °C 1,6 km/h (1 Bft)
21.08.2018 12:53 24,4 °C 61 % 1015,9 hPa 0,0 mm 4,5 km/h (1 Bft) NO 53 ° 1 min 0,000 mm 5,6 UV-I 770 W/m² 16,4 °C 24,4 °C 9,7 km/h (2 Bft)
21.08.2018 12:54 24,4 °C 61 % 1015,9 hPa 0,0 mm 5,0 km/h (1 Bft) NO 53 ° 1 min 0,000 mm 5,6 UV-I 761 W/m² 16,4 °C 24,4 °C 6,4 km/h (2 Bft)
21.08.2018 12:55 24,5 °C 61 % 1015,9 hPa 0,0 mm 7,2 km/h (2 Bft) O-NO 61 ° 1 min 0,000 mm 5,6 UV-I 770 W/m² 16,5 °C 24,5 °C 14,5 km/h (3 Bft)
21.08.2018 12:56 24,4 °C 62 % 1015,9 hPa 0,0 mm 5,8 km/h (2 Bft) O-NO 66 ° 1 min 0,000 mm 5,7 UV-I 773 W/m² 16,6 °C 24,4 °C 9,7 km/h (2 Bft)
21.08.2018 12:57 24,4 °C 61 % 1015,8 hPa 0,0 mm 6,2 km/h (2 Bft) O 87 ° 1 min 0,000 mm 5,7 UV-I 775 W/m² 16,4 °C 24,4 °C 9,7 km/h (2 Bft)
21.08.2018 12:58 24,3 °C 60 % 1015,9 hPa 0,0 mm 8,5 km/h (2 Bft) O 101 ° 1 min 0,000 mm 5,6 UV-I 773 W/m² 16,0 °C 24,3 °C 12,9 km/h (3 Bft)
21.08.2018 12:59 24,3 °C 61 % 1015,8 hPa 0,0 mm 4,4 km/h (1 Bft) O-SO 122 ° 1 min 0,000 mm 5,7 UV-I 775 W/m² 16,3 °C 24,3 °C 11,3 km/h (2 Bft)
21.08.2018 13:00 24,3 °C 61 % 1015,8 hPa 0,0 mm 4,9 km/h (1 Bft) NO 51 ° 1 min 0,000 mm 5,7 UV-I 775 W/m² 16,3 °C 24,3 °C 8,0 km/h (2 Bft)
21.08.2018 13:01 24,3 °C 60 % 1015,8 hPa 0,0 mm 3,9 km/h (1 Bft) N-NO 31 ° 1 min 0,483 mm 5,7 UV-I 775 W/m² 16,0 °C 24,3 °C 6,4 km/h (2 Bft)
21.08.2018 13:02 24,4 °C 62 % 1015,8 hPa 0,0 mm 5,2 km/h (1 Bft) NO 55 ° 1 min 0,000 mm 5,7 UV-I 777 W/m² 16,6 °C 24,4 °C 8,0 km/h (2 Bft)
21.08.2018 13:03 24,6 °C 61 % 1015,8 hPa 0,0 mm 6,2 km/h (2 Bft) N-NO 24 ° 1 min 0,000 mm 5,7 UV-I 777 W/m² 16,6 °C 24,6 °C 11,3 km/h (2 Bft)
21.08.2018 13:04 24,8 °C 63 % 1015,8 hPa 0,0 mm 5,6 km/h (1 Bft) N-NW 343 ° 1 min 0,000 mm 5,7 UV-I 773 W/m² 17,3 °C 24,8 °C 12,9 km/h (3 Bft)
21.08.2018 13:05 25,0 °C 60 % 1015,8 hPa 0,0 mm 3,9 km/h (1 Bft) NO 53 ° 1 min 0,000 mm 5,7 UV-I 775 W/m² 16,7 °C 25,0 °C 8,0 km/h (2 Bft)
21.08.2018 13:06 24,9 °C 60 % 1015,8 hPa 0,0 mm 3,5 km/h (1 Bft) N-NO 24 ° 1 min 0,000 mm 5,6 UV-I 768 W/m² 16,6 °C 24,9 °C 6,4 km/h (2 Bft)
21.08.2018 13:07 24,9 °C 60 % 1015,8 hPa 0,0 mm 5,9 km/h (2 Bft) NO 53 ° 1 min 0,000 mm 5,6 UV-I 768 W/m² 16,6 °C 24,9 °C 11,3 km/h (2 Bft)
21.08.2018 13:08 25,0 °C 60 % 1015,8 hPa 0,0 mm 7,1 km/h (2 Bft) O-NO 68 ° 1 min 0,000 mm 5,6 UV-I 768 W/m² 16,7 °C 25,0 °C 11,3 km/h (2 Bft)
21.08.2018 13:09 25,0 °C 60 % 1015,8 hPa 0,0 mm 6,8 km/h (2 Bft) O-SO 114 ° 1 min 0,000 mm 5,6 UV-I 770 W/m² 16,7 °C 25,0 °C 11,3 km/h (2 Bft)
21.08.2018 13:10 24,9 °C 59 % 1015,8 hPa 0,0 mm 5,0 km/h (1 Bft) SO 134 ° 1 min 0,000 mm 5,6 UV-I 772 W/m² 16,3 °C 24,9 °C 11,3 km/h (2 Bft)
21.08.2018 13:11 24,7 °C 59 % 1015,8 hPa 0,0 mm 4,6 km/h (1 Bft) SO 128 ° 1 min 0,000 mm 5,7 UV-I 773 W/m² 16,1 °C 24,7 °C 9,7 km/h (2 Bft)
21.08.2018 13:12 24,7 °C 64 % 1015,8 hPa 0,0 mm 3,0 km/h (1 Bft) N 5 ° 1 min 0,000 mm 5,7 UV-I 777 W/m² 17,4 °C 24,7 °C 4,8 km/h (1 Bft)
21.08.2018 13:13 24,7 °C 64 % 1015,7 hPa 0,0 mm 6,4 km/h (2 Bft) N 5 ° 1 min 0,000 mm 5,7 UV-I 777 W/m² 17,4 °C 24,7 °C 12,9 km/h (3 Bft)
21.08.2018 13:14 24,8 °C 62 % 1015,7 hPa 0,0 mm 8,7 km/h (2 Bft) NO 46 ° 1 min 0,000 mm 5,7 UV-I 779 W/m² 17,0 °C 24,8 °C 12,9 km/h (3 Bft)
21.08.2018 13:15 24,9 °C 60 % 1015,7 hPa 0,0 mm 8,2 km/h (2 Bft) N-NO 14 ° 1 min 0,000 mm 5,6 UV-I 772 W/m² 16,6 °C 24,9 °C 14,5 km/h (3 Bft)
21.08.2018 13:16 25,0 °C 61 % 1015,7 hPa 0,0 mm 10,9 km/h (2 Bft) O 89 ° 1 min 0,000 mm 5,6 UV-I 770 W/m² 16,9 °C 25,0 °C 16,1 km/h (3 Bft)
21.08.2018 13:17 25,0 °C 59 % 1015,8 hPa 0,0 mm 11,1 km/h (2 Bft) N-NO 32 ° 1 min 0,000 mm 5,7 UV-I 773 W/m² 16,4 °C 25,0 °C 17,7 km/h (3 Bft)
21.08.2018 13:18 25,1 °C 59 % 1015,8 hPa 0,0 mm 7,8 km/h (2 Bft) N-NO 19 ° 1 min 0,000 mm 5,7 UV-I 775 W/m² 16,5 °C 25,1 °C 16,1 km/h (3 Bft)
21.08.2018 13:19 25,1 °C 60 % 1015,7 hPa 0,0 mm 6,4 km/h (2 Bft) N 5 ° 1 min 0,000 mm 5,7 UV-I 777 W/m² 16,8 °C 25,1 °C 9,7 km/h (2 Bft)
21.08.2018 13:20 25,1 °C 59 % 1015,7 hPa 0,0 mm 5,5 km/h (1 Bft) N-NO 31 ° 1 min 0,000 mm 5,7 UV-I 780 W/m² 16,5 °C 25,1 °C 8,0 km/h (2 Bft)
21.08.2018 13:21 25,1 °C 60 % 1015,6 hPa 0,0 mm 6,6 km/h (2 Bft) N 360 ° 1 min 0,000 mm 5,7 UV-I 779 W/m² 16,8 °C 25,1 °C 11,3 km/h (2 Bft)
21.08.2018 13:22 25,1 °C 63 % 1015,7 hPa 0,0 mm 8,0 km/h (2 Bft) NW 319 ° 1 min 0,000 mm 5,6 UV-I 773 W/m² 17,5 °C 25,1 °C 14,5 km/h (3 Bft)
21.08.2018 13:23 25,2 °C 60 % 1015,6 hPa 0,0 mm 6,8 km/h (2 Bft) N 5 ° 1 min 0,000 mm 5,6 UV-I 773 W/m² 16,9 °C 25,2 °C 9,7 km/h (2 Bft)
21.08.2018 13:24 25,3 °C 60 % 1015,6 hPa 0,0 mm 9,9 km/h (2 Bft) NO 38 ° 1 min 0,000 mm 5,7 UV-I 775 W/m² 17,0 °C 25,3 °C 17,7 km/h (3 Bft)
21.08.2018 13:25 25,3 °C 59 % 1015,7 hPa 0,0 mm 6,7 km/h (2 Bft) NO 47 ° 1 min 0,000 mm 5,6 UV-I 772 W/m² 16,7 °C 25,3 °C 9,7 km/h (2 Bft)
21.08.2018 13:26 25,2 °C 58 % 1015,6 hPa 0,0 mm 9,7 km/h (2 Bft) O 80 ° 1 min 0,000 mm 5,6 UV-I 765 W/m² 16,3 °C 25,2 °C 17,7 km/h (3 Bft)
21.08.2018 13:27 25,1 °C 58 % 1015,7 hPa 0,0 mm 9,1 km/h (2 Bft) NO 50 ° 1 min 0,000 mm 5,6 UV-I 756 W/m² 16,2 °C 25,1 °C 14,5 km/h (3 Bft)
21.08.2018 13:28 24,9 °C 58 % 1015,7 hPa 0,0 mm 3,6 km/h (1 Bft) O-NO 63 ° 1 min 0,000 mm 5,6 UV-I 770 W/m² 16,1 °C 24,9 °C 8,0 km/h (2 Bft)
21.08.2018 13:29 24,9 °C 60 % 1015,6 hPa 0,0 mm 5,0 km/h (1 Bft) O-NO 63 ° 1 min 0,000 mm 5,6 UV-I 770 W/m² 16,6 °C 24,9 °C 12,9 km/h (3 Bft)
21.08.2018 13:30 24,9 °C 60 % 1015,6 hPa 0,0 mm 9,0 km/h (2 Bft) NO 44 ° 1 min 0,000 mm 5,6 UV-I 770 W/m² 16,6 °C 24,9 °C 12,9 km/h (3 Bft)
21.08.2018 13:31 25,0 °C 60 % 1015,6 hPa 0,0 mm 7,8 km/h (2 Bft) O-NO 76 ° 1 min 0,000 mm 5,6 UV-I 770 W/m² 16,7 °C 25,0 °C 14,5 km/h (3 Bft)
21.08.2018 13:32 25,1 °C 61 % 1015,6 hPa 0,0 mm 4,5 km/h (1 Bft) O-NO 59 ° 1 min 0,000 mm 5,6 UV-I 768 W/m² 17,0 °C 25,1 °C 9,7 km/h (2 Bft)
21.08.2018 13:33 25,1 °C 59 % 1015,6 hPa 0,0 mm 2,8 km/h (1 Bft) N-NW 337 ° 1 min 0,000 mm 5,6 UV-I 775 W/m² 16,5 °C 25,1 °C 6,4 km/h (2 Bft)
21.08.2018 13:34 25,1 °C 59 % 1015,6 hPa 0,0 mm 2,9 km/h (1 Bft) N-NO 24 ° 1 min 0,000 mm 5,6 UV-I 772 W/m² 16,5 °C 25,1 °C 6,4 km/h (2 Bft)
21.08.2018 13:35 25,1 °C 59 % 1015,6 hPa 0,0 mm 0,9 km/h (0 Bft) N-NO 24 ° 1 min 0,000 mm 5,6 UV-I 766 W/m² 16,5 °C 25,1 °C 3,2 km/h (1 Bft)
21.08.2018 13:36 25,1 °C 59 % 1015,6 hPa 0,0 mm 2,2 km/h (1 Bft) NO 49 ° 1 min 0,000 mm 5,6 UV-I 766 W/m² 16,5 °C 25,1 °C 4,8 km/h (1 Bft)
21.08.2018 13:37 25,1 °C 59 % 1015,6 hPa 0,0 mm 5,7 km/h (1 Bft) O-NO 63 ° 1 min 0,000 mm 5,6 UV-I 770 W/m² 16,5 °C 25,1 °C 12,9 km/h (3 Bft)
21.08.2018 13:38 25,2 °C 60 % 1015,6 hPa 0,0 mm 5,5 km/h (1 Bft) O-SO 123 ° 1 min 0,000 mm 5,6 UV-I 772 W/m² 16,9 °C 25,2 °C 8,0 km/h (2 Bft)
21.08.2018 13:39 25,2 °C 59 % 1015,6 hPa 0,0 mm 1,2 km/h (1 Bft) O-NO 64 ° 1 min 0,000 mm 5,7 UV-I 775 W/m² 16,6 °C 25,2 °C 4,8 km/h (1 Bft)
21.08.2018 13:40 25,2 °C 59 % 1015,6 hPa 0,0 mm 1,9 km/h (1 Bft) O 85 ° 1 min 0,000 mm 5,7 UV-I 773 W/m² 16,6 °C 25,2 °C 3,2 km/h (1 Bft)
21.08.2018 13:41 25,2 °C 59 % 1015,6 hPa 0,0 mm 7,4 km/h (2 Bft) O 82 ° 1 min 0,000 mm 5,7 UV-I 772 W/m² 16,6 °C 25,2 °C 12,9 km/h (3 Bft)
21.08.2018 13:42 25,3 °C 60 % 1015,6 hPa 0,0 mm 7,7 km/h (2 Bft) O-NO 75 ° 1 min 0,000 mm 4,0 UV-I 772 W/m² 17,0 °C 25,3 °C 14,5 km/h (3 Bft)
21.08.2018 13:43 25,2 °C 60 % 1015,6 hPa 0,0 mm 7,0 km/h (2 Bft) N-NW 331 ° 1 min 0,000 mm 5,6 UV-I 768 W/m² 16,9 °C 25,2 °C 14,5 km/h (3 Bft)
21.08.2018 13:44 25,2 °C 59 % 1015,6 hPa 0,0 mm 3,4 km/h (1 Bft) O-NO 74 ° 1 min 0,000 mm 5,6 UV-I 766 W/m² 16,6 °C 25,2 °C 6,4 km/h (2 Bft)
21.08.2018 13:45 25,2 °C 61 % 1015,6 hPa 0,0 mm 2,2 km/h (1 Bft) N-NO 28 ° 1 min 0,000 mm 5,6 UV-I 766 W/m² 17,1 °C 25,2 °C 4,8 km/h (1 Bft)
21.08.2018 13:46 25,1 °C 60 % 1015,5 hPa 0,0 mm 2,2 km/h (1 Bft) NO 41 ° 1 min 0,000 mm 5,6 UV-I 766 W/m² 16,8 °C 25,1 °C 4,8 km/h (1 Bft)
21.08.2018 13:47 25,2 °C 61 % 1015,5 hPa 0,0 mm 9,0 km/h (2 Bft) NO 44 ° 1 min 0,000 mm 5,6 UV-I 768 W/m² 17,1 °C 25,2 °C 12,9 km/h (3 Bft)
21.08.2018 13:48 25,3 °C 61 % 1015,5 hPa 0,0 mm 5,6 km/h (1 Bft) NO 45 ° 1 min 0,000 mm 5,6 UV-I 770 W/m² 17,2 °C 25,3 °C 11,3 km/h (2 Bft)
21.08.2018 13:49 25,4 °C 61 % 1015,5 hPa 0,0 mm 4,6 km/h (1 Bft) O 94 ° 1 min 0,000 mm 5,6 UV-I 772 W/m² 17,3 °C 25,4 °C 12,9 km/h (3 Bft)
21.08.2018 13:50 25,4 °C 62 % 1015,5 hPa 0,0 mm 3,6 km/h (1 Bft) O-NO 60 ° 1 min 0,000 mm 5,6 UV-I 773 W/m² 17,6 °C 25,4 °C 9,7 km/h (2 Bft)
21.08.2018 13:51 25,5 °C 60 % 1015,5 hPa 0,0 mm 5,5 km/h (1 Bft) NO 55 ° 1 min 0,000 mm 5,6 UV-I 775 W/m² 17,2 °C 25,5 °C 8,0 km/h (2 Bft)
21.08.2018 13:52 25,5 °C 58 % 1015,5 hPa 0,0 mm 6,0 km/h (2 Bft) N-NO 15 ° 1 min 0,000 mm 5,6 UV-I 775 W/m² 16,6 °C 25,5 °C 9,7 km/h (2 Bft)
21.08.2018 13:53 25,4 °C 60 % 1015,5 hPa 0,0 mm 7,9 km/h (2 Bft) N 350 ° 1 min 0,000 mm 5,6 UV-I 768 W/m² 17,1 °C 25,4 °C 12,9 km/h (3 Bft)
21.08.2018 13:54 25,4 °C 59 % 1015,5 hPa 0,0 mm 10,9 km/h (2 Bft) NO 55 ° 1 min 0,000 mm 5,6 UV-I 768 W/m² 16,8 °C 25,4 °C 16,1 km/h (3 Bft)
21.08.2018 13:55 25,5 °C 58 % 1015,5 hPa 0,0 mm 5,2 km/h (1 Bft) O-NO 67 ° 1 min 0,000 mm 5,6 UV-I 772 W/m² 16,6 °C 25,5 °C 9,7 km/h (2 Bft)
21.08.2018 13:56 25,4 °C 60 % 1015,5 hPa 0,0 mm 5,5 km/h (1 Bft) O 83 ° 1 min 0,000 mm 5,6 UV-I 773 W/m² 17,1 °C 25,4 °C 8,0 km/h (2 Bft)
21.08.2018 13:57 25,3 °C 59 % 1015,5 hPa 0,0 mm 7,0 km/h (2 Bft) O 79 ° 1 min 0,000 mm 5,6 UV-I 775 W/m² 16,7 °C 25,3 °C 11,3 km/h (2 Bft)
21.08.2018 13:58 25,2 °C 60 % 1015,4 hPa 0,0 mm 5,5 km/h (1 Bft) O-NO 71 ° 1 min 0,000 mm 5,6 UV-I 779 W/m² 16,9 °C 25,2 °C 11,3 km/h (2 Bft)
21.08.2018 13:59 25,3 °C 61 % 1015,4 hPa 0,0 mm 5,1 km/h (1 Bft) O-NO 73 ° 1 min 0,000 mm 5,6 UV-I 789 W/m² 17,2 °C 25,3 °C 6,4 km/h (2 Bft)
21.08.2018 14:00 25,5 °C 62 % 1015,4 hPa 0,0 mm 7,3 km/h (2 Bft) O-NO 72 ° 1 min 0,508 mm 5,6 UV-I 795 W/m² 17,7 °C 25,5 °C 9,7 km/h (2 Bft)
21.08.2018 14:01 25,4 °C 59 % 1015,4 hPa 0,0 mm 3,4 km/h (1 Bft) O-NO 71 ° 1 min 0,000 mm 5,6 UV-I 795 W/m² 16,8 °C 25,4 °C 6,4 km/h (2 Bft)
21.08.2018 14:02 25,4 °C 59 % 1015,4 hPa 0,0 mm 7,0 km/h (2 Bft) NO 42 ° 1 min 0,000 mm 5,6 UV-I 798 W/m² 16,8 °C 25,4 °C 8,0 km/h (2 Bft)
21.08.2018 14:03 25,4 °C 59 % 1015,4 hPa 0,0 mm 3,0 km/h (1 Bft) N-NO 32 ° 1 min 0,000 mm 5,6 UV-I 803 W/m² 16,8 °C 25,4 °C 4,8 km/h (1 Bft)
21.08.2018 14:04 25,6 °C 60 % 1015,3 hPa 0,0 mm 2,5 km/h (1 Bft) NO 40 ° 1 min 0,000 mm 5,6 UV-I 805 W/m² 17,2 °C 25,6 °C 4,8 km/h (1 Bft)
21.08.2018 14:05 25,6 °C 62 % 1015,4 hPa 0,0 mm 3,3 km/h (1 Bft) O-SO 104 ° 1 min 0,000 mm 5,6 UV-I 793 W/m² 17,8 °C 25,6 °C 6,4 km/h (2 Bft)
21.08.2018 14:06 25,7 °C 62 % 1015,4 hPa 0,0 mm 2,2 km/h (1 Bft) O-SO 105 ° 1 min 0,000 mm 5,5 UV-I 784 W/m² 17,9 °C 25,7 °C 4,8 km/h (1 Bft)
21.08.2018 14:07 25,7 °C 60 % 1015,3 hPa 0,0 mm 3,2 km/h (1 Bft) O-SO 107 ° 1 min 0,000 mm 5,4 UV-I 780 W/m² 17,3 °C 25,7 °C 4,8 km/h (1 Bft)
21.08.2018 14:08 25,7 °C 58 % 1015,3 hPa 0,0 mm 5,5 km/h (1 Bft) O 93 ° 1 min 0,000 mm 5,4 UV-I 780 W/m² 16,8 °C 25,7 °C 6,4 km/h (2 Bft)
21.08.2018 14:09 25,8 °C 62 % 1015,2 hPa 0,0 mm 6,4 km/h (2 Bft) NO 45 ° 1 min 0,000 mm 5,5 UV-I 782 W/m² 18,0 °C 25,8 °C 12,9 km/h (3 Bft)
21.08.2018 14:10 25,8 °C 58 % 1015,4 hPa 0,0 mm 3,2 km/h (1 Bft) SO 135 ° 1 min 0,000 mm 5,5 UV-I 780 W/m² 16,9 °C 25,8 °C 6,4 km/h (2 Bft)
21.08.2018 14:11 25,8 °C 59 % 1015,4 hPa 0,0 mm 4,8 km/h (1 Bft) O-SO 112 ° 1 min 0,000 mm 5,5 UV-I 775 W/m² 17,2 °C 25,8 °C 11,3 km/h (2 Bft)
21.08.2018 14:12 25,7 °C 58 % 1015,3 hPa 0,0 mm 4,8 km/h (1 Bft) S 180 ° 1 min 0,000 mm 5,5 UV-I 770 W/m² 16,8 °C 25,7 °C 11,3 km/h (2 Bft)
21.08.2018 14:13 25,6 °C 60 % 1015,3 hPa 0,0 mm 3,2 km/h (1 Bft) O-NO 67 ° 1 min 0,000 mm 5,5 UV-I 772 W/m² 17,2 °C 25,6 °C 4,8 km/h (1 Bft)
21.08.2018 14:14 25,7 °C 58 % 1015,3 hPa 0,0 mm 4,8 km/h (1 Bft) O-NO 67 ° 1 min 0,000 mm 5,5 UV-I 773 W/m² 16,8 °C 25,7 °C 11,3 km/h (2 Bft)
21.08.2018 14:15 25,7 °C 58 % 1015,2 hPa 0,0 mm 6,4 km/h (2 Bft) NO 45 ° 1 min 0,000 mm 5,5 UV-I 777 W/m² 16,8 °C 25,7 °C 12,9 km/h (3 Bft)
21.08.2018 14:16 25,8 °C 58 % 1015,3 hPa 0,0 mm 3,2 km/h (1 Bft) N-NO 22 ° 1 min 0,000 mm 5,5 UV-I 786 W/m² 16,9 °C 25,8 °C 8,0 km/h (2 Bft)
21.08.2018 14:17 25,9 °C 59 % 1015,2 hPa 0,0 mm 6,4 km/h (2 Bft) N-NO 22 ° 1 min 0,000 mm 5,5 UV-I 789 W/m² 17,3 °C 25,9 °C 11,3 km/h (2 Bft)
21.08.2018 14:18 25,9 °C 59 % 1015,2 hPa 0,0 mm 8,0 km/h (2 Bft) NO 45 ° 1 min 0,000 mm 5,5 UV-I 795 W/m² 17,3 °C 25,9 °C 16,1 km/h (3 Bft)
21.08.2018 14:19 25,9 °C 57 % 1015,2 hPa 0,0 mm 6,4 km/h (2 Bft) N-NO 22 ° 1 min 0,000 mm 5,5 UV-I 793 W/m² 16,7 °C 25,9 °C 12,9 km/h (3 Bft)
21.08.2018 14:20 25,9 °C 57 % 1015,2 hPa 0,0 mm 6,4 km/h (2 Bft) NO 45 ° 1 min 0,000 mm 5,4 UV-I 789 W/m² 16,7 °C 25,9 °C 9,7 km/h (2 Bft)
21.08.2018 14:21 26,1 °C 58 % 1015,2 hPa 0,0 mm 3,2 km/h (1 Bft) NO 45 ° 1 min 0,000 mm 5,4 UV-I 789 W/m² 17,2 °C 26,1 °C 8,0 km/h (2 Bft)
21.08.2018 14:22 26,2 °C 59 % 1015,2 hPa 0,0 mm 4,8 km/h (1 Bft) NO 45 ° 1 min 0,000 mm 5,4 UV-I 791 W/m² 17,5 °C 26,2 °C 8,0 km/h (2 Bft)
21.08.2018 14:23 26,2 °C 57 % 1015,2 hPa 0,0 mm 4,8 km/h (1 Bft) NO 45 ° 1 min 0,000 mm 5,4 UV-I 777 W/m² 17,0 °C 26,2 °C 12,9 km/h (3 Bft)
21.08.2018 14:24 26,3 °C 57 % 1015,1 hPa 0,0 mm 8,0 km/h (2 Bft) N-NO 22 ° 1 min 0,000 mm 5,4 UV-I 773 W/m² 17,1 °C 26,3 °C 11,3 km/h (2 Bft)
21.08.2018 14:25 26,3 °C 57 % 1015,1 hPa 0,0 mm 8,0 km/h (2 Bft) N 360 ° 1 min 0,000 mm 5,4 UV-I 773 W/m² 17,1 °C 26,3 °C 11,3 km/h (2 Bft)
21.08.2018 14:26 26,3 °C 58 % 1015,1 hPa 0,0 mm 8,0 km/h (2 Bft) N 360 ° 1 min 0,000 mm 5,4 UV-I 780 W/m² 17,4 °C 26,3 °C 12,9 km/h (3 Bft)
21.08.2018 14:27 26,3 °C 59 % 1015,1 hPa 0,0 mm 6,4 km/h (2 Bft) N-NW 337 ° 1 min 0,000 mm 5,4 UV-I 784 W/m² 17,6 °C 26,3 °C 9,7 km/h (2 Bft)
21.08.2018 14:28 26,3 °C 59 % 1015,1 hPa 0,0 mm 3,2 km/h (1 Bft) NW 315 ° 1 min 0,000 mm 5,4 UV-I 789 W/m² 17,6 °C 26,3 °C 8,0 km/h (2 Bft)
21.08.2018 14:29 26,2 °C 57 % 1015,2 hPa 0,0 mm 6,4 km/h (2 Bft) N 360 ° 1 min 0,000 mm 5,4 UV-I 795 W/m² 17,0 °C 26,2 °C 12,9 km/h (3 Bft)
21.08.2018 14:30 26,2 °C 58 % 1015,1 hPa 0,0 mm 4,8 km/h (1 Bft) N 360 ° 1 min 0,000 mm 5,2 UV-I 793 W/m² 17,3 °C 26,2 °C 8,0 km/h (2 Bft)
21.08.2018 14:31 26,3 °C 59 % 1015,1 hPa 0,0 mm 6,4 km/h (2 Bft) N 360 ° 1 min 0,000 mm 5,1 UV-I 796 W/m² 17,6 °C 26,3 °C 12,9 km/h (3 Bft)
21.08.2018 14:32 26,3 °C 58 % 1015,1 hPa 0,0 mm 6,4 km/h (2 Bft) N 360 ° 1 min 0,000 mm 3,3 UV-I 796 W/m² 17,4 °C 26,3 °C 8,0 km/h (2 Bft)
21.08.2018 14:33 26,3 °C 57 % 1015,1 hPa 0,0 mm 4,8 km/h (1 Bft) NO 45 ° 1 min 0,000 mm 3,1 UV-I 796 W/m² 17,1 °C 26,3 °C 8,0 km/h (2 Bft)
21.08.2018 14:34 26,1 °C 57 % 1015,1 hPa 0,0 mm 4,8 km/h (1 Bft) N-NO 22 ° 0 min 0,000 mm 3,1 UV-I 206 W/m² 16,9 °C 26,1 °C 11,3 km/h (2 Bft)
21.08.2018 14:35 25,9 °C 57 % 1015,1 hPa 0,0 mm 3,2 km/h (1 Bft) N 360 ° 0 min 0,000 mm 3,4 UV-I 258 W/m² 16,7 °C 25,9 °C 4,8 km/h (1 Bft)
21.08.2018 14:37 25,7 °C 59 % 1015,0 hPa 0,0 mm 6,9 km/h (2 Bft) O-NO 65 ° 0 min 0,000 mm 4,9 UV-I 308 W/m² 17,1 °C 25,7 °C 11,3 km/h (2 Bft)
21.08.2018 14:38 25,7 °C 58 % 1015,1 hPa 0,0 mm 5,5 km/h (1 Bft) NO 42 ° 1 min 0,000 mm 5,0 UV-I 749 W/m² 16,8 °C 25,7 °C 6,4 km/h (2 Bft)
21.08.2018 14:39 25,7 °C 61 % 1015,1 hPa 0,0 mm 4,5 km/h (1 Bft) NO 51 ° 1 min 0,000 mm 5,0 UV-I 735 W/m² 17,6 °C 25,7 °C 8,0 km/h (2 Bft)
21.08.2018 14:40 25,8 °C 58 % 1015,1 hPa 0,0 mm 13,2 km/h (3 Bft) O-NO 60 ° 1 min 0,000 mm 5,0 UV-I 728 W/m² 16,9 °C 25,8 °C 19,3 km/h (3 Bft)
21.08.2018 14:41 25,8 °C 58 % 1015,1 hPa 0,0 mm 9,6 km/h (2 Bft) O-NO 73 ° 1 min 0,000 mm 5,0 UV-I 731 W/m² 16,9 °C 25,8 °C 14,5 km/h (3 Bft)
21.08.2018 14:42 25,7 °C 58 % 1015,1 hPa 0,0 mm 4,6 km/h (1 Bft) O-NO 57 ° 1 min 0,000 mm 4,9 UV-I 726 W/m² 16,8 °C 25,7 °C 9,7 km/h (2 Bft)
21.08.2018 14:43 25,7 °C 57 % 1015,0 hPa 0,0 mm 3,0 km/h (1 Bft) NO 51 ° 1 min 0,000 mm 5,0 UV-I 728 W/m² 16,5 °C 25,7 °C 6,4 km/h (2 Bft)
21.08.2018 14:44 25,7 °C 61 % 1015,0 hPa 0,0 mm 3,4 km/h (1 Bft) N 5 ° 1 min 0,000 mm 5,1 UV-I 744 W/m² 17,6 °C 25,7 °C 9,7 km/h (2 Bft)
21.08.2018 14:45 25,7 °C 58 % 1015,0 hPa 0,0 mm 8,0 km/h (2 Bft) N 5 ° 1 min 0,000 mm 5,1 UV-I 740 W/m² 16,8 °C 25,7 °C 14,5 km/h (3 Bft)
21.08.2018 14:46 25,8 °C 57 % 1015,0 hPa 0,0 mm 5,9 km/h (2 Bft) N 11 ° 1 min 0,000 mm 5,0 UV-I 733 W/m² 16,6 °C 25,8 °C 9,7 km/h (2 Bft)
21.08.2018 14:47 25,9 °C 58 % 1015,0 hPa 0,0 mm 3,9 km/h (1 Bft) NO 40 ° 1 min 0,000 mm 4,9 UV-I 737 W/m² 17,0 °C 25,9 °C 9,7 km/h (2 Bft)
21.08.2018 14:48 26,1 °C 58 % 1015,0 hPa 0,0 mm 3,0 km/h (1 Bft) O-NO 61 ° 1 min 0,000 mm 4,9 UV-I 726 W/m² 17,2 °C 26,1 °C 8,0 km/h (2 Bft)
21.08.2018 14:49 26,0 °C 57 % 1015,0 hPa 0,0 mm 6,6 km/h (2 Bft) O-NO 68 ° 1 min 0,000 mm 5,0 UV-I 751 W/m² 16,8 °C 26,0 °C 9,7 km/h (2 Bft)
21.08.2018 14:50 25,9 °C 57 % 1014,9 hPa 0,0 mm 3,2 km/h (1 Bft) O-NO 76 ° 1 min 0,000 mm 5,0 UV-I 749 W/m² 16,7 °C 25,9 °C 6,4 km/h (2 Bft)
21.08.2018 14:51 25,9 °C 60 % 1014,8 hPa 0,0 mm 1,6 km/h (1 Bft) O-NO 78 ° 1 min 0,000 mm 5,0 UV-I 751 W/m² 17,5 °C 25,9 °C 4,8 km/h (1 Bft)
21.08.2018 14:52 25,9 °C 57 % 1014,8 hPa 0,0 mm 3,5 km/h (1 Bft) O 88 ° 1 min 0,000 mm 4,9 UV-I 754 W/m² 16,7 °C 25,9 °C 9,7 km/h (2 Bft)
21.08.2018 14:53 25,9 °C 58 % 1014,9 hPa 0,0 mm 7,5 km/h (2 Bft) O-NO 77 ° 1 min 0,000 mm 5,0 UV-I 758 W/m² 17,0 °C 25,9 °C 12,9 km/h (3 Bft)
21.08.2018 14:54 25,9 °C 57 % 1014,9 hPa 0,0 mm 2,9 km/h (1 Bft) O-NO 57 ° 1 min 0,000 mm 4,9 UV-I 747 W/m² 16,7 °C 25,9 °C 6,4 km/h (2 Bft)
21.08.2018 14:55 25,9 °C 57 % 1014,9 hPa 0,0 mm 6,8 km/h (2 Bft) NO 49 ° 1 min 0,000 mm 4,9 UV-I 735 W/m² 16,7 °C 25,9 °C 11,3 km/h (2 Bft)
21.08.2018 14:56 25,8 °C 56 % 1014,9 hPa 0,0 mm 5,0 km/h (1 Bft) O-NO 72 ° 1 min 0,000 mm 4,8 UV-I 719 W/m² 16,3 °C 25,8 °C 9,7 km/h (2 Bft)
21.08.2018 14:57 25,8 °C 58 % 1014,8 hPa 0,0 mm 5,6 km/h (1 Bft) NO 51 ° 1 min 0,000 mm 4,8 UV-I 708 W/m² 16,9 °C 25,8 °C 11,3 km/h (2 Bft)
21.08.2018 14:58 26,0 °C 57 % 1014,8 hPa 0,0 mm 2,1 km/h (1 Bft) O 88 ° 1 min 0,000 mm 4,7 UV-I 696 W/m² 16,8 °C 26,0 °C 6,4 km/h (2 Bft)
21.08.2018 14:59 26,1 °C 57 % 1014,9 hPa 0,0 mm 7,5 km/h (2 Bft) NO 42 ° 1 min 0,000 mm 4,7 UV-I 694 W/m² 16,9 °C 26,1 °C 12,9 km/h (3 Bft)
21.08.2018 15:00 26,1 °C 57 % 1014,8 hPa 0,0 mm 12,7 km/h (3 Bft) O 96 ° 1 min 0,483 mm 4,6 UV-I 682 W/m² 16,9 °C 26,1 °C 16,1 km/h (3 Bft)
21.08.2018 15:01 26,1 °C 57 % 1014,8 hPa 0,0 mm 12,7 km/h (3 Bft) O-NO 67 ° 1 min 0,000 mm 4,5 UV-I 682 W/m² 16,9 °C 26,1 °C 16,1 km/h (3 Bft)
21.08.2018 15:02 26,0 °C 56 % 1014,8 hPa 0,0 mm 13,2 km/h (3 Bft) O 86 ° 1 min 0,000 mm 4,5 UV-I 671 W/m² 16,5 °C 26,0 °C 16,1 km/h (3 Bft)
21.08.2018 15:03 25,9 °C 57 % 1014,9 hPa 0,0 mm 7,2 km/h (2 Bft) NO 38 ° 1 min 0,000 mm 4,2 UV-I 684 W/m² 16,7 °C 25,9 °C 12,9 km/h (3 Bft)
21.08.2018 15:04 26,0 °C 57 % 1014,8 hPa 0,0 mm 10,5 km/h (2 Bft) SO 130 ° 1 min 0,000 mm 4,6 UV-I 694 W/m² 16,8 °C 26,0 °C 14,5 km/h (3 Bft)
21.08.2018 15:05 26,1 °C 57 % 1014,8 hPa 0,0 mm 3,8 km/h (1 Bft) O 99 ° 1 min 0,000 mm 4,6 UV-I 698 W/m² 16,9 °C 26,1 °C 6,4 km/h (2 Bft)
21.08.2018 15:06 25,9 °C 57 % 1014,8 hPa 0,0 mm 4,8 km/h (1 Bft) O 96 ° 1 min 0,000 mm 4,7 UV-I 703 W/m² 16,7 °C 25,9 °C 8,0 km/h (2 Bft)
21.08.2018 15:07 25,9 °C 57 % 1014,8 hPa 0,0 mm 6,6 km/h (2 Bft) O-SO 103 ° 1 min 0,000 mm 4,7 UV-I 703 W/m² 16,7 °C 25,9 °C 11,3 km/h (2 Bft)
21.08.2018 15:08 25,9 °C 56 % 1014,9 hPa 0,0 mm 7,0 km/h (2 Bft) O-SO 114 ° 1 min 0,000 mm 4,7 UV-I 708 W/m² 16,4 °C 25,9 °C 12,9 km/h (3 Bft)
21.08.2018 15:09 25,8 °C 56 % 1014,8 hPa 0,0 mm 3,7 km/h (1 Bft) O 80 ° 1 min 0,000 mm 4,7 UV-I 714 W/m² 16,3 °C 25,8 °C 6,4 km/h (2 Bft)
21.08.2018 15:10 25,8 °C 57 % 1014,8 hPa 0,0 mm 4,3 km/h (1 Bft) NO 36 ° 1 min 0,000 mm 4,7 UV-I 712 W/m² 16,6 °C 25,8 °C 9,7 km/h (2 Bft)
21.08.2018 15:11 25,9 °C 57 % 1014,8 hPa 0,0 mm 7,1 km/h (2 Bft) O-NO 78 ° 1 min 0,000 mm 4,6 UV-I 705 W/m² 16,7 °C 25,9 °C 11,3 km/h (2 Bft)
21.08.2018 15:12 26,1 °C 57 % 1014,7 hPa 0,0 mm 6,4 km/h (2 Bft) O 80 ° 1 min 0,000 mm 4,6 UV-I 693 W/m² 16,9 °C 26,1 °C 14,5 km/h (3 Bft)
21.08.2018 15:13 26,1 °C 57 % 1014,7 hPa 0,0 mm 4,9 km/h (1 Bft) NO 34 ° 1 min 0,000 mm 4,5 UV-I 689 W/m² 16,9 °C 26,1 °C 6,4 km/h (2 Bft)
21.08.2018 15:14 26,2 °C 56 % 1014,7 hPa 0,0 mm 5,4 km/h (1 Bft) O-NO 65 ° 1 min 0,000 mm 4,5 UV-I 682 W/m² 16,7 °C 26,2 °C 8,0 km/h (2 Bft)
21.08.2018 15:15 26,1 °C 56 % 1014,7 hPa 0,0 mm 3,3 km/h (1 Bft) O-NO 65 ° 1 min 0,000 mm 4,5 UV-I 675 W/m² 16,6 °C 26,1 °C 8,0 km/h (2 Bft)
21.08.2018 15:16 26,0 °C 57 % 1014,7 hPa 0,0 mm 1,3 km/h (1 Bft) W-NW 289 ° 1 min 0,000 mm 4,4 UV-I 673 W/m² 16,8 °C 26,0 °C 4,8 km/h (1 Bft)
21.08.2018 15:17 25,9 °C 56 % 1014,7 hPa 0,0 mm 1,2 km/h (1 Bft) W-NW 291 ° 1 min 0,000 mm 4,4 UV-I 668 W/m² 16,4 °C 25,9 °C 3,2 km/h (1 Bft)
21.08.2018 15:18 26,1 °C 57 % 1014,7 hPa 0,0 mm 3,0 km/h (1 Bft) NO 36 ° 1 min 0,000 mm 4,5 UV-I 673 W/m² 16,9 °C 26,1 °C 6,4 km/h (2 Bft)
21.08.2018 15:19 26,2 °C 57 % 1014,7 hPa 0,0 mm 5,1 km/h (1 Bft) N-NO 26 ° 1 min 0,000 mm 4,5 UV-I 671 W/m² 17,0 °C 26,2 °C 8,0 km/h (2 Bft)
21.08.2018 15:20 26,3 °C 57 % 1014,7 hPa 0,0 mm 7,0 km/h (2 Bft) NO 38 ° 1 min 0,000 mm 4,4 UV-I 670 W/m² 17,1 °C 26,3 °C 8,0 km/h (2 Bft)
21.08.2018 15:21 26,4 °C 57 % 1014,7 hPa 0,0 mm 5,2 km/h (1 Bft) O 101 ° 1 min 0,000 mm 4,4 UV-I 671 W/m² 17,2 °C 26,4 °C 9,7 km/h (2 Bft)
21.08.2018 15:22 26,4 °C 56 % 1014,7 hPa 0,0 mm 6,1 km/h (2 Bft) N-NW 342 ° 1 min 0,000 mm 4,4 UV-I 673 W/m² 16,9 °C 26,4 °C 9,7 km/h (2 Bft)
21.08.2018 15:23 26,4 °C 58 % 1014,7 hPa 0,0 mm 4,3 km/h (1 Bft) O 99 ° 1 min 0,000 mm 4,4 UV-I 671 W/m² 17,5 °C 26,4 °C 6,4 km/h (2 Bft)
21.08.2018 15:24 26,3 °C 55 % 1014,6 hPa 0,0 mm 2,3 km/h (1 Bft) O 98 ° 1 min 0,000 mm 4,4 UV-I 670 W/m² 16,5 °C 26,3 °C 6,4 km/h (2 Bft)
21.08.2018 15:25 26,1 °C 56 % 1014,6 hPa 0,0 mm 4,5 km/h (1 Bft) NO 42 ° 1 min 0,000 mm 4,3 UV-I 670 W/m² 16,6 °C 26,1 °C 4,8 km/h (1 Bft)
21.08.2018 15:26 26,1 °C 56 % 1014,6 hPa 0,0 mm 3,8 km/h (1 Bft) NO 34 ° 1 min 0,000 mm 4,4 UV-I 675 W/m² 16,6 °C 26,1 °C 6,4 km/h (2 Bft)
21.08.2018 15:27 26,2 °C 58 % 1014,7 hPa 0,0 mm 6,8 km/h (2 Bft) O 81 ° 1 min 0,000 mm 4,4 UV-I 680 W/m² 17,3 °C 26,2 °C 11,3 km/h (2 Bft)
21.08.2018 15:28 26,2 °C 56 % 1014,6 hPa 0,0 mm 8,9 km/h (2 Bft) O-NO 71 ° 1 min 0,000 mm 4,4 UV-I 684 W/m² 16,7 °C 26,2 °C 19,3 km/h (3 Bft)
21.08.2018 15:29 26,2 °C 56 % 1014,7 hPa 0,0 mm 7,7 km/h (2 Bft) O-NO 63 ° 1 min 0,000 mm 4,4 UV-I 682 W/m² 16,7 °C 26,2 °C 12,9 km/h (3 Bft)
21.08.2018 15:30 26,2 °C 58 % 1014,6 hPa 0,0 mm 6,9 km/h (2 Bft) NO 36 ° 1 min 0,000 mm 4,4 UV-I 682 W/m² 17,3 °C 26,2 °C 14,5 km/h (3 Bft)
21.08.2018 15:31 26,2 °C 56 % 1014,6 hPa 0,0 mm 4,1 km/h (1 Bft) N 10 ° 1 min 0,000 mm 4,3 UV-I 684 W/m² 16,7 °C 26,2 °C 6,4 km/h (2 Bft)
21.08.2018 15:32 26,2 °C 55 % 1014,6 hPa 0,0 mm 7,0 km/h (2 Bft) N 355 ° 1 min 0,000 mm 4,3 UV-I 689 W/m² 16,4 °C 26,2 °C 12,9 km/h (3 Bft)
21.08.2018 15:33 26,3 °C 56 % 1014,5 hPa 0,0 mm 8,6 km/h (2 Bft) NO 51 ° 1 min 0,000 mm 4,3 UV-I 694 W/m² 16,8 °C 26,3 °C 11,3 km/h (2 Bft)
21.08.2018 15:34 26,3 °C 55 % 1014,5 hPa 0,0 mm 5,4 km/h (1 Bft) N-NW 337 ° 1 min 0,000 mm 4,2 UV-I 689 W/m² 16,5 °C 26,3 °C 9,7 km/h (2 Bft)
21.08.2018 15:35 26,3 °C 55 % 1014,5 hPa 0,0 mm 5,2 km/h (1 Bft) N-NO 26 ° 1 min 0,000 mm 4,1 UV-I 686 W/m² 16,5 °C 26,3 °C 9,7 km/h (2 Bft)
21.08.2018 15:36 26,4 °C 55 % 1014,6 hPa 0,0 mm 5,8 km/h (2 Bft) N-NO 19 ° 1 min 0,000 mm 4,1 UV-I 684 W/m² 16,6 °C 26,4 °C 9,7 km/h (2 Bft)
21.08.2018 15:37 26,4 °C 56 % 1014,5 hPa 0,0 mm 3,6 km/h (1 Bft) N-NO 18 ° 1 min 0,000 mm 4,0 UV-I 677 W/m² 16,9 °C 26,4 °C 6,4 km/h (2 Bft)
21.08.2018 15:38 26,4 °C 56 % 1014,5 hPa 0,0 mm 5,6 km/h (1 Bft) N-NO 21 ° 1 min 0,000 mm 4,0 UV-I 668 W/m² 16,9 °C 26,4 °C 8,0 km/h (2 Bft)
21.08.2018 15:39 26,4 °C 57 % 1014,5 hPa 0,0 mm 6,4 km/h (2 Bft) NO 53 ° 1 min 0,000 mm 4,0 UV-I 647 W/m² 17,2 °C 26,4 °C 12,9 km/h (3 Bft)
21.08.2018 15:40 26,5 °C 56 % 1014,5 hPa 0,0 mm 6,9 km/h (2 Bft) O 82 ° 1 min 0,000 mm 3,9 UV-I 642 W/m² 17,0 °C 26,5 °C 9,7 km/h (2 Bft)
21.08.2018 15:41 26,6 °C 58 % 1014,5 hPa 0,0 mm 8,6 km/h (2 Bft) NO 53 ° 1 min 0,000 mm 4,0 UV-I 649 W/m² 17,6 °C 26,6 °C 12,9 km/h (3 Bft)
21.08.2018 15:42 26,6 °C 55 % 1014,6 hPa 0,0 mm 5,1 km/h (1 Bft) O-NO 76 ° 1 min 0,000 mm 4,0 UV-I 650 W/m² 16,8 °C 26,6 °C 16,1 km/h (3 Bft)
21.08.2018 15:43 26,4 °C 55 % 1014,6 hPa 0,0 mm 1,5 km/h (1 Bft) O-NO 76 ° 1 min 0,000 mm 4,0 UV-I 652 W/m² 16,6 °C 26,4 °C 6,4 km/h (2 Bft)
21.08.2018 15:44 26,3 °C 54 % 1014,5 hPa 0,0 mm 4,7 km/h (1 Bft) O 82 ° 1 min 0,000 mm 4,0 UV-I 650 W/m² 16,2 °C 26,3 °C 8,0 km/h (2 Bft)
21.08.2018 15:45 26,2 °C 54 % 1014,5 hPa 0,0 mm 2,4 km/h (1 Bft) O-NO 60 ° 1 min 0,000 mm 4,0 UV-I 650 W/m² 16,1 °C 26,2 °C 4,8 km/h (1 Bft)
21.08.2018 15:46 26,2 °C 56 % 1014,5 hPa 0,0 mm 3,1 km/h (1 Bft) O 80 ° 1 min 0,000 mm 4,0 UV-I 649 W/m² 16,7 °C 26,2 °C 6,4 km/h (2 Bft)
21.08.2018 15:47 26,2 °C 55 % 1014,4 hPa 0,0 mm 2,5 km/h (1 Bft) O 84 ° 1 min 0,000 mm 4,0 UV-I 650 W/m² 16,4 °C 26,2 °C 4,8 km/h (1 Bft)
21.08.2018 15:48 26,1 °C 57 % 1014,5 hPa 0,0 mm 1,5 km/h (1 Bft) N-NO 30 ° 1 min 0,000 mm 4,0 UV-I 652 W/m² 16,9 °C 26,1 °C 3,2 km/h (1 Bft)
21.08.2018 15:49 26,2 °C 56 % 1014,4 hPa 0,0 mm 4,1 km/h (1 Bft) N 10 ° 1 min 0,000 mm 4,0 UV-I 654 W/m² 16,7 °C 26,2 °C 6,4 km/h (2 Bft)
21.08.2018 15:50 26,4 °C 58 % 1014,4 hPa 0,0 mm 3,0 km/h (1 Bft) N 10 ° 1 min 0,000 mm 4,0 UV-I 659 W/m² 17,5 °C 26,4 °C 4,8 km/h (1 Bft)
21.08.2018 15:51 26,6 °C 58 % 1014,4 hPa 0,0 mm 6,1 km/h (2 Bft) N 11 ° 1 min 0,000 mm 3,9 UV-I 656 W/m² 17,6 °C 26,6 °C 11,3 km/h (2 Bft)
21.08.2018 15:52 26,7 °C 56 % 1014,5 hPa 0,0 mm 7,3 km/h (2 Bft) O-NO 71 ° 1 min 0,000 mm 3,9 UV-I 661 W/m² 17,2 °C 26,7 °C 11,3 km/h (2 Bft)
21.08.2018 15:53 26,7 °C 54 % 1014,5 hPa 0,0 mm 7,0 km/h (2 Bft) O-NO 71 ° 1 min 0,000 mm 3,8 UV-I 663 W/m² 16,6 °C 26,7 °C 12,9 km/h (3 Bft)
21.08.2018 15:54 26,7 °C 55 % 1014,5 hPa 0,0 mm 6,3 km/h (2 Bft) NO 38 ° 1 min 0,000 mm 3,8 UV-I 664 W/m² 16,9 °C 26,7 °C 11,3 km/h (2 Bft)
21.08.2018 15:55 26,7 °C 55 % 1014,4 hPa 0,0 mm 4,2 km/h (1 Bft) O-NO 58 ° 1 min 0,000 mm 3,6 UV-I 659 W/m² 16,9 °C 26,7 °C 9,7 km/h (2 Bft)
21.08.2018 15:56 26,6 °C 56 % 1014,4 hPa 0,0 mm 8,1 km/h (2 Bft) O-SO 109 ° 1 min 0,000 mm 3,5 UV-I 633 W/m² 17,1 °C 26,6 °C 16,1 km/h (3 Bft)
21.08.2018 15:57 26,6 °C 54 % 1014,5 hPa 0,0 mm 7,8 km/h (2 Bft) O-NO 70 ° 1 min 0,000 mm 2,3 UV-I 633 W/m² 16,5 °C 26,6 °C 14,5 km/h (3 Bft)
21.08.2018 15:58 26,4 °C 55 % 1014,4 hPa 0,0 mm 7,4 km/h (2 Bft) O-NO 74 ° 0 min 0,000 mm 2,3 UV-I 130 W/m² 16,6 °C 26,4 °C 12,9 km/h (3 Bft)
21.08.2018 15:59 26,2 °C 55 % 1014,5 hPa 0,0 mm 8,4 km/h (2 Bft) O-SO 120 ° 0 min 0,000 mm 2,2 UV-I 118 W/m² 16,4 °C 26,2 °C 12,9 km/h (3 Bft)
21.08.2018 16:00 26,0 °C 54 % 1014,5 hPa 0,0 mm 4,8 km/h (1 Bft) O-SO 119 ° 0 min 0,000 mm 2,2 UV-I 107 W/m² 16,0 °C 26,0 °C 6,4 km/h (2 Bft)
21.08.2018 16:01 25,8 °C 56 % 1014,5 hPa 0,0 mm 6,1 km/h (2 Bft) O-SO 120 ° 0 min 0,457 mm 2,2 UV-I 105 W/m² 16,3 °C 25,8 °C 11,3 km/h (2 Bft)
21.08.2018 16:02 25,6 °C 55 % 1014,4 hPa 0,0 mm 4,8 km/h (1 Bft) O-SO 121 ° 0 min 0,000 mm 2,2 UV-I 100 W/m² 15,9 °C 25,6 °C 8,0 km/h (2 Bft)
21.08.2018 16:03 25,4 °C 56 % 1014,4 hPa 0,0 mm 1,3 km/h (1 Bft) O-SO 121 ° 0 min 0,000 mm 2,2 UV-I 100 W/m² 16,0 °C 25,4 °C 3,2 km/h (1 Bft)
21.08.2018 16:04 25,3 °C 56 % 1014,4 hPa 0,0 mm 0,6 km/h (0 Bft) O-SO 121 ° 0 min 0,000 mm 2,3 UV-I 118 W/m² 15,9 °C 25,3 °C 3,2 km/h (1 Bft)
21.08.2018 16:05 25,2 °C 58 % 1014,4 hPa 0,0 mm 1,5 km/h (1 Bft) O-SO 121 ° 0 min 0,000 mm 2,5 UV-I 118 W/m² 16,3 °C 25,2 °C 3,2 km/h (1 Bft)
21.08.2018 16:06 25,1 °C 59 % 1014,4 hPa 0,0 mm 2,1 km/h (1 Bft) NO 49 ° 0 min 0,000 mm 2,5 UV-I 118 W/m² 16,5 °C 25,1 °C 4,8 km/h (1 Bft)
21.08.2018 16:07 25,2 °C 58 % 1014,4 hPa 0,0 mm 1,5 km/h (1 Bft) NO 49 ° 0 min 0,000 mm 3,1 UV-I 118 W/m² 16,3 °C 25,2 °C 4,8 km/h (1 Bft)
21.08.2018 16:08 25,3 °C 58 % 1014,4 hPa 0,0 mm 3,1 km/h (1 Bft) NO 45 ° 0 min 0,000 mm 3,3 UV-I 591 W/m² 16,4 °C 25,3 °C 4,8 km/h (1 Bft)
21.08.2018 16:09 25,4 °C 57 % 1014,4 hPa 0,0 mm 1,4 km/h (1 Bft) NO 45 ° 0 min 0,000 mm 3,3 UV-I 599 W/m² 16,2 °C 25,4 °C 3,2 km/h (1 Bft)
21.08.2018 16:10 25,5 °C 57 % 1014,4 hPa 0,0 mm 1,1 km/h (1 Bft) O-NO 57 ° 1 min 0,000 mm 3,4 UV-I 608 W/m² 16,3 °C 25,5 °C 3,2 km/h (1 Bft)
21.08.2018 16:11 25,6 °C 57 % 1014,3 hPa 0,0 mm 2,5 km/h (1 Bft) N-NO 29 ° 1 min 0,000 mm 3,4 UV-I 610 W/m² 16,4 °C 25,6 °C 4,8 km/h (1 Bft)
21.08.2018 16:12 25,7 °C 57 % 1014,3 hPa 0,0 mm 1,7 km/h (1 Bft) N-NO 29 ° 1 min 0,000 mm 3,4 UV-I 612 W/m² 16,5 °C 25,7 °C 4,8 km/h (1 Bft)
21.08.2018 16:13 25,8 °C 56 % 1014,4 hPa 0,0 mm 1,1 km/h (1 Bft) N-NO 32 ° 1 min 0,000 mm 3,3 UV-I 603 W/m² 16,3 °C 25,8 °C 4,8 km/h (1 Bft)
21.08.2018 16:14 25,9 °C 56 % 1014,3 hPa 0,0 mm 4,9 km/h (1 Bft) N 350 ° 0 min 0,000 mm 3,3 UV-I 596 W/m² 16,4 °C 25,9 °C 8,0 km/h (2 Bft)
21.08.2018 16:15 26,0 °C 55 % 1014,4 hPa 0,0 mm 3,1 km/h (1 Bft) N-NO 22 ° 0 min 0,000 mm 3,2 UV-I 570 W/m² 16,2 °C 26,0 °C 8,0 km/h (2 Bft)
21.08.2018 16:16 26,1 °C 55 % 1014,4 hPa 0,0 mm 4,3 km/h (1 Bft) N-NO 22 ° 0 min 0,000 mm 3,2 UV-I 570 W/m² 16,3 °C 26,1 °C 6,4 km/h (2 Bft)
21.08.2018 16:17 26,2 °C 55 % 1014,3 hPa 0,0 mm 4,8 km/h (1 Bft) NO 45 ° 0 min 0,000 mm 2,7 UV-I 570 W/m² 16,4 °C 26,2 °C 8,0 km/h (2 Bft)
21.08.2018 16:18 26,2 °C 54 % 1014,4 hPa 0,0 mm 3,2 km/h (1 Bft) NO 45 ° 0 min 0,000 mm 2,5 UV-I 185 W/m² 16,1 °C 26,2 °C 4,8 km/h (1 Bft)
21.08.2018 16:19 26,2 °C 58 % 1014,3 hPa 0,0 mm 4,8 km/h (1 Bft) NO 45 ° 0 min 0,000 mm 2,2 UV-I 264 W/m² 17,3 °C 26,2 °C 8,0 km/h (2 Bft)
21.08.2018 16:20 26,2 °C 54 % 1014,3 hPa 0,0 mm 4,8 km/h (1 Bft) O 90 ° 0 min 0,000 mm 2,2 UV-I 232 W/m² 16,1 °C 26,2 °C 9,7 km/h (2 Bft)
21.08.2018 16:21 26,1 °C 55 % 1014,3 hPa 0,0 mm 6,4 km/h (2 Bft) O 90 ° 0 min 0,000 mm 2,2 UV-I 193 W/m² 16,3 °C 26,1 °C 11,3 km/h (2 Bft)
21.08.2018 16:22 26,1 °C 56 % 1014,3 hPa 0,0 mm 3,2 km/h (1 Bft) NO 45 ° 0 min 0,000 mm 2,2 UV-I 204 W/m² 16,6 °C 26,1 °C 6,4 km/h (2 Bft)
21.08.2018 16:23 26,1 °C 55 % 1014,3 hPa 0,0 mm 1,6 km/h (1 Bft) N-NO 22 ° 0 min 0,000 mm 2,2 UV-I 204 W/m² 16,3 °C 26,1 °C 4,8 km/h (1 Bft)
21.08.2018 16:25 26,3 °C 58 % 1014,4 hPa 0,0 mm 4,0 km/h (1 Bft) O-NO 71 ° 0 min 0,000 mm 2,2 UV-I 207 W/m² 17,4 °C 26,3 °C 4,8 km/h (1 Bft)
21.08.2018 16:26 26,3 °C 57 % 1014,4 hPa 0,0 mm 4,1 km/h (1 Bft) NO 56 ° 0 min 0,000 mm 2,2 UV-I 213 W/m² 17,1 °C 26,3 °C 8,0 km/h (2 Bft)
21.08.2018 16:27 26,4 °C 56 % 1014,4 hPa 0,0 mm 3,8 km/h (1 Bft) NO 39 ° 0 min 0,000 mm 2,2 UV-I 216 W/m² 16,9 °C 26,4 °C 6,4 km/h (2 Bft)
21.08.2018 16:28 26,4 °C 54 % 1014,4 hPa 0,0 mm 6,2 km/h (2 Bft) N 355 ° 0 min 0,000 mm 2,2 UV-I 216 W/m² 16,3 °C 26,4 °C 12,9 km/h (3 Bft)
21.08.2018 16:29 26,3 °C 55 % 1014,4 hPa 0,0 mm 5,3 km/h (1 Bft) O-NO 57 ° 0 min 0,000 mm 2,1 UV-I 211 W/m² 16,5 °C 26,3 °C 8,0 km/h (2 Bft)
21.08.2018 16:30 26,4 °C 55 % 1014,4 hPa 0,0 mm 5,4 km/h (1 Bft) O-NO 72 ° 0 min 0,000 mm 2,1 UV-I 211 W/m² 16,6 °C 26,4 °C 8,0 km/h (2 Bft)
21.08.2018 16:31 26,4 °C 55 % 1014,4 hPa 0,0 mm 6,2 km/h (2 Bft) NO 46 ° 0 min 0,000 mm 2,1 UV-I 202 W/m² 16,6 °C 26,4 °C 9,7 km/h (2 Bft)
21.08.2018 16:32 26,4 °C 54 % 1014,4 hPa 0,0 mm 5,0 km/h (1 Bft) O 96 ° 0 min 0,000 mm 2,0 UV-I 199 W/m² 16,3 °C 26,4 °C 12,9 km/h (3 Bft)
21.08.2018 16:33 26,3 °C 54 % 1014,4 hPa 0,0 mm 5,4 km/h (1 Bft) NO 34 ° 0 min 0,000 mm 2,0 UV-I 193 W/m² 16,2 °C 26,3 °C 6,4 km/h (2 Bft)
21.08.2018 16:34 26,3 °C 55 % 1014,4 hPa 0,0 mm 5,0 km/h (1 Bft) O-NO 71 ° 0 min 0,000 mm 1,9 UV-I 183 W/m² 16,5 °C 26,3 °C 9,7 km/h (2 Bft)
21.08.2018 16:35 26,3 °C 54 % 1014,4 hPa 0,0 mm 6,8 km/h (2 Bft) O-NO 65 ° 0 min 0,000 mm 1,9 UV-I 186 W/m² 16,2 °C 26,3 °C 11,3 km/h (2 Bft)
21.08.2018 16:37 26,2 °C 55 % 1014,4 hPa 0,0 mm 7,2 km/h (2 Bft) O-NO 62 ° 0 min 0,000 mm 1,9 UV-I 171 W/m² 16,4 °C 26,2 °C 11,3 km/h (2 Bft)
21.08.2018 16:38 26,1 °C 56 % 1014,4 hPa 0,0 mm 5,4 km/h (1 Bft) O-NO 63 ° 0 min 0,000 mm 1,9 UV-I 162 W/m² 16,6 °C 26,1 °C 8,0 km/h (2 Bft)
21.08.2018 16:39 26,1 °C 56 % 1014,4 hPa 0,0 mm 5,4 km/h (1 Bft) N-NO 15 ° 0 min 0,000 mm 1,8 UV-I 158 W/m² 16,6 °C 26,1 °C 11,3 km/h (2 Bft)
21.08.2018 16:40 26,0 °C 55 % 1014,4 hPa 0,0 mm 6,3 km/h (2 Bft) NO 39 ° 0 min 0,000 mm 1,8 UV-I 160 W/m² 16,2 °C 26,0 °C 9,7 km/h (2 Bft)
21.08.2018 16:42 26,1 °C 55 % 1014,4 hPa 0,0 mm 5,2 km/h (1 Bft) NO 34 ° 0 min 0,000 mm 1,8 UV-I 149 W/m² 16,3 °C 26,1 °C 9,7 km/h (2 Bft)
21.08.2018 16:43 26,1 °C 55 % 1014,4 hPa 0,0 mm 5,4 km/h (1 Bft) O-NO 58 ° 0 min 0,000 mm 1,8 UV-I 144 W/m² 16,3 °C 26,1 °C 9,7 km/h (2 Bft)
21.08.2018 16:44 26,1 °C 53 % 1014,4 hPa 0,0 mm 6,9 km/h (2 Bft) O-NO 63 ° 0 min 0,000 mm 1,8 UV-I 135 W/m² 15,8 °C 26,1 °C 12,9 km/h (3 Bft)
21.08.2018 16:45 25,9 °C 54 % 1014,4 hPa 0,0 mm 6,4 km/h (2 Bft) NO 45 ° 0 min 0,000 mm 1,7 UV-I 127 W/m² 15,9 °C 25,9 °C 8,0 km/h (2 Bft)
21.08.2018 16:48 25,7 °C 54 % 1014,4 hPa 0,0 mm 0,7 km/h (0 Bft) O-NO 66 ° 0 min 0,000 mm 1,8 UV-I 127 W/m² 15,7 °C 25,7 °C 1,6 km/h (1 Bft)
21.08.2018 16:49 25,7 °C 55 % 1014,4 hPa 0,0 mm 1,9 km/h (1 Bft) NO 38 ° 0 min 0,000 mm 1,7 UV-I 130 W/m² 16,0 °C 25,7 °C 3,2 km/h (1 Bft)
21.08.2018 16:50 25,6 °C 55 % 1014,4 hPa 0,0 mm 0,6 km/h (0 Bft) NO 42 ° 0 min 0,000 mm 1,8 UV-I 130 W/m² 15,9 °C 25,6 °C 3,2 km/h (1 Bft)
21.08.2018 16:51 25,7 °C 56 % 1014,4 hPa 0,0 mm 2,4 km/h (1 Bft) O-NO 57 ° 0 min 0,000 mm 1,8 UV-I 127 W/m² 16,2 °C 25,7 °C 3,2 km/h (1 Bft)
21.08.2018 16:52 25,7 °C 56 % 1014,3 hPa 0,0 mm 1,3 km/h (1 Bft) NW 321 ° 0 min 0,000 mm 1,8 UV-I 127 W/m² 16,2 °C 25,7 °C 4,8 km/h (1 Bft)
21.08.2018 16:53 25,8 °C 56 % 1014,4 hPa 0,0 mm 6,2 km/h (2 Bft) N-NO 13 ° 0 min 0,000 mm 1,8 UV-I 120 W/m² 16,3 °C 25,8 °C 9,7 km/h (2 Bft)
21.08.2018 16:54 25,8 °C 55 % 1014,3 hPa 0,0 mm 5,1 km/h (1 Bft) N 360 ° 0 min 0,000 mm 1,8 UV-I 113 W/m² 16,1 °C 25,8 °C 9,7 km/h (2 Bft)
21.08.2018 16:55 25,8 °C 56 % 1014,3 hPa 0,0 mm 5,3 km/h (1 Bft) N-NO 20 ° 0 min 0,000 mm 1,8 UV-I 105 W/m² 16,3 °C 25,8 °C 11,3 km/h (2 Bft)
21.08.2018 16:56 25,9 °C 56 % 1014,3 hPa 0,0 mm 2,9 km/h (1 Bft) N 5 ° 0 min 0,000 mm 1,8 UV-I 100 W/m² 16,4 °C 25,9 °C 4,8 km/h (1 Bft)
21.08.2018 16:57 26,0 °C 56 % 1014,3 hPa 0,0 mm 3,0 km/h (1 Bft) NO 46 ° 0 min 0,000 mm 1,7 UV-I 97 W/m² 16,5 °C 26,0 °C 8,0 km/h (2 Bft)
21.08.2018 16:58 26,0 °C 54 % 1014,3 hPa 0,0 mm 8,0 km/h (2 Bft) N-NO 12 ° 0 min 0,000 mm 1,7 UV-I 91 W/m² 16,0 °C 26,0 °C 12,9 km/h (3 Bft)
21.08.2018 16:59 25,9 °C 54 % 1014,3 hPa 0,0 mm 5,0 km/h (1 Bft) N-NO 17 ° 0 min 0,000 mm 1,7 UV-I 91 W/m² 15,9 °C 25,9 °C 8,0 km/h (2 Bft)
21.08.2018 17:00 25,9 °C 55 % 1014,3 hPa 0,0 mm 5,0 km/h (1 Bft) N-NO 16 ° 0 min 0,178 mm 1,7 UV-I 98 W/m² 16,2 °C 25,9 °C 6,4 km/h (2 Bft)
21.08.2018 17:02 25,9 °C 55 % 1014,3 hPa 0,0 mm 1,8 km/h (1 Bft) N 355 ° 0 min 0,000 mm 1,7 UV-I 104 W/m² 16,2 °C 25,9 °C 6,4 km/h (2 Bft)
21.08.2018 17:03 25,8 °C 55 % 1014,2 hPa 0,0 mm 2,4 km/h (1 Bft) N 355 ° 0 min 0,000 mm 1,7 UV-I 104 W/m² 16,1 °C 25,8 °C 3,2 km/h (1 Bft)
21.08.2018 17:04 25,8 °C 58 % 1014,3 hPa 0,0 mm 1,5 km/h (1 Bft) NW 316 ° 0 min 0,000 mm 1,7 UV-I 105 W/m² 16,9 °C 25,8 °C 6,4 km/h (2 Bft)
21.08.2018 17:05 25,9 °C 57 % 1014,3 hPa 0,0 mm 2,2 km/h (1 Bft) N-NW 335 ° 0 min 0,000 mm 1,7 UV-I 111 W/m² 16,7 °C 25,9 °C 6,4 km/h (2 Bft)
21.08.2018 17:06 26,0 °C 57 % 1014,2 hPa 0,0 mm 5,5 km/h (1 Bft) NW 321 ° 0 min 0,000 mm 1,7 UV-I 116 W/m² 16,8 °C 26,0 °C 8,0 km/h (2 Bft)
21.08.2018 17:07 26,0 °C 55 % 1014,2 hPa 0,0 mm 8,5 km/h (2 Bft) N-NW 347 ° 0 min 0,000 mm 1,7 UV-I 120 W/m² 16,2 °C 26,0 °C 17,7 km/h (3 Bft)
21.08.2018 17:08 25,9 °C 55 % 1014,1 hPa 0,0 mm 5,6 km/h (1 Bft) N 11 ° 0 min 0,000 mm 1,7 UV-I 127 W/m² 16,2 °C 25,9 °C 8,0 km/h (2 Bft)
21.08.2018 17:09 25,9 °C 55 % 1014,1 hPa 0,0 mm 4,9 km/h (1 Bft) N-NW 334 ° 0 min 0,000 mm 1,7 UV-I 130 W/m² 16,2 °C 25,9 °C 6,4 km/h (2 Bft)
21.08.2018 17:10 25,9 °C 56 % 1014,1 hPa 0,0 mm 3,2 km/h (1 Bft) N-NW 336 ° 0 min 0,000 mm 1,7 UV-I 134 W/m² 16,4 °C 25,9 °C 8,0 km/h (2 Bft)
21.08.2018 17:11 26,0 °C 55 % 1014,1 hPa 0,0 mm 4,0 km/h (1 Bft) N 355 ° 0 min 0,000 mm 1,7 UV-I 135 W/m² 16,2 °C 26,0 °C 6,4 km/h (2 Bft)
21.08.2018 17:12 26,0 °C 55 % 1014,1 hPa 0,0 mm 3,5 km/h (1 Bft) N-NO 33 ° 0 min 0,000 mm 1,7 UV-I 141 W/m² 16,2 °C 26,0 °C 8,0 km/h (2 Bft)
21.08.2018 17:13 26,1 °C 55 % 1014,1 hPa 0,0 mm 5,4 km/h (1 Bft) N 355 ° 0 min 0,000 mm 1,7 UV-I 144 W/m² 16,3 °C 26,1 °C 9,7 km/h (2 Bft)
21.08.2018 17:14 26,1 °C 55 % 1014,1 hPa 0,0 mm 8,2 km/h (2 Bft) NO 41 ° 0 min 0,000 mm 1,7 UV-I 149 W/m² 16,3 °C 26,1 °C 16,1 km/h (3 Bft)
21.08.2018 17:15 26,2 °C 54 % 1014,1 hPa 0,0 mm 3,6 km/h (1 Bft) W-NW 288 ° 0 min 0,000 mm 1,7 UV-I 155 W/m² 16,1 °C 26,2 °C 8,0 km/h (2 Bft)
21.08.2018 17:16 26,2 °C 54 % 1014,1 hPa 0,0 mm 3,2 km/h (1 Bft) N 5 ° 0 min 0,000 mm 1,7 UV-I 163 W/m² 16,1 °C 26,2 °C 12,9 km/h (3 Bft)
21.08.2018 17:17 26,2 °C 54 % 1014,2 hPa 0,0 mm 9,2 km/h (2 Bft) N 350 ° 0 min 0,000 mm 1,7 UV-I 163 W/m² 16,1 °C 26,2 °C 14,5 km/h (3 Bft)
21.08.2018 17:18 26,2 °C 56 % 1014,2 hPa 0,0 mm 6,0 km/h (2 Bft) N-NO 19 ° 0 min 0,000 mm 1,7 UV-I 171 W/m² 16,7 °C 26,2 °C 9,7 km/h (2 Bft)
21.08.2018 17:19 26,3 °C 55 % 1014,2 hPa 0,0 mm 6,5 km/h (2 Bft) O-NO 63 ° 0 min 0,000 mm 1,6 UV-I 167 W/m² 16,5 °C 26,3 °C 11,3 km/h (2 Bft)
21.08.2018 17:20 26,2 °C 54 % 1014,2 hPa 0,0 mm 7,3 km/h (2 Bft) NO 34 ° 0 min 0,000 mm 1,6 UV-I 163 W/m² 16,1 °C 26,2 °C 16,1 km/h (3 Bft)
21.08.2018 17:21 26,2 °C 55 % 1014,1 hPa 0,0 mm 7,1 km/h (2 Bft) O-NO 57 ° 0 min 0,000 mm 1,5 UV-I 160 W/m² 16,4 °C 26,2 °C 14,5 km/h (3 Bft)
21.08.2018 17:22 26,3 °C 53 % 1014,1 hPa 0,0 mm 11,0 km/h (2 Bft) O 93 ° 0 min 0,000 mm 1,5 UV-I 156 W/m² 15,9 °C 26,3 °C 17,7 km/h (3 Bft)
21.08.2018 17:23 26,3 °C 54 % 1014,1 hPa 0,0 mm 3,1 km/h (1 Bft) NO 34 ° 0 min 0,000 mm 1,5 UV-I 153 W/m² 16,2 °C 26,3 °C 6,4 km/h (2 Bft)
21.08.2018 17:24 26,2 °C 54 % 1014,1 hPa 0,0 mm 4,6 km/h (1 Bft) O-SO 113 ° 0 min 0,000 mm 1,4 UV-I 148 W/m² 16,1 °C 26,2 °C 8,0 km/h (2 Bft)
21.08.2018 17:25 26,2 °C 54 % 1014,1 hPa 0,0 mm 6,3 km/h (2 Bft) NO 40 ° 0 min 0,000 mm 1,4 UV-I 146 W/m² 16,1 °C 26,2 °C 9,7 km/h (2 Bft)
21.08.2018 17:26 26,2 °C 55 % 1014,1 hPa 0,0 mm 3,6 km/h (1 Bft) N-NO 29 ° 0 min 0,000 mm 1,3 UV-I 139 W/m² 16,4 °C 26,2 °C 6,4 km/h (2 Bft)
21.08.2018 17:27 26,2 °C 54 % 1014,1 hPa 0,0 mm 5,4 km/h (1 Bft) O-NO 57 ° 0 min 0,000 mm 1,3 UV-I 135 W/m² 16,1 °C 26,2 °C 8,0 km/h (2 Bft)
21.08.2018 17:28 26,3 °C 54 % 1014,1 hPa 0,0 mm 1,6 km/h (1 Bft) NO 50 ° 0 min 0,000 mm 1,3 UV-I 130 W/m² 16,2 °C 26,3 °C 4,8 km/h (1 Bft)
21.08.2018 17:29 26,3 °C 55 % 1014,1 hPa 0,0 mm 4,6 km/h (1 Bft) O-NO 76 ° 0 min 0,000 mm 1,3 UV-I 125 W/m² 16,5 °C 26,3 °C 8,0 km/h (2 Bft)
21.08.2018 17:30 26,4 °C 54 % 1014,1 hPa 0,0 mm 8,2 km/h (2 Bft) O-SO 113 ° 0 min 0,000 mm 1,3 UV-I 120 W/m² 16,3 °C 26,4 °C 12,9 km/h (3 Bft)
21.08.2018 17:31 26,3 °C 55 % 1014,1 hPa 0,0 mm 8,8 km/h (2 Bft) O-NO 76 ° 0 min 0,000 mm 1,3 UV-I 118 W/m² 16,5 °C 26,3 °C 12,9 km/h (3 Bft)
21.08.2018 17:32 26,3 °C 54 % 1014,1 hPa 0,0 mm 5,7 km/h (1 Bft) O-NO 71 ° 0 min 0,000 mm 1,3 UV-I 118 W/m² 16,2 °C 26,3 °C 12,9 km/h (3 Bft)
21.08.2018 17:33 26,2 °C 55 % 1014,1 hPa 0,0 mm 6,7 km/h (2 Bft) O 86 ° 0 min 0,000 mm 1,3 UV-I 118 W/m² 16,4 °C 26,2 °C 12,9 km/h (3 Bft)
21.08.2018 17:34 26,1 °C 54 % 1014,1 hPa 0,0 mm 3,6 km/h (1 Bft) O-NO 63 ° 0 min 0,000 mm 1,2 UV-I 121 W/m² 16,0 °C 26,1 °C 6,4 km/h (2 Bft)
21.08.2018 17:35 26,1 °C 54 % 1014,1 hPa 0,0 mm 2,7 km/h (1 Bft) O-NO 61 ° 0 min 0,000 mm 1,2 UV-I 121 W/m² 16,0 °C 26,1 °C 4,8 km/h (1 Bft)
21.08.2018 17:36 26,1 °C 54 % 1014,1 hPa 0,0 mm 3,2 km/h (1 Bft) O-NO 61 ° 0 min 0,000 mm 1,2 UV-I 137 W/m² 16,0 °C 26,1 °C 3,2 km/h (1 Bft)
21.08.2018 17:37 26,1 °C 54 % 1014,1 hPa 0,0 mm 3,2 km/h (1 Bft) NO 45 ° 0 min 0,000 mm 1,2 UV-I 125 W/m² 16,0 °C 26,1 °C 4,8 km/h (1 Bft)
21.08.2018 17:38 26,0 °C 55 % 1014,1 hPa 0,0 mm 4,8 km/h (1 Bft) NO 45 ° 0 min 0,000 mm 1,2 UV-I 125 W/m² 16,2 °C 26,0 °C 6,4 km/h (2 Bft)
21.08.2018 17:39 25,9 °C 54 % 1014,1 hPa 0,0 mm 4,8 km/h (1 Bft) O-NO 67 ° 0 min 0,000 mm 1,2 UV-I 125 W/m² 15,9 °C 25,9 °C 8,0 km/h (2 Bft)
21.08.2018 17:40 25,9 °C 55 % 1014,0 hPa 0,0 mm 3,2 km/h (1 Bft) O-NO 67 ° 0 min 0,000 mm 1,2 UV-I 125 W/m² 16,2 °C 25,9 °C 9,7 km/h (2 Bft)
21.08.2018 17:41 25,8 °C 55 % 1014,0 hPa 0,0 mm 1,6 km/h (1 Bft) O-NO 67 ° 0 min 0,000 mm 1,2 UV-I 127 W/m² 16,1 °C 25,8 °C 4,8 km/h (1 Bft)
21.08.2018 17:42 25,7 °C 58 % 1014,0 hPa 0,0 mm 3,2 km/h (1 Bft) O-SO 112 ° 0 min 0,000 mm 1,2 UV-I 125 W/m² 16,8 °C 25,7 °C 4,8 km/h (1 Bft)
21.08.2018 17:45 25,5 °C 57 % 1014,1 hPa 0,0 mm 5,6 km/h (1 Bft) O-NO 76 ° 0 min 0,000 mm 1,2 UV-I 125 W/m² 16,3 °C 25,5 °C 9,7 km/h (2 Bft)
21.08.2018 17:46 25,5 °C 55 % 1014,1 hPa 0,0 mm 9,8 km/h (2 Bft) O-SO 115 ° 0 min 0,000 mm 1,2 UV-I 127 W/m² 15,8 °C 25,5 °C 19,3 km/h (3 Bft)
21.08.2018 17:47 25,6 °C 55 % 1014,1 hPa 0,0 mm 11,0 km/h (2 Bft) O 80 ° 0 min 0,000 mm 1,2 UV-I 132 W/m² 15,9 °C 25,6 °C 19,3 km/h (3 Bft)
21.08.2018 17:48 25,6 °C 56 % 1014,1 hPa 0,0 mm 5,3 km/h (1 Bft) NO 55 ° 0 min 0,000 mm 1,2 UV-I 132 W/m² 16,2 °C 25,6 °C 11,3 km/h (2 Bft)
21.08.2018 17:49 25,6 °C 55 % 1014,1 hPa 0,0 mm 1,0 km/h (0 Bft) NO 55 ° 0 min 0,000 mm 1,2 UV-I 132 W/m² 15,9 °C 25,6 °C 3,2 km/h (1 Bft)
21.08.2018 17:50 25,6 °C 55 % 1014,0 hPa 0,0 mm 3,0 km/h (1 Bft) NO 36 ° 0 min 0,000 mm 1,2 UV-I 130 W/m² 15,9 °C 25,6 °C 6,4 km/h (2 Bft)
21.08.2018 17:52 25,8 °C 54 % 1014,1 hPa 0,0 mm 2,5 km/h (1 Bft) O-NO 74 ° 0 min 0,000 mm 1,2 UV-I 123 W/m² 15,8 °C 25,8 °C 6,4 km/h (2 Bft)
21.08.2018 17:53 25,8 °C 54 % 1014,0 hPa 0,0 mm 3,9 km/h (1 Bft) NO 53 ° 0 min 0,000 mm 1,2 UV-I 120 W/m² 15,8 °C 25,8 °C 6,4 km/h (2 Bft)
21.08.2018 17:54 25,8 °C 54 % 1014,0 hPa 0,0 mm 3,2 km/h (1 Bft) O-NO 57 ° 0 min 0,000 mm 1,1 UV-I 120 W/m² 15,8 °C 25,8 °C 6,4 km/h (2 Bft)
21.08.2018 17:55 25,8 °C 53 % 1014,1 hPa 0,0 mm 3,7 km/h (1 Bft) N-NO 26 ° 0 min 0,000 mm 1,1 UV-I 125 W/m² 15,5 °C 25,8 °C 8,0 km/h (2 Bft)
21.08.2018 17:56 25,9 °C 54 % 1014,1 hPa 0,0 mm 6,2 km/h (2 Bft) NO 42 ° 0 min 0,000 mm 1,1 UV-I 127 W/m² 15,9 °C 25,9 °C 8,0 km/h (2 Bft)
21.08.2018 17:57 25,9 °C 54 % 1014,0 hPa 0,0 mm 4,5 km/h (1 Bft) O 100 ° 0 min 0,000 mm 1,1 UV-I 127 W/m² 15,9 °C 25,9 °C 11,3 km/h (2 Bft)
21.08.2018 17:58 25,9 °C 54 % 1014,0 hPa 0,0 mm 5,4 km/h (1 Bft) N-NW 348 ° 0 min 0,000 mm 1,0 UV-I 121 W/m² 15,9 °C 25,9 °C 8,0 km/h (2 Bft)
21.08.2018 17:59 25,9 °C 54 % 1014,1 hPa 0,0 mm 5,0 km/h (1 Bft) O-NO 71 ° 0 min 0,000 mm 1,0 UV-I 118 W/m² 15,9 °C 25,9 °C 8,0 km/h (2 Bft)
21.08.2018 18:00 25,8 °C 54 % 1014,1 hPa 0,0 mm 4,3 km/h (1 Bft) N 355 ° 0 min 0,127 mm 1,0 UV-I 118 W/m² 15,8 °C 25,8 °C 6,4 km/h (2 Bft)
21.08.2018 18:01 25,8 °C 54 % 1014,1 hPa 0,0 mm 3,3 km/h (1 Bft) N-NO 21 ° 0 min 0,000 mm 1,0 UV-I 120 W/m² 15,8 °C 25,8 °C 4,8 km/h (1 Bft)
21.08.2018 18:02 25,8 °C 55 % 1014,1 hPa 0,0 mm 2,9 km/h (1 Bft) NO 49 ° 0 min 0,000 mm 0,9 UV-I 120 W/m² 16,1 °C 25,8 °C 4,8 km/h (1 Bft)
21.08.2018 18:03 25,8 °C 55 % 1014,1 hPa 0,0 mm 2,5 km/h (1 Bft) NO 51 ° 0 min 0,000 mm 0,9 UV-I 118 W/m² 16,1 °C 25,8 °C 4,8 km/h (1 Bft)
21.08.2018 18:04 25,8 °C 54 % 1014,1 hPa 0,0 mm 3,5 km/h (1 Bft) NO 40 ° 0 min 0,000 mm 0,9 UV-I 116 W/m² 15,8 °C 25,8 °C 4,8 km/h (1 Bft)
21.08.2018 18:05 25,8 °C 55 % 1014,1 hPa 0,0 mm 1,6 km/h (1 Bft) NO 37 ° 0 min 0,000 mm 0,9 UV-I 118 W/m² 16,1 °C 25,8 °C 4,8 km/h (1 Bft)
21.08.2018 18:06 25,7 °C 53 % 1014,1 hPa 0,0 mm 6,7 km/h (2 Bft) O-NO 73 ° 0 min 0,000 mm 0,9 UV-I 118 W/m² 15,4 °C 25,7 °C 14,5 km/h (3 Bft)
21.08.2018 18:07 25,7 °C 55 % 1014,0 hPa 0,0 mm 5,1 km/h (1 Bft) NO 38 ° 0 min 0,000 mm 0,8 UV-I 114 W/m² 16,0 °C 25,7 °C 11,3 km/h (2 Bft)
21.08.2018 18:08 25,7 °C 55 % 1014,1 hPa 0,0 mm 4,3 km/h (1 Bft) N-NO 13 ° 0 min 0,000 mm 0,8 UV-I 113 W/m² 16,0 °C 25,7 °C 9,7 km/h (2 Bft)
21.08.2018 18:09 25,7 °C 56 % 1014,0 hPa 0,0 mm 5,4 km/h (1 Bft) NO 46 ° 0 min 0,000 mm 0,8 UV-I 111 W/m² 16,2 °C 25,7 °C 9,7 km/h (2 Bft)
21.08.2018 18:10 25,7 °C 55 % 1014,0 hPa 0,0 mm 4,0 km/h (1 Bft) NO 42 ° 0 min 0,000 mm 0,8 UV-I 111 W/m² 16,0 °C 25,7 °C 8,0 km/h (2 Bft)
21.08.2018 18:11 25,7 °C 54 % 1014,1 hPa 0,0 mm 6,3 km/h (2 Bft) N-NO 30 ° 0 min 0,000 mm 0,8 UV-I 111 W/m² 15,7 °C 25,7 °C 11,3 km/h (2 Bft)
21.08.2018 18:12 25,7 °C 54 % 1014,1 hPa 0,0 mm 4,0 km/h (1 Bft) NO 55 ° 0 min 0,000 mm 0,8 UV-I 109 W/m² 15,7 °C 25,7 °C 9,7 km/h (2 Bft)
21.08.2018 18:13 25,7 °C 54 % 1014,1 hPa 0,0 mm 6,0 km/h (2 Bft) O-NO 65 ° 0 min 0,000 mm 0,8 UV-I 107 W/m² 15,7 °C 25,7 °C 9,7 km/h (2 Bft)
21.08.2018 18:14 25,7 °C 54 % 1014,0 hPa 0,0 mm 5,0 km/h (1 Bft) O-NO 69 ° 0 min 0,000 mm 0,8 UV-I 104 W/m² 15,7 °C 25,7 °C 8,0 km/h (2 Bft)
21.08.2018 18:15 25,7 °C 54 % 1014,1 hPa 0,0 mm 4,8 km/h (1 Bft) O-NO 65 ° 0 min 0,000 mm 0,8 UV-I 98 W/m² 15,7 °C 25,7 °C 6,4 km/h (2 Bft)
21.08.2018 18:16 25,6 °C 53 % 1014,1 hPa 0,0 mm 3,5 km/h (1 Bft) O-NO 65 ° 0 min 0,000 mm 0,8 UV-I 91 W/m² 15,3 °C 25,6 °C 4,8 km/h (1 Bft)
21.08.2018 18:17 25,6 °C 55 % 1014,0 hPa 0,0 mm 3,1 km/h (1 Bft) N-NO 17 ° 0 min 0,000 mm 0,8 UV-I 90 W/m² 15,9 °C 25,6 °C 4,8 km/h (1 Bft)
21.08.2018 18:18 25,5 °C 54 % 1014,1 hPa 0,0 mm 3,9 km/h (1 Bft) N-NO 22 ° 0 min 0,000 mm 0,8 UV-I 88 W/m² 15,5 °C 25,5 °C 4,8 km/h (1 Bft)
21.08.2018 18:19 25,5 °C 56 % 1014,1 hPa 0,0 mm 4,1 km/h (1 Bft) N-NW 336 ° 0 min 0,000 mm 0,7 UV-I 90 W/m² 16,1 °C 25,5 °C 4,8 km/h (1 Bft)
21.08.2018 18:20 25,5 °C 55 % 1014,1 hPa 0,0 mm 1,9 km/h (1 Bft) N-NW 342 ° 0 min 0,000 mm 0,7 UV-I 91 W/m² 15,8 °C 25,5 °C 3,2 km/h (1 Bft)
21.08.2018 18:21 25,4 °C 56 % 1014,1 hPa 0,0 mm 2,3 km/h (1 Bft) N-NO 17 ° 0 min 0,000 mm 0,8 UV-I 93 W/m² 16,0 °C 25,4 °C 4,8 km/h (1 Bft)
21.08.2018 18:22 25,5 °C 54 % 1014,1 hPa 0,0 mm 5,8 km/h (2 Bft) N 9 ° 0 min 0,000 mm 0,8 UV-I 91 W/m² 15,5 °C 25,5 °C 11,3 km/h (2 Bft)
21.08.2018 18:23 25,5 °C 55 % 1014,1 hPa 0,0 mm 4,2 km/h (1 Bft) N-NO 19 ° 0 min 0,000 mm 0,8 UV-I 91 W/m² 15,8 °C 25,5 °C 9,7 km/h (2 Bft)
21.08.2018 18:24 25,4 °C 56 % 1014,1 hPa 0,0 mm 3,4 km/h (1 Bft) N-NW 347 ° 0 min 0,000 mm 0,8 UV-I 91 W/m² 16,0 °C 25,4 °C 8,0 km/h (2 Bft)
21.08.2018 18:25 25,5 °C 54 % 1014,1 hPa 0,0 mm 3,9 km/h (1 Bft) NO 36 ° 0 min 0,000 mm 0,8 UV-I 91 W/m² 15,5 °C 25,5 °C 4,8 km/h (1 Bft)
21.08.2018 18:26 25,5 °C 54 % 1014,1 hPa 0,0 mm 5,6 km/h (1 Bft) NO 36 ° 0 min 0,000 mm 0,8 UV-I 90 W/m² 15,5 °C 25,5 °C 8,0 km/h (2 Bft)
21.08.2018 18:27 25,6 °C 54 % 1014,1 hPa 0,0 mm 2,9 km/h (1 Bft) N-NO 14 ° 0 min 0,000 mm 0,8 UV-I 88 W/m² 15,6 °C 25,6 °C 4,8 km/h (1 Bft)
21.08.2018 18:28 25,6 °C 55 % 1014,1 hPa 0,0 mm 1,3 km/h (1 Bft) N-NO 17 ° 0 min 0,000 mm 0,8 UV-I 86 W/m² 15,9 °C 25,6 °C 3,2 km/h (1 Bft)
21.08.2018 18:29 25,6 °C 55 % 1014,1 hPa 0,0 mm 3,6 km/h (1 Bft) N-NO 15 ° 0 min 0,000 mm 0,8 UV-I 79 W/m² 15,9 °C 25,6 °C 6,4 km/h (2 Bft)
21.08.2018 18:30 25,6 °C 55 % 1014,1 hPa 0,0 mm 2,6 km/h (1 Bft) N-NO 15 ° 0 min 0,000 mm 0,8 UV-I 77 W/m² 15,9 °C 25,6 °C 3,2 km/h (1 Bft)
21.08.2018 18:31 25,6 °C 55 % 1014,1 hPa 0,0 mm 1,2 km/h (1 Bft) NO 40 ° 0 min 0,000 mm 0,8 UV-I 76 W/m² 15,9 °C 25,6 °C 3,2 km/h (1 Bft)
21.08.2018 18:32 25,7 °C 55 % 1014,1 hPa 0,0 mm 2,1 km/h (1 Bft) NO 49 ° 0 min 0,000 mm 0,8 UV-I 76 W/m² 16,0 °C 25,7 °C 4,8 km/h (1 Bft)
21.08.2018 18:33 25,7 °C 54 % 1014,1 hPa 0,0 mm 4,6 km/h (1 Bft) NO 54 ° 0 min 0,000 mm 0,8 UV-I 77 W/m² 15,7 °C 25,7 °C 6,4 km/h (2 Bft)
21.08.2018 18:34 25,7 °C 56 % 1014,2 hPa 0,0 mm 4,1 km/h (1 Bft) O-SO 115 ° 0 min 0,000 mm 0,8 UV-I 77 W/m² 16,2 °C 25,7 °C 12,9 km/h (3 Bft)
21.08.2018 18:35 25,6 °C 54 % 1014,1 hPa 0,0 mm 6,9 km/h (2 Bft) O-NO 71 ° 0 min 0,000 mm 0,7 UV-I 77 W/m² 15,6 °C 25,6 °C 9,7 km/h (2 Bft)
21.08.2018 18:36 25,6 °C 55 % 1014,1 hPa 0,0 mm 4,4 km/h (1 Bft) O-NO 78 ° 0 min 0,000 mm 0,7 UV-I 76 W/m² 15,9 °C 25,6 °C 6,4 km/h (2 Bft)
21.08.2018 18:37 25,6 °C 55 % 1014,2 hPa 0,0 mm 6,4 km/h (2 Bft) O 82 ° 0 min 0,000 mm 0,7 UV-I 74 W/m² 15,9 °C 25,6 °C 9,7 km/h (2 Bft)
21.08.2018 18:38 25,4 °C 55 % 1014,1 hPa 0,0 mm 5,8 km/h (2 Bft) O-NO 75 ° 0 min 0,000 mm 0,7 UV-I 72 W/m² 15,7 °C 25,4 °C 9,7 km/h (2 Bft)
21.08.2018 18:39 25,4 °C 54 % 1014,1 hPa 0,0 mm 4,6 km/h (1 Bft) N 5 ° 0 min 0,000 mm 0,7 UV-I 70 W/m² 15,4 °C 25,4 °C 6,4 km/h (2 Bft)
21.08.2018 18:40 25,4 °C 55 % 1014,1 hPa 0,0 mm 2,9 km/h (1 Bft) N 360 ° 0 min 0,000 mm 0,7 UV-I 69 W/m² 15,7 °C 25,4 °C 6,4 km/h (2 Bft)
21.08.2018 18:41 25,4 °C 56 % 1014,2 hPa 0,0 mm 3,8 km/h (1 Bft) N-NW 334 ° 0 min 0,000 mm 0,7 UV-I 67 W/m² 16,0 °C 25,4 °C 4,8 km/h (1 Bft)
21.08.2018 18:42 25,4 °C 56 % 1014,2 hPa 0,0 mm 0,6 km/h (0 Bft) N-NW 334 ° 0 min 0,000 mm 0,7 UV-I 65 W/m² 16,0 °C 25,4 °C 3,2 km/h (1 Bft)
21.08.2018 18:43 25,4 °C 56 % 1014,1 hPa 0,0 mm 2,4 km/h (1 Bft) N-NW 340 ° 0 min 0,000 mm 0,7 UV-I 65 W/m² 16,0 °C 25,4 °C 4,8 km/h (1 Bft)
21.08.2018 18:44 25,4 °C 56 % 1014,1 hPa 0,0 mm 3,1 km/h (1 Bft) N 350 ° 0 min 0,000 mm 0,7 UV-I 65 W/m² 16,0 °C 25,4 °C 4,8 km/h (1 Bft)
21.08.2018 18:45 25,4 °C 55 % 1014,1 hPa 0,0 mm 3,6 km/h (1 Bft) N-NO 19 ° 0 min 0,000 mm 0,7 UV-I 76 W/m² 15,7 °C 25,4 °C 6,4 km/h (2 Bft)
21.08.2018 18:46 25,4 °C 55 % 1014,1 hPa 0,0 mm 4,9 km/h (1 Bft) N-NO 31 ° 0 min 0,000 mm 0,7 UV-I 72 W/m² 15,7 °C 25,4 °C 6,4 km/h (2 Bft)
21.08.2018 18:47 25,4 °C 54 % 1014,1 hPa 0,0 mm 2,4 km/h (1 Bft) NO 38 ° 0 min 0,000 mm 0,7 UV-I 120 W/m² 15,4 °C 25,4 °C 3,2 km/h (1 Bft)
21.08.2018 18:48 25,4 °C 56 % 1014,1 hPa 0,0 mm 1,3 km/h (1 Bft) NO 38 ° 0 min 0,000 mm 0,6 UV-I 137 W/m² 16,0 °C 25,4 °C 3,2 km/h (1 Bft)
21.08.2018 18:49 25,4 °C 56 % 1014,1 hPa 0,0 mm 2,9 km/h (1 Bft) N-NO 28 ° 0 min 0,000 mm 0,6 UV-I 123 W/m² 16,0 °C 25,4 °C 4,8 km/h (1 Bft)
21.08.2018 18:50 25,4 °C 58 % 1014,1 hPa 0,0 mm 0,7 km/h (0 Bft) N-NO 28 ° 0 min 0,000 mm 0,6 UV-I 109 W/m² 16,5 °C 25,4 °C 1,6 km/h (1 Bft)
21.08.2018 18:51 25,3 °C 55 % 1014,1 hPa 0,0 mm 0,5 km/h (0 Bft) N-NO 31 ° 0 min 0,000 mm 0,6 UV-I 84 W/m² 15,6 °C 25,3 °C 1,6 km/h (1 Bft)
21.08.2018 18:52 25,3 °C 55 % 1014,1 hPa 0,0 mm 2,0 km/h (1 Bft) N-NO 30 ° 0 min 0,000 mm 0,6 UV-I 62 W/m² 15,6 °C 25,3 °C 3,2 km/h (1 Bft)
21.08.2018 18:53 25,3 °C 57 % 1014,1 hPa 0,0 mm 3,6 km/h (1 Bft) N-NO 29 ° 0 min 0,000 mm 0,6 UV-I 60 W/m² 16,2 °C 25,3 °C 4,8 km/h (1 Bft)
21.08.2018 18:54 25,3 °C 56 % 1014,2 hPa 0,0 mm 3,8 km/h (1 Bft) N-NO 14 ° 0 min 0,000 mm 0,6 UV-I 60 W/m² 15,9 °C 25,3 °C 6,4 km/h (2 Bft)
21.08.2018 18:55 25,2 °C 55 % 1014,1 hPa 0,0 mm 3,9 km/h (1 Bft) N-NO 13 ° 0 min 0,000 mm 0,6 UV-I 60 W/m² 15,5 °C 25,2 °C 6,4 km/h (2 Bft)
21.08.2018 18:56 25,3 °C 55 % 1014,2 hPa 0,0 mm 2,3 km/h (1 Bft) N-NW 344 ° 0 min 0,000 mm 0,6 UV-I 60 W/m² 15,6 °C 25,3 °C 4,8 km/h (1 Bft)
21.08.2018 18:57 25,3 °C 56 % 1014,2 hPa 0,0 mm 3,6 km/h (1 Bft) N-NO 12 ° 0 min 0,000 mm 0,6 UV-I 60 W/m² 15,9 °C 25,3 °C 6,4 km/h (2 Bft)
21.08.2018 18:58 25,2 °C 56 % 1014,2 hPa 0,0 mm 4,9 km/h (1 Bft) N-NO 12 ° 0 min 0,000 mm 0,5 UV-I 60 W/m² 15,8 °C 25,2 °C 6,4 km/h (2 Bft)
21.08.2018 18:59 25,2 °C 56 % 1014,2 hPa 0,0 mm 3,4 km/h (1 Bft) N-NO 15 ° 0 min 0,000 mm 0,5 UV-I 60 W/m² 15,8 °C 25,2 °C 4,8 km/h (1 Bft)
21.08.2018 19:00 25,2 °C 56 % 1014,2 hPa 0,0 mm 4,5 km/h (1 Bft) N-NO 13 ° 0 min 0,101 mm 0,5 UV-I 60 W/m² 15,8 °C 25,2 °C 6,4 km/h (2 Bft)
21.08.2018 19:01 25,2 °C 55 % 1014,2 hPa 0,0 mm 1,4 km/h (1 Bft) N-NO 13 ° 0 min 0,000 mm 0,5 UV-I 58 W/m² 15,5 °C 25,2 °C 4,8 km/h (1 Bft)
21.08.2018 19:02 25,2 °C 55 % 1014,2 hPa 0,0 mm 2,1 km/h (1 Bft) N-NO 13 ° 0 min 0,000 mm 0,5 UV-I 56 W/m² 15,5 °C 25,2 °C 3,2 km/h (1 Bft)
21.08.2018 19:03 25,2 °C 56 % 1014,1 hPa 0,0 mm 1,8 km/h (1 Bft) N-NO 13 ° 0 min 0,000 mm 0,0 UV-I 53 W/m² 15,8 °C 25,2 °C 4,8 km/h (1 Bft)
21.08.2018 19:04 25,2 °C 56 % 1014,2 hPa 0,0 mm 2,0 km/h (1 Bft) N-NO 13 ° 0 min 0,000 mm 0,0 UV-I 53 W/m² 15,8 °C 25,2 °C 4,8 km/h (1 Bft)
21.08.2018 19:05 25,2 °C 56 % 1014,2 hPa 0,0 mm 3,3 km/h (1 Bft) N-NO 13 ° 0 min 0,000 mm 0,0 UV-I 51 W/m² 15,8 °C 25,2 °C 4,8 km/h (1 Bft)
21.08.2018 19:06 25,1 °C 56 % 1014,1 hPa 0,0 mm 1,4 km/h (1 Bft) N-NO 13 ° 0 min 0,000 mm 0,0 UV-I 51 W/m² 15,7 °C 25,1 °C 3,2 km/h (1 Bft)
21.08.2018 19:07 25,1 °C 56 % 1014,1 hPa 0,0 mm 2,1 km/h (1 Bft) O 93 ° 0 min 0,000 mm 0,0 UV-I 54 W/m² 15,7 °C 25,1 °C 6,4 km/h (2 Bft)
21.08.2018 19:08 25,1 °C 56 % 1014,1 hPa 0,0 mm 1,9 km/h (1 Bft) O-NO 78 ° 0 min 0,000 mm 0,0 UV-I 60 W/m² 15,7 °C 25,1 °C 6,4 km/h (2 Bft)
21.08.2018 19:09 25,1 °C 56 % 1014,1 hPa 0,0 mm 3,3 km/h (1 Bft) NO 42 ° 0 min 0,000 mm 0,0 UV-I 53 W/m² 15,7 °C 25,1 °C 6,4 km/h (2 Bft)
21.08.2018 19:10 25,0 °C 56 % 1014,1 hPa 0,0 mm 2,6 km/h (1 Bft) O 99 ° 0 min 0,000 mm 0,0 UV-I 54 W/m² 15,6 °C 25,0 °C 6,4 km/h (2 Bft)
21.08.2018 19:11 25,0 °C 56 % 1014,1 hPa 0,0 mm 1,1 km/h (1 Bft) O 99 ° 0 min 0,000 mm 0,0 UV-I 54 W/m² 15,6 °C 25,0 °C 1,6 km/h (1 Bft)
21.08.2018 19:12 24,9 °C 56 % 1014,1 hPa 0,0 mm 0,0 km/h (0 Bft) O 90 ° 0 min 0,000 mm 0,0 UV-I 58 W/m² 15,5 °C 24,9 °C 1,6 km/h (1 Bft)
21.08.2018 19:13 24,9 °C 58 % 1014,2 hPa 0,0 mm 3,2 km/h (1 Bft) O 90 ° 0 min 0,000 mm 0,0 UV-I 60 W/m² 16,1 °C 24,9 °C 6,4 km/h (2 Bft)
21.08.2018 19:14 24,9 °C 57 % 1014,2 hPa 0,0 mm 3,2 km/h (1 Bft) O-NO 67 ° 0 min 0,000 mm 0,0 UV-I 60 W/m² 15,8 °C 24,9 °C 4,8 km/h (1 Bft)
21.08.2018 19:15 24,9 °C 56 % 1014,2 hPa 0,0 mm 0,0 km/h (0 Bft) O-NO 67 ° 0 min 0,000 mm 0,0 UV-I 54 W/m² 15,5 °C 24,9 °C 1,6 km/h (1 Bft)
21.08.2018 19:16 24,9 °C 56 % 1014,2 hPa 0,0 mm 0,0 km/h (0 Bft) O-NO 67 ° 0 min 0,000 mm 0,0 UV-I 49 W/m² 15,5 °C 24,9 °C 3,2 km/h (1 Bft)
21.08.2018 19:17 24,8 °C 56 % 1014,2 hPa 0,0 mm 0,0 km/h (0 Bft) N 0 ° 0 min 0,000 mm 0,0 UV-I 49 W/m² 15,4 °C 24,8 °C 0,0 km/h (0 Bft)
21.08.2018 19:18 24,8 °C 57 % 1014,2 hPa 0,0 mm 0,0 km/h (0 Bft) N 0 ° 0 min 0,000 mm 0,0 UV-I 49 W/m² 15,7 °C 24,8 °C 0,0 km/h (0 Bft)
21.08.2018 19:20 24,6 °C 60 % 1014,2 hPa 0,0 mm 0,0 km/h (0 Bft) O-NO 63 ° 0 min 0,000 mm 0,0 UV-I 69 W/m² 16,3 °C 24,6 °C 0,0 km/h (0 Bft)
21.08.2018 19:22 24,4 °C 58 % 1014,3 hPa 0,0 mm 2,1 km/h (1 Bft) O 96 ° 0 min 0,000 mm 0,0 UV-I 76 W/m² 15,6 °C 24,4 °C 6,4 km/h (2 Bft)
21.08.2018 19:23 24,4 °C 58 % 1014,3 hPa 0,0 mm 1,8 km/h (1 Bft) O 96 ° 0 min 0,000 mm 0,0 UV-I 74 W/m² 15,6 °C 24,4 °C 4,8 km/h (1 Bft)
21.08.2018 19:24 24,5 °C 58 % 1014,3 hPa 0,0 mm 0,0 km/h (0 Bft) O 96 ° 0 min 0,000 mm 0,0 UV-I 72 W/m² 15,7 °C 24,5 °C 0,0 km/h (0 Bft)
21.08.2018 19:26 24,5 °C 59 % 1014,3 hPa 0,0 mm 0,3 km/h (0 Bft) O 96 ° 0 min 0,000 mm 0,0 UV-I 67 W/m² 15,9 °C 24,5 °C 1,6 km/h (1 Bft)
21.08.2018 19:27 24,5 °C 60 % 1014,3 hPa 0,0 mm 2,8 km/h (1 Bft) O-NO 78 ° 0 min 0,000 mm 0,0 UV-I 63 W/m² 16,2 °C 24,5 °C 4,8 km/h (1 Bft)
21.08.2018 19:29 24,5 °C 57 % 1014,3 hPa 0,0 mm 0,0 km/h (0 Bft) O-NO 78 ° 0 min 0,000 mm 0,0 UV-I 53 W/m² 15,4 °C 24,5 °C 1,6 km/h (1 Bft)
21.08.2018 19:30 24,4 °C 58 % 1014,3 hPa 0,0 mm 0,7 km/h (0 Bft) O-NO 78 ° 0 min 0,000 mm 0,0 UV-I 47 W/m² 15,6 °C 24,4 °C 3,2 km/h (1 Bft)
21.08.2018 19:32 24,3 °C 59 % 1014,3 hPa 0,0 mm 1,9 km/h (1 Bft) O-NO 78 ° 0 min 0,000 mm 0,0 UV-I 40 W/m² 15,8 °C 24,3 °C 4,8 km/h (1 Bft)
21.08.2018 19:33 24,2 °C 60 % 1014,3 hPa 0,0 mm 0,2 km/h (0 Bft) O-NO 78 ° 0 min 0,000 mm 0,0 UV-I 39 W/m² 15,9 °C 24,2 °C 1,6 km/h (1 Bft)
21.08.2018 19:35 24,2 °C 61 % 1014,3 hPa 0,0 mm 0,1 km/h (0 Bft) O-NO 78 ° 0 min 0,000 mm 0,0 UV-I 37 W/m² 16,2 °C 24,2 °C 1,6 km/h (1 Bft)
21.08.2018 19:36 24,1 °C 61 % 1014,3 hPa 0,0 mm 0,4 km/h (0 Bft) O-NO 78 ° 0 min 0,000 mm 0,0 UV-I 37 W/m² 16,1 °C 24,1 °C 1,6 km/h (1 Bft)
21.08.2018 19:38 23,8 °C 62 % 1014,3 hPa 0,0 mm 0,1 km/h (0 Bft) O-NO 78 ° 0 min 0,000 mm 0,0 UV-I 37 W/m² 16,1 °C 23,8 °C 1,6 km/h (1 Bft)
21.08.2018 19:39 23,7 °C 62 % 1014,3 hPa 0,0 mm 0,1 km/h (0 Bft) O-NO 78 ° 0 min 0,000 mm 0,0 UV-I 33 W/m² 16,0 °C 23,7 °C 1,6 km/h (1 Bft)
21.08.2018 19:41 23,6 °C 64 % 1014,3 hPa 0,0 mm 0,0 km/h (0 Bft) O-NO 78 ° 0 min 0,000 mm 0,0 UV-I 33 W/m² 16,4 °C 23,6 °C 0,0 km/h (0 Bft)
21.08.2018 19:42 23,4 °C 65 % 1014,3 hPa 0,0 mm 0,0 km/h (0 Bft) O-NO 78 ° 0 min 0,000 mm 0,0 UV-I 35 W/m² 16,4 °C 23,4 °C 0,0 km/h (0 Bft)
21.08.2018 19:44 23,2 °C 63 % 1014,3 hPa 0,0 mm 0,0 km/h (0 Bft) O-NO 78 ° 0 min 0,000 mm 0,0 UV-I 32 W/m² 15,8 °C 23,2 °C 0,0 km/h (0 Bft)
21.08.2018 19:45 23,1 °C 64 % 1014,3 hPa 0,0 mm 0,0 km/h (0 Bft) O-NO 78 ° 0 min 0,000 mm 0,0 UV-I 32 W/m² 15,9 °C 23,1 °C 0,0 km/h (0 Bft)
21.08.2018 19:47 22,9 °C 64 % 1014,3 hPa 0,0 mm 0,0 km/h (0 Bft) O-NO 78 ° 0 min 0,000 mm 0,0 UV-I 32 W/m² 15,7 °C 22,9 °C 0,0 km/h (0 Bft)
21.08.2018 19:48 22,9 °C 64 % 1014,3 hPa 0,0 mm 0,0 km/h (0 Bft) O-NO 78 ° 0 min 0,000 mm 0,0 UV-I 32 W/m² 15,7 °C 22,9 °C 0,0 km/h (0 Bft)
21.08.2018 19:50 22,8 °C 65 % 1014,5 hPa 0,0 mm 0,0 km/h (0 Bft) O-NO 78 ° 0 min 0,000 mm 0,0 UV-I 30 W/m² 15,9 °C 22,8 °C 0,0 km/h (0 Bft)
21.08.2018 19:51 22,7 °C 66 % 1014,5 hPa 0,0 mm 0,0 km/h (0 Bft) O-NO 78 ° 0 min 0,000 mm 0,0 UV-I 28 W/m² 16,0 °C 22,7 °C 0,0 km/h (0 Bft)
21.08.2018 19:53 22,4 °C 67 % 1014,5 hPa 0,0 mm 0,0 km/h (0 Bft) O-NO 78 ° 0 min 0,000 mm 0,0 UV-I 26 W/m² 16,0 °C 22,4 °C 0,0 km/h (0 Bft)
21.08.2018 19:54 22,4 °C 66 % 1014,5 hPa 0,0 mm 0,0 km/h (0 Bft) O-NO 78 ° 0 min 0,000 mm 0,0 UV-I 26 W/m² 15,7 °C 22,4 °C 0,0 km/h (0 Bft)
21.08.2018 19:56 22,6 °C 66 % 1014,5 hPa 0,0 mm 0,0 km/h (0 Bft) O-NO 78 ° 0 min 0,000 mm 0,0 UV-I 23 W/m² 15,9 °C 22,6 °C 0,0 km/h (0 Bft)
21.08.2018 19:57 22,6 °C 66 % 1014,5 hPa 0,0 mm 0,0 km/h (0 Bft) O-NO 78 ° 0 min 0,000 mm 0,0 UV-I 23 W/m² 15,9 °C 22,6 °C 0,0 km/h (0 Bft)
21.08.2018 19:59 22,4 °C 68 % 1014,5 hPa 0,0 mm 0,0 km/h (0 Bft) O-NO 78 ° 0 min 0,000 mm 0,0 UV-I 21 W/m² 16,2 °C 22,4 °C 0,0 km/h (0 Bft)
21.08.2018 20:00 22,3 °C 68 % 1014,5 hPa 0,0 mm 0,0 km/h (0 Bft) O-NO 78 ° 0 min 0,051 mm 0,0 UV-I 19 W/m² 16,1 °C 22,3 °C 0,0 km/h (0 Bft)
21.08.2018 20:02 22,3 °C 68 % 1014,5 hPa 0,0 mm 0,0 km/h (0 Bft) O-NO 78 ° 0 min 0,000 mm 0,0 UV-I 19 W/m² 16,1 °C 22,3 °C 0,0 km/h (0 Bft)
21.08.2018 20:03 21,9 °C 69 % 1014,5 hPa 0,0 mm 0,0 km/h (0 Bft) N 0 ° 0 min 0,000 mm 0,0 UV-I 16 W/m² 15,9 °C 21,9 °C 0,0 km/h (0 Bft)
21.08.2018 20:04 21,9 °C 68 % 1014,5 hPa 0,0 mm 0,0 km/h (0 Bft) N 0 ° 0 min 0,000 mm 0,0 UV-I 14 W/m² 15,7 °C 21,9 °C 0,0 km/h (0 Bft)
21.08.2018 20:05 21,9 °C 69 % 1014,6 hPa 0,0 mm 0,0 km/h (0 Bft) N 0 ° 0 min 0,000 mm 0,0 UV-I 14 W/m² 15,9 °C 21,9 °C 0,0 km/h (0 Bft)
21.08.2018 20:06 21,9 °C 68 % 1014,5 hPa 0,0 mm 0,0 km/h (0 Bft) N 0 ° 0 min 0,000 mm 0,0 UV-I 12 W/m² 15,7 °C 21,9 °C 0,0 km/h (0 Bft)
21.08.2018 20:07 22,0 °C 68 % 1014,5 hPa 0,0 mm 0,0 km/h (0 Bft) O-NO 67 ° 0 min 0,000 mm 0,0 UV-I 12 W/m² 15,8 °C 22,0 °C 1,6 km/h (1 Bft)
21.08.2018 20:08 21,9 °C 68 % 1014,6 hPa 0,0 mm 0,0 km/h (0 Bft) N 0 ° 0 min 0,000 mm 0,0 UV-I 12 W/m² 15,7 °C 21,9 °C 0,0 km/h (0 Bft)
21.08.2018 20:09 21,8 °C 70 % 1014,6 hPa 0,0 mm 0,0 km/h (0 Bft) N 0 ° 0 min 0,000 mm 0,0 UV-I 11 W/m² 16,1 °C 21,8 °C 0,0 km/h (0 Bft)
21.08.2018 20:12 21,4 °C 71 % 1014,6 hPa 0,0 mm 0,0 km/h (0 Bft) O-NO 78 ° 0 min 0,000 mm 0,0 UV-I 9 W/m² 15,9 °C 21,4 °C 0,0 km/h (0 Bft)
21.08.2018 20:13 21,4 °C 70 % 1014,6 hPa 0,0 mm 0,0 km/h (0 Bft) O-NO 78 ° 0 min 0,000 mm 0,0 UV-I 9 W/m² 15,7 °C 21,4 °C 0,0 km/h (0 Bft)
21.08.2018 20:14 21,3 °C 71 % 1014,6 hPa 0,0 mm 0,0 km/h (0 Bft) O-NO 78 ° 0 min 0,000 mm 0,0 UV-I 9 W/m² 15,8 °C 21,3 °C 0,0 km/h (0 Bft)
21.08.2018 20:15 21,3 °C 70 % 1014,6 hPa 0,0 mm 0,0 km/h (0 Bft) O-NO 78 ° 0 min 0,000 mm 0,0 UV-I 9 W/m² 15,6 °C 21,3 °C 0,0 km/h (0 Bft)
21.08.2018 20:17 21,6 °C 69 % 1014,6 hPa 0,0 mm 0,0 km/h (0 Bft) O-NO 78 ° 0 min 0,000 mm 0,0 UV-I 7 W/m² 15,7 °C 21,6 °C 0,0 km/h (0 Bft)
21.08.2018 20:18 21,6 °C 69 % 1014,6 hPa 0,0 mm 0,0 km/h (0 Bft) O-NO 78 ° 0 min 0,000 mm 0,0 UV-I 7 W/m² 15,7 °C 21,6 °C 0,0 km/h (0 Bft)
21.08.2018 20:19 21,7 °C 69 % 1014,6 hPa 0,0 mm 0,0 km/h (0 Bft) O-NO 78 ° 0 min 0,000 mm 0,0 UV-I 5 W/m² 15,8 °C 21,7 °C 0,0 km/h (0 Bft)
21.08.2018 20:20 21,8 °C 69 % 1014,7 hPa 0,0 mm 2,0 km/h (1 Bft) O-NO 78 ° 0 min 0,000 mm 0,0 UV-I 5 W/m² 15,9 °C 21,8 °C 3,2 km/h (1 Bft)
21.08.2018 20:21 21,8 °C 68 % 1014,6 hPa 0,0 mm 2,9 km/h (1 Bft) O-NO 78 ° 0 min 0,000 mm 0,0 UV-I 5 W/m² 15,6 °C 21,8 °C 4,8 km/h (1 Bft)
21.08.2018 20:22 21,9 °C 68 % 1014,6 hPa 0,0 mm 0,3 km/h (0 Bft) O-NO 78 ° 0 min 0,000 mm 0,0 UV-I 5 W/m² 15,7 °C 21,9 °C 1,6 km/h (1 Bft)
21.08.2018 20:23 21,9 °C 68 % 1014,7 hPa 0,0 mm 0,7 km/h (0 Bft) O-NO 78 ° 0 min 0,000 mm 0,0 UV-I 0 W/m² 15,7 °C 21,9 °C 1,6 km/h (1 Bft)
21.08.2018 20:24 21,9 °C 67 % 1014,7 hPa 0,0 mm 0,7 km/h (0 Bft) O-NO 78 ° 0 min 0,000 mm 0,0 UV-I 0 W/m² 15,5 °C 21,9 °C 1,6 km/h (1 Bft)
21.08.2018 20:25 22,0 °C 67 % 1014,7 hPa 0,0 mm 0,0 km/h (0 Bft) O-NO 78 ° 0 min 0,000 mm 0,0 UV-I 0 W/m² 15,6 °C 22,0 °C 0,0 km/h (0 Bft)
21.08.2018 20:26 22,1 °C 67 % 1014,8 hPa 0,0 mm 0,0 km/h (0 Bft) O-NO 78 ° 0 min 0,000 mm 0,0 UV-I 0 W/m² 15,7 °C 22,1 °C 0,0 km/h (0 Bft)
21.08.2018 20:27 22,1 °C 67 % 1014,7 hPa 0,0 mm 0,1 km/h (0 Bft) O-NO 78 ° 0 min 0,000 mm 0,0 UV-I 0 W/m² 15,7 °C 22,1 °C 1,6 km/h (1 Bft)
21.08.2018 20:28 22,0 °C 67 % 1014,7 hPa 0,0 mm 0,3 km/h (0 Bft) O-NO 78 ° 0 min 0,000 mm 0,0 UV-I 0 W/m² 15,6 °C 22,0 °C 1,6 km/h (1 Bft)
21.08.2018 20:29 21,9 °C 68 % 1014,8 hPa 0,0 mm 1,4 km/h (1 Bft) O-NO 78 ° 0 min 0,000 mm 0,0 UV-I 0 W/m² 15,7 °C 21,9 °C 3,2 km/h (1 Bft)
21.08.2018 20:30 21,8 °C 68 % 1014,8 hPa 0,0 mm 0,0 km/h (0 Bft) O-NO 78 ° 0 min 0,000 mm 0,0 UV-I 0 W/m² 15,6 °C 21,8 °C 0,0 km/h (0 Bft)
21.08.2018 20:31 21,7 °C 69 % 1014,8 hPa 0,0 mm 0,0 km/h (0 Bft) O-NO 78 ° 0 min 0,000 mm 0,0 UV-I 0 W/m² 15,8 °C 21,7 °C 0,0 km/h (0 Bft)
21.08.2018 20:32 21,6 °C 69 % 1014,8 hPa 0,0 mm 0,0 km/h (0 Bft) O-NO 78 ° 0 min 0,000 mm 0,0 UV-I 0 W/m² 15,7 °C 21,6 °C 0,0 km/h (0 Bft)
21.08.2018 20:33 21,5 °C 69 % 1014,8 hPa 0,0 mm 0,0 km/h (0 Bft) O-NO 78 ° 0 min 0,000 mm 0,0 UV-I 0 W/m² 15,6 °C 21,5 °C 0,0 km/h (0 Bft)
21.08.2018 20:34 21,4 °C 69 % 1014,9 hPa 0,0 mm 0,0 km/h (0 Bft) O-NO 78 ° 0 min 0,000 mm 0,0 UV-I 0 W/m² 15,5 °C 21,4 °C 0,0 km/h (0 Bft)
21.08.2018 20:35 21,5 °C 69 % 1014,9 hPa 0,0 mm 0,0 km/h (0 Bft) O-NO 78 ° 0 min 0,000 mm 0,0 UV-I 0 W/m² 15,6 °C 21,5 °C 0,0 km/h (0 Bft)
21.08.2018 20:36 21,4 °C 69 % 1014,8 hPa 0,0 mm 0,0 km/h (0 Bft) O-NO 78 ° 0 min 0,000 mm 0,0 UV-I 0 W/m² 15,5 °C 21,4 °C 0,0 km/h (0 Bft)
21.08.2018 20:37 21,4 °C 69 % 1014,8 hPa 0,0 mm 0,0 km/h (0 Bft) O-NO 78 ° 0 min 0,000 mm 0,0 UV-I 0 W/m² 15,5 °C 21,4 °C 0,0 km/h (0 Bft)
21.08.2018 20:38 21,4 °C 69 % 1014,9 hPa 0,0 mm 0,0 km/h (0 Bft) O-NO 78 ° 0 min 0,000 mm 0,0 UV-I 0 W/m² 15,5 °C 21,4 °C 0,0 km/h (0 Bft)
21.08.2018 20:39 21,4 °C 69 % 1014,9 hPa 0,0 mm 0,5 km/h (0 Bft) O-NO 78 ° 0 min 0,000 mm 0,0 UV-I 0 W/m² 15,5 °C 21,4 °C 1,6 km/h (1 Bft)
21.08.2018 20:40 21,4 °C 69 % 1014,9 hPa 0,0 mm 0,1 km/h (0 Bft) O-NO 78 ° 0 min 0,000 mm 0,0 UV-I 0 W/m² 15,5 °C 21,4 °C 1,6 km/h (1 Bft)
21.08.2018 20:41 21,3 °C 70 % 1014,9 hPa 0,0 mm 0,0 km/h (0 Bft) O-NO 78 ° 0 min 0,000 mm 0,0 UV-I 0 W/m² 15,6 °C 21,3 °C 0,0 km/h (0 Bft)
21.08.2018 20:42 21,3 °C 70 % 1014,9 hPa 0,0 mm 0,0 km/h (0 Bft) O-NO 78 ° 0 min 0,000 mm 0,0 UV-I 0 W/m² 15,6 °C 21,3 °C 0,0 km/h (0 Bft)
21.08.2018 20:43 21,3 °C 70 % 1015,0 hPa 0,0 mm 0,0 km/h (0 Bft) O-NO 78 ° 0 min 0,000 mm 0,0 UV-I 0 W/m² 15,6 °C 21,3 °C 0,0 km/h (0 Bft)
21.08.2018 20:44 21,2 °C 70 % 1015,0 hPa 0,0 mm 0,0 km/h (0 Bft) O-NO 78 ° 0 min 0,000 mm 0,0 UV-I 0 W/m² 15,5 °C 21,2 °C 0,0 km/h (0 Bft)
21.08.2018 20:45 21,2 °C 70 % 1015,0 hPa 0,0 mm 1,9 km/h (1 Bft) O-NO 78 ° 0 min 0,000 mm 0,0 UV-I 0 W/m² 15,5 °C 21,2 °C 3,2 km/h (1 Bft)
21.08.2018 20:46 21,2 °C 70 % 1015,0 hPa 0,0 mm 1,3 km/h (1 Bft) O-NO 78 ° 0 min 0,000 mm 0,0 UV-I 0 W/m² 15,5 °C 21,2 °C 3,2 km/h (1 Bft)
21.08.2018 20:47 21,1 °C 72 % 1015,1 hPa 0,0 mm 0,0 km/h (0 Bft) O-NO 78 ° 0 min 0,000 mm 0,0 UV-I 0 W/m² 15,8 °C 21,1 °C 0,0 km/h (0 Bft)
21.08.2018 20:48 20,8 °C 72 % 1015,1 hPa 0,0 mm 0,0 km/h (0 Bft) O-NO 78 ° 0 min 0,000 mm 0,0 UV-I 0 W/m² 15,6 °C 20,8 °C 0,0 km/h (0 Bft)
21.08.2018 20:49 20,7 °C 72 % 1015,1 hPa 0,0 mm 0,0 km/h (0 Bft) O-NO 78 ° 0 min 0,000 mm 0,0 UV-I 0 W/m² 15,5 °C 20,7 °C 0,0 km/h (0 Bft)
21.08.2018 20:50 20,6 °C 72 % 1015,1 hPa 0,0 mm 0,0 km/h (0 Bft) O-NO 78 ° 0 min 0,000 mm 0,0 UV-I 0 W/m² 15,4 °C 20,6 °C 0,0 km/h (0 Bft)
21.08.2018 20:51 20,6 °C 72 % 1015,1 hPa 0,0 mm 0,0 km/h (0 Bft) O-NO 78 ° 0 min 0,000 mm 0,0 UV-I 0 W/m² 15,4 °C 20,6 °C 0,0 km/h (0 Bft)
21.08.2018 20:52 20,4 °C 74 % 1015,1 hPa 0,0 mm 0,0 km/h (0 Bft) O-NO 78 ° 0 min 0,000 mm 0,0 UV-I 0 W/m² 15,6 °C 20,4 °C 0,0 km/h (0 Bft)
21.08.2018 20:53 20,2 °C 74 % 1015,1 hPa 0,0 mm 0,0 km/h (0 Bft) O-NO 78 ° 0 min 0,000 mm 0,0 UV-I 0 W/m² 15,4 °C 20,2 °C 0,0 km/h (0 Bft)
21.08.2018 20:54 20,1 °C 75 % 1015,1 hPa 0,0 mm 0,0 km/h (0 Bft) O-NO 78 ° 0 min 0,000 mm 0,0 UV-I 0 W/m² 15,5 °C 20,1 °C 0,0 km/h (0 Bft)
21.08.2018 20:55 20,0 °C 75 % 1015,1 hPa 0,0 mm 0,0 km/h (0 Bft) O-NO 78 ° 0 min 0,000 mm 0,0 UV-I 0 W/m² 15,4 °C 20,0 °C 0,0 km/h (0 Bft)
21.08.2018 20:56 20,0 °C 75 % 1015,1 hPa 0,0 mm 0,0 km/h (0 Bft) O-NO 78 ° 0 min 0,000 mm 0,0 UV-I 0 W/m² 15,4 °C 20,0 °C 0,0 km/h (0 Bft)
21.08.2018 20:57 19,9 °C 75 % 1015,1 hPa 0,0 mm 0,0 km/h (0 Bft) O-NO 78 ° 0 min 0,000 mm 0,0 UV-I 0 W/m² 15,3 °C 19,9 °C 0,0 km/h (0 Bft)
21.08.2018 20:58 19,9 °C 75 % 1015,1 hPa 0,0 mm 0,0 km/h (0 Bft) O-NO 78 ° 0 min 0,000 mm 0,0 UV-I 0 W/m² 15,3 °C 19,9 °C 0,0 km/h (0 Bft)
21.08.2018 20:59 19,9 °C 75 % 1015,1 hPa 0,0 mm 0,0 km/h (0 Bft) O-NO 78 ° 0 min 0,000 mm 0,0 UV-I 0 W/m² 15,3 °C 19,9 °C 0,0 km/h (0 Bft)
21.08.2018 21:00 19,8 °C 75 % 1015,1 hPa 0,0 mm 0,0 km/h (0 Bft) O-NO 78 ° 0 min 0,000 mm 0,0 UV-I 0 W/m² 15,2 °C 19,8 °C 0,0 km/h (0 Bft)
21.08.2018 21:01 19,8 °C 75 % 1015,1 hPa 0,0 mm 0,0 km/h (0 Bft) O-NO 78 ° 0 min 0,000 mm 0,0 UV-I 0 W/m² 15,2 °C 19,8 °C 0,0 km/h (0 Bft)
21.08.2018 21:02 19,9 °C 74 % 1015,2 hPa 0,0 mm 0,0 km/h (0 Bft) O-NO 78 ° 0 min 0,000 mm 0,0 UV-I 0 W/m² 15,1 °C 19,9 °C 0,0 km/h (0 Bft)
21.08.2018 21:03 19,9 °C 74 % 1015,2 hPa 0,0 mm 0,0 km/h (0 Bft) O-NO 78 ° 0 min 0,000 mm 0,0 UV-I 0 W/m² 15,1 °C 19,9 °C 0,0 km/h (0 Bft)
21.08.2018 21:04 20,1 °C 74 % 1015,1 hPa 0,0 mm 0,0 km/h (0 Bft) O-NO 78 ° 0 min 0,000 mm 0,0 UV-I 0 W/m² 15,3 °C 20,1 °C 0,0 km/h (0 Bft)
21.08.2018 21:05 20,1 °C 73 % 1015,2 hPa 0,0 mm 0,0 km/h (0 Bft) O-NO 78 ° 0 min 0,000 mm 0,0 UV-I 0 W/m² 15,1 °C 20,1 °C 0,0 km/h (0 Bft)
21.08.2018 21:06 20,1 °C 74 % 1015,2 hPa 0,0 mm 0,0 km/h (0 Bft) O-NO 78 ° 0 min 0,000 mm 0,0 UV-I 0 W/m² 15,3 °C 20,1 °C 0,0 km/h (0 Bft)
21.08.2018 21:07 19,8 °C 75 % 1015,2 hPa 0,0 mm 0,0 km/h (0 Bft) O-NO 78 ° 0 min 0,000 mm 0,0 UV-I 0 W/m² 15,2 °C 19,8 °C 0,0 km/h (0 Bft)
21.08.2018 21:08 19,8 °C 74 % 1015,2 hPa 0,0 mm 0,4 km/h (0 Bft) O-NO 78 ° 0 min 0,000 mm 0,0 UV-I 0 W/m² 15,0 °C 19,8 °C 1,6 km/h (1 Bft)
21.08.2018 21:09 19,8 °C 74 % 1015,2 hPa 0,0 mm 1,7 km/h (1 Bft) O-NO 78 ° 0 min 0,000 mm 0,0 UV-I 0 W/m² 15,0 °C 19,8 °C 3,2 km/h (1 Bft)
21.08.2018 21:10 19,8 °C 74 % 1015,2 hPa 0,0 mm 1,9 km/h (1 Bft) O-NO 78 ° 0 min 0,000 mm 0,0 UV-I 0 W/m² 15,0 °C 19,8 °C 3,2 km/h (1 Bft)
21.08.2018 21:11 19,8 °C 74 % 1015,2 hPa 0,0 mm 2,4 km/h (1 Bft) O-NO 78 ° 0 min 0,000 mm 0,0 UV-I 0 W/m² 15,0 °C 19,8 °C 4,8 km/h (1 Bft)
21.08.2018 21:12 19,7 °C 74 % 1015,3 hPa 0,0 mm 0,3 km/h (0 Bft) O-NO 78 ° 0 min 0,000 mm 0,0 UV-I 0 W/m² 14,9 °C 19,7 °C 1,6 km/h (1 Bft)
21.08.2018 21:13 19,6 °C 75 % 1015,3 hPa 0,0 mm 0,0 km/h (0 Bft) O-NO 78 ° 0 min 0,000 mm 0,0 UV-I 0 W/m² 15,0 °C 19,6 °C 0,0 km/h (0 Bft)
21.08.2018 21:14 19,4 °C 75 % 1015,3 hPa 0,0 mm 0,0 km/h (0 Bft) O-NO 78 ° 0 min 0,000 mm 0,0 UV-I 0 W/m² 14,8 °C 19,4 °C 0,0 km/h (0 Bft)
21.08.2018 21:15 19,4 °C 76 % 1015,3 hPa 0,0 mm 0,3 km/h (0 Bft) O-NO 78 ° 0 min 0,000 mm 0,0 UV-I 0 W/m² 15,1 °C 19,4 °C 1,6 km/h (1 Bft)
21.08.2018 21:16 19,4 °C 75 % 1015,3 hPa 0,0 mm 0,7 km/h (0 Bft) O-NO 78 ° 0 min 0,000 mm 0,0 UV-I 0 W/m² 14,8 °C 19,4 °C 1,6 km/h (1 Bft)
21.08.2018 21:17 19,5 °C 75 % 1015,3 hPa 0,0 mm 0,6 km/h (0 Bft) O-NO 78 ° 0 min 0,000 mm 0,0 UV-I 0 W/m² 14,9 °C 19,5 °C 3,2 km/h (1 Bft)
21.08.2018 21:18 19,7 °C 74 % 1015,3 hPa 0,0 mm 3,2 km/h (1 Bft) O-NO 78 ° 0 min 0,000 mm 0,0 UV-I 0 W/m² 14,9 °C 19,7 °C 4,8 km/h (1 Bft)
21.08.2018 21:19 19,8 °C 74 % 1015,3 hPa 0,0 mm 2,9 km/h (1 Bft) O-SO 123 ° 0 min 0,000 mm 0,0 UV-I 0 W/m² 15,0 °C 19,8 °C 4,8 km/h (1 Bft)
21.08.2018 21:20 19,8 °C 74 % 1015,4 hPa 0,0 mm 3,0 km/h (1 Bft) O-SO 123 ° 0 min 0,000 mm 0,0 UV-I 0 W/m² 15,0 °C 19,8 °C 4,8 km/h (1 Bft)
21.08.2018 21:21 19,9 °C 74 % 1015,4 hPa 0,0 mm 1,9 km/h (1 Bft) O-SO 123 ° 0 min 0,000 mm 0,0 UV-I 0 W/m² 15,1 °C 19,9 °C 3,2 km/h (1 Bft)
21.08.2018 21:22 19,9 °C 74 % 1015,4 hPa 0,0 mm 2,5 km/h (1 Bft) O-SO 123 ° 0 min 0,000 mm 0,0 UV-I 0 W/m² 15,1 °C 19,9 °C 4,8 km/h (1 Bft)
21.08.2018 21:23 19,8 °C 74 % 1015,4 hPa 0,0 mm 3,4 km/h (1 Bft) O-SO 123 ° 0 min 0,000 mm 0,0 UV-I 0 W/m² 15,0 °C 19,8 °C 4,8 km/h (1 Bft)
21.08.2018 21:24 19,8 °C 73 % 1015,4 hPa 0,0 mm 3,3 km/h (1 Bft) O-SO 123 ° 0 min 0,000 mm 0,0 UV-I 0 W/m² 14,8 °C 19,8 °C 4,8 km/h (1 Bft)
21.08.2018 21:25 19,8 °C 73 % 1015,5 hPa 0,0 mm 3,1 km/h (1 Bft) SO 137 ° 0 min 0,000 mm 0,0 UV-I 0 W/m² 14,8 °C 19,8 °C 4,8 km/h (1 Bft)
21.08.2018 21:26 19,8 °C 73 % 1015,5 hPa 0,0 mm 5,2 km/h (1 Bft) S-SO 162 ° 0 min 0,000 mm 0,0 UV-I 0 W/m² 14,8 °C 19,8 °C 8,0 km/h (2 Bft)
21.08.2018 21:27 19,8 °C 73 % 1015,5 hPa 0,0 mm 3,3 km/h (1 Bft) S-SO 162 ° 0 min 0,000 mm 0,0 UV-I 0 W/m² 14,8 °C 19,8 °C 8,0 km/h (2 Bft)
21.08.2018 21:28 19,7 °C 74 % 1015,5 hPa 0,0 mm 2,7 km/h (1 Bft) S-SO 162 ° 0 min 0,000 mm 0,0 UV-I 0 W/m² 14,9 °C 19,7 °C 6,4 km/h (2 Bft)
21.08.2018 21:29 19,6 °C 74 % 1015,5 hPa 0,0 mm 1,4 km/h (1 Bft) S-SO 162 ° 0 min 0,000 mm 0,0 UV-I 0 W/m² 14,8 °C 19,6 °C 3,2 km/h (1 Bft)
21.08.2018 21:30 19,6 °C 74 % 1015,5 hPa 0,0 mm 1,0 km/h (0 Bft) S-SO 161 ° 0 min 0,000 mm 0,0 UV-I 0 W/m² 14,8 °C 19,6 °C 3,2 km/h (1 Bft)
21.08.2018 21:31 19,6 °C 74 % 1015,6 hPa 0,0 mm 2,3 km/h (1 Bft) S-SO 162 ° 0 min 0,000 mm 0,0 UV-I 0 W/m² 14,8 °C 19,6 °C 3,2 km/h (1 Bft)
21.08.2018 21:32 19,6 °C 74 % 1015,6 hPa 0,0 mm 2,0 km/h (1 Bft) S-SO 162 ° 0 min 0,000 mm 0,0 UV-I 0 W/m² 14,8 °C 19,6 °C 3,2 km/h (1 Bft)
21.08.2018 21:33 19,5 °C 74 % 1015,6 hPa 0,0 mm 4,0 km/h (1 Bft) S-SO 162 ° 0 min 0,000 mm 0,0 UV-I 0 W/m² 14,7 °C 19,5 °C 6,4 km/h (2 Bft)
21.08.2018 21:34 19,4 °C 74 % 1015,6 hPa 0,0 mm 2,2 km/h (1 Bft) S-SO 162 ° 0 min 0,000 mm 0,0 UV-I 0 W/m² 14,6 °C 19,4 °C 3,2 km/h (1 Bft)
21.08.2018 21:35 19,2 °C 75 % 1015,6 hPa 0,0 mm 3,6 km/h (1 Bft) S-SO 162 ° 0 min 0,000 mm 0,0 UV-I 0 W/m² 14,7 °C 19,2 °C 6,4 km/h (2 Bft)
21.08.2018 21:36 19,2 °C 75 % 1015,6 hPa 0,0 mm 3,2 km/h (1 Bft) S-SO 162 ° 0 min 0,000 mm 0,0 UV-I 0 W/m² 14,7 °C 19,2 °C 3,2 km/h (1 Bft)
21.08.2018 21:37 19,2 °C 75 % 1015,6 hPa 0,0 mm 4,8 km/h (1 Bft) S-SO 157 ° 0 min 0,000 mm 0,0 UV-I 0 W/m² 14,7 °C 19,2 °C 6,4 km/h (2 Bft)
21.08.2018 21:38 19,2 °C 75 % 1015,7 hPa 0,0 mm 4,8 km/h (1 Bft) S-SO 157 ° 0 min 0,000 mm 0,0 UV-I 0 W/m² 14,7 °C 19,2 °C 8,0 km/h (2 Bft)
21.08.2018 21:39 19,2 °C 75 % 1015,7 hPa 0,0 mm 4,8 km/h (1 Bft) S-SO 157 ° 0 min 0,000 mm 0,0 UV-I 0 W/m² 14,7 °C 19,2 °C 6,4 km/h (2 Bft)
21.08.2018 21:40 19,2 °C 75 % 1015,7 hPa 0,0 mm 3,2 km/h (1 Bft) S-SO 157 ° 0 min 0,000 mm 0,0 UV-I 0 W/m² 14,7 °C 19,2 °C 6,4 km/h (2 Bft)
21.08.2018 21:41 19,2 °C 75 % 1015,7 hPa 0,0 mm 4,8 km/h (1 Bft) S-SO 157 ° 0 min 0,000 mm 0,0 UV-I 0 W/m² 14,7 °C 19,2 °C 6,4 km/h (2 Bft)
21.08.2018 21:42 19,2 °C 75 % 1015,6 hPa 0,0 mm 3,2 km/h (1 Bft) S-SO 157 ° 0 min 0,000 mm 0,0 UV-I 0 W/m² 14,7 °C 19,2 °C 6,4 km/h (2 Bft)
21.08.2018 21:45 19,1 °C 76 % 1015,6 hPa 0,0 mm 7,5 km/h (2 Bft) S-SO 162 ° 0 min 0,000 mm 0,0 UV-I 0 W/m² 14,8 °C 19,1 °C 8,0 km/h (2 Bft)
21.08.2018 21:47 18,8 °C 77 % 1015,6 hPa 0,0 mm 7,0 km/h (2 Bft) S-SO 162 ° 0 min 0,000 mm 0,0 UV-I 0 W/m² 14,7 °C 18,8 °C 8,0 km/h (2 Bft)
21.08.2018 21:48 18,8 °C 77 % 1015,6 hPa 0,0 mm 5,1 km/h (1 Bft) S-SO 162 ° 0 min 0,000 mm 0,0 UV-I 0 W/m² 14,7 °C 18,8 °C 6,4 km/h (2 Bft)
21.08.2018 21:49 18,8 °C 77 % 1015,7 hPa 0,0 mm 2,0 km/h (1 Bft) S-SO 162 ° 0 min 0,000 mm 0,0 UV-I 0 W/m² 14,7 °C 18,8 °C 3,2 km/h (1 Bft)
21.08.2018 21:50 18,8 °C 77 % 1015,7 hPa 0,0 mm 2,0 km/h (1 Bft) S-SO 162 ° 0 min 0,000 mm 0,0 UV-I 0 W/m² 14,7 °C 18,8 °C 3,2 km/h (1 Bft)
21.08.2018 21:52 18,8 °C 77 % 1015,7 hPa 0,0 mm 3,4 km/h (1 Bft) S-SO 162 ° 0 min 0,000 mm 0,0 UV-I 0 W/m² 14,7 °C 18,8 °C 6,4 km/h (2 Bft)
21.08.2018 21:53 18,9 °C 77 % 1015,7 hPa 0,0 mm 3,4 km/h (1 Bft) S-SO 162 ° 0 min 0,000 mm 0,0 UV-I 0 W/m² 14,8 °C 18,9 °C 6,4 km/h (2 Bft)
21.08.2018 21:54 18,8 °C 76 % 1015,7 hPa 0,0 mm 0,3 km/h (0 Bft) S-SO 162 ° 0 min 0,000 mm 0,0 UV-I 0 W/m² 14,5 °C 18,8 °C 1,6 km/h (1 Bft)
21.08.2018 21:55 18,9 °C 77 % 1015,7 hPa 0,0 mm 0,0 km/h (0 Bft) S-SO 162 ° 0 min 0,000 mm 0,0 UV-I 0 W/m² 14,8 °C 18,9 °C 0,0 km/h (0 Bft)
21.08.2018 21:57 18,8 °C 77 % 1015,7 hPa 0,0 mm 0,1 km/h (0 Bft) S-SO 162 ° 0 min 0,000 mm 0,0 UV-I 0 W/m² 14,7 °C 18,8 °C 1,6 km/h (1 Bft)
21.08.2018 21:58 18,7 °C 77 % 1015,7 hPa 0,0 mm 0,0 km/h (0 Bft) S-SO 162 ° 0 min 0,000 mm 0,0 UV-I 0 W/m² 14,6 °C 18,7 °C 0,0 km/h (0 Bft)
21.08.2018 21:59 18,6 °C 78 % 1015,7 hPa 0,0 mm 0,0 km/h (0 Bft) S-SO 162 ° 0 min 0,000 mm 0,0 UV-I 0 W/m² 14,7 °C 18,6 °C 0,0 km/h (0 Bft)
21.08.2018 22:01 18,4 °C 79 % 1015,7 hPa 0,0 mm 0,2 km/h (0 Bft) S-SO 162 ° 0 min 0,025 mm 0,0 UV-I 0 W/m² 14,7 °C 18,4 °C 1,6 km/h (1 Bft)
21.08.2018 22:02 18,4 °C 79 % 1015,7 hPa 0,0 mm 1,4 km/h (1 Bft) S-SO 162 ° 0 min 0,000 mm 0,0 UV-I 0 W/m² 14,7 °C 18,4 °C 6,4 km/h (2 Bft)
21.08.2018 22:04 18,6 °C 78 % 1015,7 hPa 0,0 mm 2,5 km/h (1 Bft) S-SO 162 ° 0 min 0,000 mm 0,0 UV-I 0 W/m² 14,7 °C 18,6 °C 3,2 km/h (1 Bft)
21.08.2018 22:05 18,7 °C 77 % 1015,7 hPa 0,0 mm 2,6 km/h (1 Bft) S-SO 162 ° 0 min 0,000 mm 0,0 UV-I 0 W/m² 14,6 °C 18,7 °C 3,2 km/h (1 Bft)
21.08.2018 22:07 18,7 °C 77 % 1015,7 hPa 0,0 mm 0,1 km/h (0 Bft) S-SO 162 ° 0 min 0,000 mm 0,0 UV-I 0 W/m² 14,6 °C 18,7 °C 1,6 km/h (1 Bft)
21.08.2018 22:08 18,7 °C 78 % 1015,7 hPa 0,0 mm 0,0 km/h (0 Bft) S-SO 162 ° 0 min 0,000 mm 0,0 UV-I 0 W/m² 14,8 °C 18,7 °C 0,0 km/h (0 Bft)
21.08.2018 22:10 18,4 °C 78 % 1015,7 hPa 0,0 mm 0,0 km/h (0 Bft) S-SO 162 ° 0 min 0,000 mm 0,0 UV-I 0 W/m² 14,5 °C 18,4 °C 0,0 km/h (0 Bft)
21.08.2018 22:11 18,3 °C 78 % 1015,7 hPa 0,0 mm 3,7 km/h (1 Bft) S-SO 162 ° 0 min 0,000 mm 0,0 UV-I 0 W/m² 14,4 °C 18,3 °C 8,0 km/h (2 Bft)
21.08.2018 22:13 18,2 °C 79 % 1015,7 hPa 0,0 mm 6,7 km/h (2 Bft) S 190 ° 0 min 0,000 mm 0,0 UV-I 0 W/m² 14,5 °C 18,2 °C 8,0 km/h (2 Bft)
21.08.2018 22:14 18,1 °C 80 % 1015,7 hPa 0,0 mm 4,2 km/h (1 Bft) S 190 ° 0 min 0,000 mm 0,0 UV-I 0 W/m² 14,6 °C 18,1 °C 6,4 km/h (2 Bft)
21.08.2018 22:16 17,8 °C 80 % 1015,7 hPa 0,0 mm 0,1 km/h (0 Bft) S 190 ° 0 min 0,000 mm 0,0 UV-I 0 W/m² 14,3 °C 17,8 °C 1,6 km/h (1 Bft)
21.08.2018 22:17 17,7 °C 81 % 1015,7 hPa 0,0 mm 0,0 km/h (0 Bft) S 190 ° 0 min 0,000 mm 0,0 UV-I 0 W/m² 14,4 °C 17,7 °C 0,0 km/h (0 Bft)
21.08.2018 22:19 17,7 °C 81 % 1015,7 hPa 0,0 mm 1,9 km/h (1 Bft) S 190 ° 0 min 0,000 mm 0,0 UV-I 0 W/m² 14,4 °C 17,7 °C 4,8 km/h (1 Bft)
21.08.2018 22:20 17,8 °C 81 % 1015,7 hPa 0,0 mm 3,0 km/h (1 Bft) S 190 ° 0 min 0,000 mm 0,0 UV-I 0 W/m² 14,5 °C 17,8 °C 4,8 km/h (1 Bft)
21.08.2018 22:22 17,9 °C 80 % 1015,7 hPa 0,0 mm 2,2 km/h (1 Bft) S 190 ° 0 min 0,000 mm 0,0 UV-I 0 W/m² 14,4 °C 17,9 °C 4,8 km/h (1 Bft)
21.08.2018 22:23 17,9 °C 80 % 1015,7 hPa 0,0 mm 0,0 km/h (0 Bft) S 190 ° 0 min 0,000 mm 0,0 UV-I 0 W/m² 14,4 °C 17,9 °C 0,0 km/h (0 Bft)
21.08.2018 22:25 18,1 °C 80 % 1015,7 hPa 0,0 mm 1,5 km/h (1 Bft) S 190 ° 0 min 0,000 mm 0,0 UV-I 0 W/m² 14,6 °C 18,1 °C 4,8 km/h (1 Bft)
21.08.2018 22:26 18,1 °C 80 % 1015,7 hPa 0,0 mm 1,8 km/h (1 Bft) S 190 ° 0 min 0,000 mm 0,0 UV-I 0 W/m² 14,6 °C 18,1 °C 3,2 km/h (1 Bft)
21.08.2018 22:28 18,1 °C 80 % 1015,7 hPa 0,0 mm 2,9 km/h (1 Bft) S 190 ° 0 min 0,000 mm 0,0 UV-I 0 W/m² 14,6 °C 18,1 °C 4,8 km/h (1 Bft)
21.08.2018 22:29 18,0 °C 80 % 1015,7 hPa 0,0 mm 2,6 km/h (1 Bft) S 190 ° 0 min 0,000 mm 0,0 UV-I 0 W/m² 14,5 °C 18,0 °C 4,8 km/h (1 Bft)
21.08.2018 22:31 17,9 °C 81 % 1015,8 hPa 0,0 mm 1,5 km/h (1 Bft) S 190 ° 0 min 0,000 mm 0,0 UV-I 0 W/m² 14,6 °C 17,9 °C 3,2 km/h (1 Bft)
21.08.2018 22:32 17,9 °C 81 % 1015,8 hPa 0,0 mm 1,8 km/h (1 Bft) S 190 ° 0 min 0,000 mm 0,0 UV-I 0 W/m² 14,6 °C 17,9 °C 3,2 km/h (1 Bft)
21.08.2018 22:34 17,8 °C 81 % 1015,7 hPa 0,0 mm 3,1 km/h (1 Bft) S 190 ° 0 min 0,000 mm 0,0 UV-I 0 W/m² 14,5 °C 17,8 °C 4,8 km/h (1 Bft)
21.08.2018 22:35 17,8 °C 81 % 1015,7 hPa 0,0 mm 3,5 km/h (1 Bft) S 190 ° 0 min 0,000 mm 0,0 UV-I 0 W/m² 14,5 °C 17,8 °C 4,8 km/h (1 Bft)
21.08.2018 22:37 17,7 °C 82 % 1015,7 hPa 0,0 mm 1,7 km/h (1 Bft) S 190 ° 0 min 0,000 mm 0,0 UV-I 0 W/m² 14,6 °C 17,7 °C 3,2 km/h (1 Bft)
21.08.2018 22:38 17,7 °C 82 % 1015,7 hPa 0,0 mm 0,0 km/h (0 Bft) S 190 ° 0 min 0,000 mm 0,0 UV-I 0 W/m² 14,6 °C 17,7 °C 0,0 km/h (0 Bft)
21.08.2018 22:40 17,6 °C 82 % 1015,7 hPa 0,0 mm 0,0 km/h (0 Bft) S 190 ° 0 min 0,000 mm 0,0 UV-I 0 W/m² 14,5 °C 17,6 °C 0,0 km/h (0 Bft)
21.08.2018 22:41 17,6 °C 82 % 1015,7 hPa 0,0 mm 0,0 km/h (0 Bft) S 190 ° 0 min 0,000 mm 0,0 UV-I 0 W/m² 14,5 °C 17,6 °C 0,0 km/h (0 Bft)
21.08.2018 22:43 17,4 °C 83 % 1015,7 hPa 0,0 mm 0,0 km/h (0 Bft) S 190 ° 0 min 0,000 mm 0,0 UV-I 0 W/m² 14,5 °C 17,4 °C 0,0 km/h (0 Bft)
21.08.2018 22:44 17,4 °C 83 % 1015,7 hPa 0,0 mm 0,0 km/h (0 Bft) S 190 ° 0 min 0,000 mm 0,0 UV-I 0 W/m² 14,5 °C 17,4 °C 0,0 km/h (0 Bft)
21.08.2018 22:46 17,4 °C 83 % 1015,7 hPa 0,0 mm 0,0 km/h (0 Bft) S 190 ° 0 min 0,000 mm 0,0 UV-I 0 W/m² 14,5 °C 17,4 °C 0,0 km/h (0 Bft)
21.08.2018 22:47 17,5 °C 83 % 1015,7 hPa 0,0 mm 0,0 km/h (0 Bft) N 0 ° 0 min 0,000 mm 0,0 UV-I 0 W/m² 14,6 °C 17,5 °C 0,0 km/h (0 Bft)
21.08.2018 22:48 17,5 °C 83 % 1015,7 hPa 0,0 mm 0,0 km/h (0 Bft) N 0 ° 0 min 0,000 mm 0,0 UV-I 0 W/m² 14,6 °C 17,5 °C 0,0 km/h (0 Bft)
21.08.2018 22:49 17,6 °C 82 % 1015,7 hPa 0,0 mm 1,6 km/h (1 Bft) S 180 ° 0 min 0,000 mm 0,0 UV-I 0 W/m² 14,5 °C 17,6 °C 3,2 km/h (1 Bft)
21.08.2018 22:50 17,6 °C 82 % 1015,6 hPa 0,0 mm 1,6 km/h (1 Bft) S 180 ° 0 min 0,000 mm 0,0 UV-I 0 W/m² 14,5 °C 17,6 °C 3,2 km/h (1 Bft)
21.08.2018 22:51 17,6 °C 82 % 1015,7 hPa 0,0 mm 0,0 km/h (0 Bft) S 180 ° 0 min 0,000 mm 0,0 UV-I 0 W/m² 14,5 °C 17,6 °C 1,6 km/h (1 Bft)
21.08.2018 22:52 17,5 °C 82 % 1015,7 hPa 0,0 mm 0,0 km/h (0 Bft) N 0 ° 0 min 0,000 mm 0,0 UV-I 0 W/m² 14,4 °C 17,5 °C 0,0 km/h (0 Bft)
21.08.2018 22:53 17,4 °C 82 % 1015,7 hPa 0,0 mm 0,0 km/h (0 Bft) N 0 ° 0 min 0,000 mm 0,0 UV-I 0 W/m² 14,3 °C 17,4 °C 0,0 km/h (0 Bft)
21.08.2018 22:56 17,4 °C 82 % 1015,7 hPa 0,0 mm 0,9 km/h (0 Bft) S 190 ° 0 min 0,000 mm 0,0 UV-I 0 W/m² 14,3 °C 17,4 °C 3,2 km/h (1 Bft)
21.08.2018 22:57 17,3 °C 83 % 1015,7 hPa 0,0 mm 0,5 km/h (0 Bft) S 190 ° 0 min 0,000 mm 0,0 UV-I 0 W/m² 14,4 °C 17,3 °C 1,6 km/h (1 Bft)
21.08.2018 22:58 17,3 °C 83 % 1015,7 hPa 0,0 mm 0,8 km/h (0 Bft) S 190 ° 0 min 0,000 mm 0,0 UV-I 0 W/m² 14,4 °C 17,3 °C 1,6 km/h (1 Bft)
21.08.2018 22:59 17,4 °C 83 % 1015,7 hPa 0,0 mm 0,1 km/h (0 Bft) S 190 ° 0 min 0,000 mm 0,0 UV-I 0 W/m² 14,5 °C 17,4 °C 1,6 km/h (1 Bft)
21.08.2018 23:00 17,3 °C 83 % 1015,7 hPa 0,0 mm 0,0 km/h (0 Bft) S 190 ° 0 min 0,026 mm 0,0 UV-I 0 W/m² 14,4 °C 17,3 °C 0,0 km/h (0 Bft)
21.08.2018 23:01 17,4 °C 82 % 1015,7 hPa 0,0 mm 0,0 km/h (0 Bft) N 0 ° 0 min 0,000 mm 0,0 UV-I 0 W/m² 14,3 °C 17,4 °C 0,0 km/h (0 Bft)
21.08.2018 23:02 17,4 °C 83 % 1015,7 hPa 0,0 mm 0,0 km/h (0 Bft) N 0 ° 0 min 0,000 mm 0,0 UV-I 0 W/m² 14,5 °C 17,4 °C 0,0 km/h (0 Bft)
21.08.2018 23:03 17,4 °C 82 % 1015,7 hPa 0,0 mm 0,0 km/h (0 Bft) N 0 ° 0 min 0,000 mm 0,0 UV-I 0 W/m² 14,3 °C 17,4 °C 0,0 km/h (0 Bft)
21.08.2018 23:04 17,4 °C 82 % 1015,8 hPa 0,0 mm 0,0 km/h (0 Bft) N 0 ° 0 min 0,000 mm 0,0 UV-I 0 W/m² 14,3 °C 17,4 °C 0,0 km/h (0 Bft)
21.08.2018 23:05 17,5 °C 82 % 1015,8 hPa 0,0 mm 0,0 km/h (0 Bft) N 0 ° 0 min 0,000 mm 0,0 UV-I 0 W/m² 14,4 °C 17,5 °C 0,0 km/h (0 Bft)
21.08.2018 23:06 17,5 °C 82 % 1015,8 hPa 0,0 mm 0,0 km/h (0 Bft) S 180 ° 0 min 0,000 mm 0,0 UV-I 0 W/m² 14,4 °C 17,5 °C 1,6 km/h (1 Bft)
21.08.2018 23:09 17,6 °C 82 % 1015,9 hPa 0,0 mm 0,0 km/h (0 Bft) S 190 ° 0 min 0,000 mm 0,0 UV-I 0 W/m² 14,5 °C 17,6 °C 0,0 km/h (0 Bft)
21.08.2018 23:10 17,5 °C 82 % 1015,8 hPa 0,0 mm 0,0 km/h (0 Bft) S 190 ° 0 min 0,000 mm 0,0 UV-I 0 W/m² 14,4 °C 17,5 °C 0,0 km/h (0 Bft)
21.08.2018 23:12 17,3 °C 82 % 1015,9 hPa 0,0 mm 0,0 km/h (0 Bft) S 190 ° 0 min 0,000 mm 0,0 UV-I 0 W/m² 14,2 °C 17,3 °C 0,0 km/h (0 Bft)
21.08.2018 23:13 17,3 °C 82 % 1015,9 hPa 0,0 mm 0,0 km/h (0 Bft) S 190 ° 0 min 0,000 mm 0,0 UV-I 0 W/m² 14,2 °C 17,3 °C 0,0 km/h (0 Bft)
21.08.2018 23:14 17,3 °C 82 % 1015,8 hPa 0,0 mm 0,0 km/h (0 Bft) S 190 ° 0 min 0,000 mm 0,0 UV-I 0 W/m² 14,2 °C 17,3 °C 0,0 km/h (0 Bft)
21.08.2018 23:15 17,3 °C 82 % 1015,9 hPa 0,0 mm 0,0 km/h (0 Bft) S 190 ° 0 min 0,000 mm 0,0 UV-I 0 W/m² 14,2 °C 17,3 °C 0,0 km/h (0 Bft)
21.08.2018 23:17 17,3 °C 83 % 1015,9 hPa 0,0 mm 0,0 km/h (0 Bft) S 190 ° 0 min 0,000 mm 0,0 UV-I 0 W/m² 14,4 °C 17,3 °C 0,0 km/h (0 Bft)
21.08.2018 23:18 17,2 °C 83 % 1015,9 hPa 0,0 mm 0,0 km/h (0 Bft) S 190 ° 0 min 0,000 mm 0,0 UV-I 0 W/m² 14,3 °C 17,2 °C 0,0 km/h (0 Bft)
21.08.2018 23:19 17,1 °C 83 % 1015,9 hPa 0,0 mm 0,0 km/h (0 Bft) S 190 ° 0 min 0,000 mm 0,0 UV-I 0 W/m² 14,2 °C 17,1 °C 0,0 km/h (0 Bft)
21.08.2018 23:21 16,9 °C 84 % 1015,8 hPa 0,0 mm 0,0 km/h (0 Bft) S 190 ° 0 min 0,000 mm 0,0 UV-I 0 W/m² 14,2 °C 16,9 °C 0,0 km/h (0 Bft)
21.08.2018 23:22 16,9 °C 84 % 1015,9 hPa 0,0 mm 0,0 km/h (0 Bft) N 0 ° 0 min 0,000 mm 0,0 UV-I 0 W/m² 14,2 °C 16,9 °C 0,0 km/h (0 Bft)
21.08.2018 23:23 16,9 °C 84 % 1015,8 hPa 0,0 mm 0,0 km/h (0 Bft) N 0 ° 0 min 0,000 mm 0,0 UV-I 0 W/m² 14,2 °C 16,9 °C 0,0 km/h (0 Bft)
21.08.2018 23:24 16,9 °C 84 % 1015,8 hPa 0,0 mm 0,0 km/h (0 Bft) N 0 ° 0 min 0,000 mm 0,0 UV-I 0 W/m² 14,2 °C 16,9 °C 0,0 km/h (0 Bft)
21.08.2018 23:25 17,0 °C 84 % 1015,9 hPa 0,0 mm 0,0 km/h (0 Bft) N 0 ° 0 min 0,000 mm 0,0 UV-I 0 W/m² 14,3 °C 17,0 °C 0,0 km/h (0 Bft)
21.08.2018 23:26 17,1 °C 84 % 1015,9 hPa 0,0 mm 0,0 km/h (0 Bft) N 0 ° 0 min 0,000 mm 0,0 UV-I 0 W/m² 14,4 °C 17,1 °C 0,0 km/h (0 Bft)
21.08.2018 23:27 17,2 °C 84 % 1015,9 hPa 0,0 mm 0,0 km/h (0 Bft) N 0 ° 0 min 0,000 mm 0,0 UV-I 0 W/m² 14,5 °C 17,2 °C 0,0 km/h (0 Bft)
21.08.2018 23:28 17,3 °C 83 % 1015,9 hPa 0,0 mm 0,0 km/h (0 Bft) N 0 ° 0 min 0,000 mm 0,0 UV-I 0 W/m² 14,4 °C 17,3 °C 0,0 km/h (0 Bft)
21.08.2018 23:31 17,4 °C 83 % 1015,9 hPa 0,0 mm 0,0 km/h (0 Bft) S 190 ° 0 min 0,000 mm 0,0 UV-I 0 W/m² 14,5 °C 17,4 °C 0,0 km/h (0 Bft)
21.08.2018 23:32 17,4 °C 82 % 1015,9 hPa 0,0 mm 0,0 km/h (0 Bft) S 190 ° 0 min 0,000 mm 0,0 UV-I 0 W/m² 14,3 °C 17,4 °C 0,0 km/h (0 Bft)
21.08.2018 23:33 17,4 °C 82 % 1015,9 hPa 0,0 mm 0,0 km/h (0 Bft) S 190 ° 0 min 0,000 mm 0,0 UV-I 0 W/m² 14,3 °C 17,4 °C 0,0 km/h (0 Bft)
21.08.2018 23:34 17,5 °C 82 % 1015,9 hPa 0,0 mm 0,0 km/h (0 Bft) S 190 ° 0 min 0,000 mm 0,0 UV-I 0 W/m² 14,4 °C 17,5 °C 0,0 km/h (0 Bft)
21.08.2018 23:35 17,6 °C 82 % 1015,9 hPa 0,0 mm 0,0 km/h (0 Bft) S 190 ° 0 min 0,000 mm 0,0 UV-I 0 W/m² 14,5 °C 17,6 °C 0,0 km/h (0 Bft)
21.08.2018 23:36 17,6 °C 82 % 1015,9 hPa 0,0 mm 0,0 km/h (0 Bft) S 190 ° 0 min 0,000 mm 0,0 UV-I 0 W/m² 14,5 °C 17,6 °C 0,0 km/h (0 Bft)
21.08.2018 23:37 17,6 °C 82 % 1015,9 hPa 0,0 mm 0,0 km/h (0 Bft) S 190 ° 0 min 0,000 mm 0,0 UV-I 0 W/m² 14,5 °C 17,6 °C 0,0 km/h (0 Bft)
21.08.2018 23:38 17,6 °C 82 % 1015,9 hPa 0,0 mm 0,0 km/h (0 Bft) S 190 ° 0 min 0,000 mm 0,0 UV-I 0 W/m² 14,5 °C 17,6 °C 0,0 km/h (0 Bft)
21.08.2018 23:39 17,6 °C 82 % 1015,9 hPa 0,0 mm 0,0 km/h (0 Bft) S 190 ° 0 min 0,000 mm 0,0 UV-I 0 W/m² 14,5 °C 17,6 °C 0,0 km/h (0 Bft)
21.08.2018 23:40 17,6 °C 82 % 1015,9 hPa 0,0 mm 0,0 km/h (0 Bft) S 190 ° 0 min 0,000 mm 0,0 UV-I 0 W/m² 14,5 °C 17,6 °C 0,0 km/h (0 Bft)
21.08.2018 23:41 17,6 °C 82 % 1015,9 hPa 0,0 mm 0,0 km/h (0 Bft) S 190 ° 0 min 0,000 mm 0,0 UV-I 0 W/m² 14,5 °C 17,6 °C 0,0 km/h (0 Bft)
21.08.2018 23:42 17,5 °C 82 % 1015,9 hPa 0,0 mm 0,0 km/h (0 Bft) S 190 ° 0 min 0,000 mm 0,0 UV-I 0 W/m² 14,4 °C 17,5 °C 0,0 km/h (0 Bft)
21.08.2018 23:43 17,4 °C 82 % 1015,9 hPa 0,0 mm 0,0 km/h (0 Bft) S 190 ° 0 min 0,000 mm 0,0 UV-I 0 W/m² 14,3 °C 17,4 °C 0,0 km/h (0 Bft)
21.08.2018 23:44 17,4 °C 82 % 1015,9 hPa 0,0 mm 0,0 km/h (0 Bft) S 190 ° 0 min 0,000 mm 0,0 UV-I 0 W/m² 14,3 °C 17,4 °C 0,0 km/h (0 Bft)
21.08.2018 23:45 17,4 °C 82 % 1015,9 hPa 0,0 mm 0,0 km/h (0 Bft) S 190 ° 0 min 0,000 mm 0,0 UV-I 0 W/m² 14,3 °C 17,4 °C 0,0 km/h (0 Bft)
21.08.2018 23:46 17,4 °C 82 % 1015,9 hPa 0,0 mm 0,0 km/h (0 Bft) S 190 ° 0 min 0,000 mm 0,0 UV-I 0 W/m² 14,3 °C 17,4 °C 0,0 km/h (0 Bft)
21.08.2018 23:47 17,4 °C 82 % 1015,9 hPa 0,0 mm 0,0 km/h (0 Bft) S 190 ° 0 min 0,000 mm 0,0 UV-I 0 W/m² 14,3 °C 17,4 °C 0,0 km/h (0 Bft)
21.08.2018 23:48 17,4 °C 83 % 1015,9 hPa 0,0 mm 0,0 km/h (0 Bft) S 190 ° 0 min 0,000 mm 0,0 UV-I 0 W/m² 14,5 °C 17,4 °C 0,0 km/h (0 Bft)
21.08.2018 23:49 17,4 °C 83 % 1015,9 hPa 0,0 mm 0,0 km/h (0 Bft) S 190 ° 0 min 0,000 mm 0,0 UV-I 0 W/m² 14,5 °C 17,4 °C 0,0 km/h (0 Bft)
21.08.2018 23:50 17,4 °C 82 % 1015,9 hPa 0,0 mm 0,8 km/h (0 Bft) S 190 ° 0 min 0,000 mm 0,0 UV-I 0 W/m² 14,3 °C 17,4 °C 3,2 km/h (1 Bft)
21.08.2018 23:51 17,3 °C 82 % 1016,0 hPa 0,0 mm 1,0 km/h (0 Bft) S 190 ° 0 min 0,000 mm 0,0 UV-I 0 W/m² 14,2 °C 17,3 °C 1,6 km/h (1 Bft)
21.08.2018 23:52 17,2 °C 82 % 1015,9 hPa 0,0 mm 0,2 km/h (0 Bft) S 190 ° 0 min 0,000 mm 0,0 UV-I 0 W/m² 14,1 °C 17,2 °C 1,6 km/h (1 Bft)
21.08.2018 23:53 17,2 °C 82 % 1015,9 hPa 0,0 mm 0,1 km/h (0 Bft) S 190 ° 0 min 0,000 mm 0,0 UV-I 0 W/m² 14,1 °C 17,2 °C 1,6 km/h (1 Bft)
21.08.2018 23:54 17,1 °C 83 % 1015,9 hPa 0,0 mm 0,0 km/h (0 Bft) S 190 ° 0 min 0,000 mm 0,0 UV-I 0 W/m² 14,2 °C 17,1 °C 0,0 km/h (0 Bft)
21.08.2018 23:55 17,1 °C 83 % 1015,9 hPa 0,0 mm 0,0 km/h (0 Bft) S 190 ° 0 min 0,000 mm 0,0 UV-I 0 W/m² 14,2 °C 17,1 °C 0,0 km/h (0 Bft)
21.08.2018 23:56 17,0 °C 83 % 1015,9 hPa 0,0 mm 0,0 km/h (0 Bft) S 190 ° 0 min 0,000 mm 0,0 UV-I 0 W/m² 14,1 °C 17,0 °C 0,0 km/h (0 Bft)
21.08.2018 23:57 16,9 °C 83 % 1015,9 hPa 0,0 mm 0,0 km/h (0 Bft) S 190 ° 0 min 0,000 mm 0,0 UV-I 0 W/m² 14,0 °C 16,9 °C 0,0 km/h (0 Bft)
21.08.2018 23:58 16,8 °C 84 % 1015,9 hPa 0,0 mm 0,0 km/h (0 Bft) S 190 ° 0 min 0,000 mm 0,0 UV-I 0 W/m² 14,1 °C 16,8 °C 0,0 km/h (0 Bft)
21.08.2018 23:59 16,7 °C 84 % 1015,9 hPa 0,0 mm 0,0 km/h (0 Bft) S 190 ° 0 min 0,000 mm 0,0 UV-I 0 W/m² 14,0 °C 16,7 °C 0,0 km/h (0 Bft)
_ Min-Zeit 06:55 18:16 18:17 - 23:59 - - - - - - 06:55 06:55 23:59
Minimum _ 12,5 °C 53 % 1014,0 hPa - 0,0 km/h (0 Bft) - - - - - - 11,1 °C 12,5 °C 0,0 km/h (0 Bft)
_ Max-Zeit 15:55 07:10 08:24 23:59 15:02 - - 12:04 14:00 13:41 14:04 14:09 15:55 11:56
Maximum _ 26,7 °C 92 % 1017,2 hPa 0,0 mm 13,2 km/h
O (3 Bft)
- - 2 min 0,508 mm 5,7 UV-I 805 W/m² 18,0 °C 26,7 °C 22,5 km/h
O-NO (4 Bft)
Durchschnitt _ 19,8 °C 74 % 1015,9 hPa #0,0 mm 2,4 km/h (1 Bft) NO - #5:22 h #3,734 mm 3,2 UV-I 227 W/m² 14,6 °C 19,8 °C 4,3 km/h (1 Bft)